[[{"header":{"parameterUnit":"m.s-1","parameterCategory":1,"la1":31.0,"la2":29.5877,"lo1":-88.7671,"lo2":-86.6584,"dy":0.0162,"dx":0.0185,"nx":115,"ny":88,"refTime":"2024-07-04T06:00:00:Z","depth":0,"parameterNumber":2,"parameterNumberName":"U-component_of_WINDS"},"data":[0.0,0.0,0.0,0.0,0.0,0.0,0.0,0.0,0.0,0.0,0.0,0.0,0.0,0.0,0.0,0.0,0.0,0.0,0.0,0.0,0.0,0.0,0.0,0.0,0.0,0.0,0.0,0.0,0.0,0.0,0.0,0.0,0.0,0.0,0.0,0.0,0.0,0.0,0.0,0.0,0.0,0.0,0.0,0.0,0.0,0.0,0.0,0.0,0.0,0.0,0.0,0.0,0.0,0.0,0.0,0.0,0.0,0.0,0.0,0.0,0.0,0.0,0.0,0.0,0.0,0.0,0.0,0.0,0.0,0.0,0.0,0.0,0.0,0.0,0.0,0.0,0.0,0.0,0.0,0.0,0.0,0.0,0.0,0.0,0.0,0.0,0.0,0.0,0.0,0.0,0.0,0.0,0.0,0.0,0.0,0.0,0.0,0.0,0.0,0.0,0.0,0.0,0.0,0.0,0.0,0.0,0.0,0.0,0.0,0.0,0.0,0.0,0.0,0.0,0.0,0.0,0.0,0.0,0.0,0.0,0.0,0.0,0.0,0.0,0.0,0.0,0.0,0.0,0.0,0.0,0.0,0.0,0.0,0.0,0.0,0.0,0.0,0.0,0.0,0.0,0.0,0.0,0.0,0.0,0.0,0.0,0.0,0.0,0.0,0.0,0.0,0.0,0.0,0.0,0.0,0.0,0.0,0.0,0.0,0.0,0.0,0.0,0.0,0.0,0.0,0.0,0.0,0.0,0.0,0.0,0.0,0.0,0.0,0.0,0.0,0.0,0.0,0.0,0.0,0.0,0.0,0.0,0.0,0.0,0.0,0.0,0.0,0.0,0.0,0.0,0.0,0.0,0.0,0.0,0.0,0.0,0.0,0.0,0.0,0.0,0.0,0.0,0.0,0.0,0.0,0.0,0.0,0.0,0.0,0.0,0.0,0.0,0.0,0.0,0.0,0.0,0.0,0.0,0.0,0.0,0.0,0.0,0.0,0.0,0.0,0.0,0.0,0.0,0.0,0.0,0.0,0.0,0.0,0.0,0.0,0.0,0.0,0.0,0.0,0.0,0.0,0.0,0.0,0.0,0.0,0.0,0.0,0.0,0.0,0.0,0.0,0.0,0.0,0.0,0.0,0.0,0.0,0.0,0.0,0.0,0.0,0.0,0.0,0.0,0.0,0.0,0.0,0.0,0.0,0.0,0.0,0.0,0.0,0.0,0.0,0.0,0.0,0.0,0.0,0.0,0.0,0.0,0.0,0.0,0.0,0.0,0.0,0.0,0.0,0.0,0.0,0.0,0.0,0.0,0.0,0.0,0.0,0.0,0.0,0.0,0.0,0.0,0.0,0.0,0.0,0.0,0.0,0.0,0.0,0.0,0.0,0.0,0.0,0.0,0.0,0.0,0.0,0.0,0.0,0.0,0.0,0.0,0.0,0.0,0.0,0.0,0.0,0.0,0.0,0.0,0.0,0.0,0.0,0.0,0.0,0.0,0.0,0.0,0.0,0.0,0.0,0.0,0.0,0.0,0.0,0.0,0.0,0.0,0.0,0.0,0.0,0.0,0.0,0.0,0.0,0.0,0.0,0.0,0.0,0.0,0.0,0.0,0.0,0.0,0.0,0.0,0.0,0.0,0.0,0.0,0.0,0.0,0.0,0.0,0.0,0.0,0.0,0.0,0.0,0.0,0.0,0.0,0.0,0.0,0.0,0.0,0.0,0.0,0.0,0.0,0.0,0.0,0.0,0.0,0.0,0.0,0.0,0.0,0.0,0.0,0.0,0.0,0.0,0.0,0.0,0.0,0.0,0.0,0.0,0.0,0.0,0.0,0.0,0.0,0.0,0.0,0.0,0.0,0.0,0.0,0.0,0.0,0.0,0.0,0.0,0.0,0.0,0.0,0.0,0.0,0.0,0.0,0.0,0.0,0.0,0.0,0.0,0.0,0.0,0.0,0.0,0.0,0.0,0.0,0.0,0.0,0.0,0.0,0.0,0.0,0.0,0.0,0.0,0.0,0.0,0.0,0.0,0.0,0.0,0.0,0.0,0.0,0.0,0.0,0.0,0.0,0.0,0.0,0.0,0.0,0.0,0.0,0.0,0.0,0.0,0.0,0.0,0.0,0.0,0.0,0.0,0.0,0.0,0.0,0.0,0.0,0.0,0.0,0.0,0.0,0.0,0.0,0.0,0.0,0.0,0.0,0.0,0.0,0.0,0.0,0.0,0.0,0.0,0.0,0.0,0.0,0.0,0.0,0.0,0.0,0.0,0.0,0.0,0.0,0.0,0.0,0.0,0.0,0.0,0.0,0.0,0.0,0.0,0.0,0.0,0.0,0.0,0.0,0.0,0.0,0.0,0.0,0.0,0.0,0.0,0.0,0.0,0.0,0.0,0.0,0.0,0.0,0.0,0.0,0.0,0.0,0.0,0.0,0.0,0.0,0.0,0.0,0.0,0.0,0.0,0.0,0.0,0.0,0.0,0.0,0.0,0.0,0.0,0.0,0.0,0.0,0.0,0.0,0.0,0.0,0.0,0.0,0.0,0.0,0.0,0.0,0.0,0.0,0.0,0.0,0.0,0.0,0.0,0.0,0.0,0.0,0.0,0.0,0.0,0.0,0.0,0.0,0.0,0.0,0.0,0.0,0.0,0.0,0.0,0.0,0.0,0.0,0.0,0.0,0.0,0.0,0.0,0.0,0.0,0.0,0.0,0.0,0.0,0.0,0.0,0.0,0.0,0.0,0.0,0.0,0.0,0.0,0.0,0.0,0.0,0.0,0.0,0.0,0.0,0.0,0.0,0.0,0.0,0.0,0.0,0.0,0.0,0.0,0.0,0.0,0.0,0.0,0.0,0.0,0.0,0.0,0.0,0.0,0.0,0.0,0.0,0.0,0.0,0.0,0.0,0.0,0.0,0.0,0.0,0.0,0.0,0.0,0.0,0.0,0.0,0.0,0.0,0.0,0.0,0.0,0.0,0.0,0.0,0.0,0.0,0.0,0.0,0.0,0.0,0.0,0.0,0.0,0.0,0.0,0.0,0.0,0.0,0.0,0.0,0.0,0.0,0.0,0.0,0.0,0.0,0.0,0.0,0.0,0.0,0.0,0.0,0.0,0.0,0.0,0.0,0.0,0.0,0.0,0.0,0.0,0.0,0.0,0.0,0.0,0.0,0.0,0.0,0.0,0.0,0.0,0.0,0.0,0.0,0.0,0.0,0.0,0.0,0.0,0.0,0.0,0.0,0.0,0.0,0.0,0.0,0.0,0.0,0.0,0.0,0.0,0.0,0.0,0.0,0.0,0.0,0.0,0.0,0.0,0.0,0.0,0.0,0.0,0.0,0.0,0.0,0.0,0.0,0.0,0.0,0.0,0.0,0.0,0.0,0.0,0.0,0.0,0.0,0.0,0.0,0.0,0.0,0.0,0.0,0.0,0.0,0.0,0.0,0.0,0.0,0.0,0.0,0.0,0.0,0.0,0.0,0.0,0.0,0.0,0.0,0.0,0.0,0.0,0.0,0.0,0.0,0.0,0.0,0.0,0.0,0.0,0.0,0.0,0.0,0.0,0.0,0.0,0.0,0.0,0.0,0.0,0.0,0.0,0.0,0.0,0.0,0.0,0.0,0.0,0.0,0.0,0.0,0.0,0.0,0.0,0.0,0.0,0.0,0.0,0.0,0.0,0.0,0.0,0.0,0.0,0.0,0.0,0.0,0.0,0.0,0.0,0.0,0.0,0.0,0.0,0.0,0.0,0.0,0.0,0.0,0.0,0.0,0.0,0.0,0.0,0.0,0.0,0.0,0.0,0.0,0.0,0.0,0.0,0.0,0.0,0.0,0.0,0.0,0.0,0.0,0.0,0.0,0.0,0.0,0.0,0.0,0.0,0.0,0.0,0.0,0.0,0.0,0.0,0.0,0.0,0.0,0.0,0.0,0.0,0.0,0.0,0.0,0.0,0.0,0.0,0.0,0.0,0.0,0.0,0.0,0.0,0.0,0.0,0.0,0.0,0.0,0.0,0.0,0.0,0.0,0.0,0.0,0.0,0.0,0.0,0.0,0.0,0.0,0.0,0.0,0.0,0.0,0.0,0.0,0.0,0.0,0.0,0.0,0.0,0.0,0.0,0.0,0.0,0.0,0.0,0.0,0.0,0.0,0.0,0.0,0.0,0.0,0.0,0.0,0.0,0.0,0.0,0.0,0.0,0.0,0.0,0.0,0.0,0.0,0.0,0.0,0.0,0.0,0.0,0.0,0.0,0.0,0.0,0.0,0.0,0.0,0.0,-1.946,0.0,0.0,0.0,0.0,0.0,0.0,0.0,0.0,0.0,0.0,0.0,0.0,0.0,0.0,0.0,0.0,0.0,0.0,0.0,0.0,0.0,0.0,0.0,0.0,0.0,0.0,0.0,0.0,0.0,0.0,0.0,0.0,0.0,0.0,0.0,0.0,0.0,0.0,0.0,0.0,0.0,0.0,0.0,0.0,0.0,0.0,0.0,0.0,0.0,0.0,0.0,0.0,0.0,0.0,0.0,0.0,0.0,0.0,0.0,0.0,0.0,0.0,0.0,0.0,0.0,0.0,0.0,0.0,0.0,0.0,0.0,0.0,0.0,0.0,0.0,0.0,0.0,0.0,0.0,0.0,0.0,0.0,0.0,0.0,0.0,0.0,0.0,0.0,0.0,0.0,0.0,0.0,0.0,0.0,0.0,0.0,0.0,0.0,0.0,0.0,0.0,0.0,0.0,0.0,0.0,0.0,0.0,0.0,0.0,0.0,-1.9555,-1.9446,-1.9649,-1.9636,-1.9335,0.0,0.0,0.0,0.0,0.0,0.0,0.0,0.0,0.0,0.0,0.0,0.0,0.0,0.0,0.0,0.0,0.0,0.0,0.0,0.0,0.0,0.0,0.0,0.0,0.0,0.0,0.0,0.0,0.0,0.0,0.0,0.0,0.0,0.0,0.0,0.0,0.0,0.0,0.0,0.0,0.0,0.0,0.0,0.0,0.0,0.0,0.0,0.0,0.0,0.0,0.0,0.0,0.0,0.0,0.0,0.0,0.0,0.0,0.0,0.0,0.0,0.0,0.0,0.0,0.0,0.0,0.0,0.0,0.0,0.0,0.0,0.0,0.0,0.0,0.0,0.0,0.0,0.0,0.0,0.0,0.0,0.0,0.0,0.0,0.0,0.0,0.0,0.0,0.0,0.0,0.0,0.0,0.0,0.0,0.0,0.0,0.0,0.0,0.0,0.0,0.0,0.0,0.0,0.0,0.0,0.0,0.0,0.0,0.0,0.0,0.0,0.0,-1.9852,-1.9834,-1.9611,0.0,0.0,0.0,0.0,0.0,0.0,0.0,0.0,0.0,0.0,0.0,0.0,0.0,0.0,0.0,0.0,0.0,0.0,0.0,0.0,0.0,0.0,0.0,0.0,0.0,0.0,0.0,0.0,0.0,0.0,0.0,0.0,0.0,0.0,0.0,0.0,0.0,0.0,0.0,0.0,0.0,0.0,0.0,0.0,0.0,0.0,0.0,0.0,0.0,0.0,0.0,0.0,0.0,0.0,0.0,0.0,0.0,0.0,0.0,0.0,0.0,0.0,0.0,0.0,0.0,0.0,0.0,0.0,0.0,0.0,0.0,0.0,0.0,0.0,0.0,0.0,0.0,0.0,0.0,0.0,0.0,0.0,0.0,0.0,0.0,0.0,0.0,0.0,0.0,0.0,0.0,0.0,0.0,0.0,0.0,0.0,0.0,0.0,0.0,0.0,0.0,0.0,0.0,0.0,0.0,0.0,0.0,0.0,0.0,0.0,-1.9715,-2.0559,-2.0581,0.0,-2.0517,0.0,0.0,0.0,0.0,0.0,0.0,0.0,0.0,0.0,0.0,0.0,0.0,0.0,0.0,0.0,0.0,0.0,0.0,0.0,0.0,0.0,0.0,0.0,0.0,0.0,0.0,0.0,0.0,0.0,0.0,0.0,0.0,0.0,0.0,0.0,0.0,0.0,0.0,0.0,0.0,0.0,0.0,0.0,0.0,0.0,0.0,0.0,0.0,0.0,0.0,0.0,0.0,0.0,0.0,0.0,0.0,0.0,0.0,0.0,0.0,0.0,0.0,0.0,0.0,0.0,0.0,0.0,0.0,0.0,0.0,0.0,0.0,0.0,0.0,0.0,0.0,0.0,0.0,0.0,0.0,0.0,0.0,0.0,0.0,0.0,0.0,0.0,0.0,0.0,0.0,0.0,0.0,0.0,0.0,0.0,0.0,0.0,0.0,0.0,0.0,0.0,0.0,0.0,0.0,0.0,0.0,0.0,0.0,0.0,0.0,0.0,-2.0612,-2.0633,-2.0381,0.0,0.0,0.0,0.0,0.0,0.0,0.0,0.0,0.0,0.0,0.0,0.0,0.0,0.0,0.0,0.0,0.0,0.0,0.0,0.0,0.0,0.0,0.0,0.0,0.0,0.0,0.0,0.0,0.0,0.0,0.0,0.0,0.0,0.0,0.0,0.0,0.0,0.0,0.0,0.0,0.0,0.0,0.0,0.0,0.0,0.0,0.0,0.0,0.0,0.0,0.0,0.0,0.0,0.0,0.0,0.0,0.0,0.0,0.0,0.0,0.0,0.0,0.0,0.0,0.0,0.0,0.0,0.0,0.0,0.0,0.0,0.0,0.0,0.0,0.0,0.0,0.0,0.0,0.0,0.0,0.0,0.0,0.0,0.0,0.0,0.0,0.0,0.0,0.0,0.0,0.0,0.0,0.0,0.0,0.0,0.0,0.0,0.0,0.0,0.0,0.0,0.0,0.0,0.0,0.0,0.0,0.0,0.0,0.0,0.0,-2.0415,0.0,-2.0949,-2.0882,-2.0501,-1.968,0.0,0.0,0.0,0.0,0.0,0.0,0.0,0.0,0.0,0.0,0.0,0.0,0.0,0.0,0.0,0.0,0.0,0.0,0.0,0.0,0.0,0.0,0.0,0.0,0.0,0.0,0.0,0.0,0.0,0.0,0.0,0.0,0.0,0.0,0.0,0.0,0.0,0.0,0.0,0.0,0.0,0.0,0.0,0.0,0.0,0.0,0.0,0.0,0.0,0.0,0.0,0.0,0.0,0.0,0.0,0.0,0.0,0.0,0.0,0.0,0.0,0.0,0.0,0.0,0.0,0.0,0.0,0.0,0.0,0.0,0.0,0.0,0.0,0.0,0.0,0.0,0.0,0.0,0.0,0.0,0.0,0.0,0.0,0.0,0.0,0.0,0.0,0.0,0.0,0.0,0.0,0.0,0.0,0.0,0.0,0.0,0.0,0.0,0.0,0.0,0.0,0.0,0.0,0.0,0.0,0.0,0.0,0.0,0.0,-2.1359,-2.1007,-2.1826,-2.1658,-2.1222,0.0,0.0,0.0,0.0,0.0,0.0,0.0,0.0,0.0,0.0,0.0,0.0,0.0,0.0,0.0,0.0,0.0,0.0,0.0,0.0,0.0,0.0,0.0,0.0,0.0,0.0,0.0,0.0,0.0,0.0,0.0,0.0,0.0,0.0,0.0,0.0,0.0,0.0,0.0,0.0,0.0,0.0,0.0,0.0,0.0,0.0,0.0,0.0,0.0,0.0,0.0,0.0,0.0,0.0,0.0,0.0,0.0,0.0,0.0,0.0,0.0,0.0,0.0,0.0,0.0,0.0,0.0,0.0,0.0,0.0,0.0,0.0,0.0,0.0,0.0,0.0,0.0,0.0,0.0,0.0,0.0,0.0,0.0,0.0,0.0,0.0,0.0,0.0,0.0,0.0,0.0,0.0,0.0,0.0,0.0,0.0,0.0,0.0,0.0,0.0,0.0,0.0,0.0,0.0,0.0,0.0,0.0,0.0,0.0,-2.0545,-2.0572,-2.1745,-2.3878,-2.2026,-2.1223,0.0,0.0,0.0,0.0,0.0,0.0,0.0,0.0,0.0,0.0,0.0,0.0,0.0,0.0,0.0,0.0,0.0,0.0,0.0,0.0,0.0,0.0,0.0,0.0,0.0,0.0,0.0,0.0,0.0,0.0,0.0,0.0,0.0,0.0,0.0,0.0,0.0,0.0,0.0,0.0,0.0,0.0,0.0,0.0,0.0,0.0,0.0,0.0,0.0,0.0,0.0,0.0,0.0,0.0,0.0,0.0,0.0,0.0,0.0,0.0,0.0,0.0,0.0,0.0,0.0,0.0,0.0,0.0,0.0,0.0,0.0,0.0,0.0,0.0,0.0,0.0,0.0,0.0,0.0,0.0,0.0,0.0,0.0,0.0,0.0,0.0,0.0,0.0,0.0,0.0,0.0,0.0,0.0,0.0,0.0,0.0,0.0,0.0,0.0,0.0,0.0,0.0,0.0,0.0,0.0,0.0,0.0,0.0,0.0,-2.0332,0.0,-2.318,0.0,-2.2318,-2.1243,0.0,0.0,0.0,0.0,0.0,0.0,0.0,0.0,0.0,0.0,0.0,0.0,0.0,0.0,0.0,0.0,0.0,0.0,0.0,0.0,0.0,0.0,0.0,0.0,0.0,0.0,0.0,0.0,0.0,0.0,0.0,0.0,0.0,0.0,0.0,0.0,0.0,0.0,0.0,0.0,0.0,0.0,0.0,0.0,0.0,0.0,0.0,0.0,0.0,0.0,0.0,0.0,0.0,0.0,0.0,0.0,0.0,0.0,0.0,0.0,0.0,0.0,0.0,0.0,0.0,0.0,0.0,0.0,0.0,0.0,0.0,0.0,0.0,0.0,0.0,0.0,0.0,0.0,0.0,0.0,0.0,0.0,0.0,0.0,0.0,0.0,0.0,0.0,0.0,0.0,0.0,0.0,0.0,0.0,0.0,0.0,0.0,0.0,0.0,0.0,0.0,0.0,0.0,0.0,0.0,0.0,0.0,0.0,-2.1043,-2.2739,-2.5104,-2.5212,-2.2974,-2.2616,-2.1321,0.0,0.0,0.0,0.0,0.0,0.0,0.0,0.0,0.0,0.0,0.0,0.0,0.0,0.0,0.0,0.0,0.0,0.0,0.0,0.0,0.0,0.0,0.0,0.0,0.0,0.0,0.0,0.0,0.0,0.0,0.0,0.0,0.0,0.0,0.0,0.0,0.0,0.0,0.0,0.0,0.0,0.0,0.0,0.0,0.0,0.0,0.0,0.0,0.0,0.0,0.0,0.0,0.0,0.0,0.0,0.0,0.0,0.0,0.0,0.0,0.0,0.0,0.0,0.0,0.0,0.0,0.0,0.0,0.0,0.0,0.0,0.0,0.0,0.0,0.0,0.0,0.0,0.0,0.0,0.0,0.0,0.0,0.0,0.0,0.0,0.0,0.0,0.0,0.0,0.0,0.0,0.0,0.0,0.0,0.0,0.0,0.0,0.0,0.0,0.0,0.0,0.0,0.0,0.0,0.0,0.0,0.0,0.0,0.0,-2.2413,-2.3786,-2.4865,-2.5428,-2.2852,-2.1558,0.0,0.0,0.0,0.0,0.0,0.0,0.0,0.0,0.0,0.0,0.0,0.0,0.0,0.0,0.0,0.0,0.0,0.0,0.0,0.0,0.0,0.0,0.0,0.0,0.0,0.0,0.0,0.0,0.0,0.0,0.0,0.0,0.0,0.0,0.0,0.0,0.0,0.0,0.0,0.0,0.0,0.0,0.0,0.0,0.0,0.0,0.0,0.0,0.0,0.0,0.0,0.0,0.0,0.0,0.0,0.0,0.0,0.0,0.0,0.0,0.0,0.0,0.0,0.0,0.0,0.0,0.0,0.0,0.0,0.0,0.0,0.0,0.0,0.0,0.0,0.0,0.0,0.0,0.0,0.0,0.0,0.0,0.0,0.0,0.0,0.0,0.0,0.0,0.0,0.0,0.0,0.0,0.0,0.0,0.0,0.0,0.0,0.0,0.0,0.0,0.0,0.0,0.0,0.0,0.0,0.0,0.0,0.0,0.0,-2.3252,-2.4786,-2.5938,-2.6657,-2.3985,-2.2447,-2.2242,0.0,0.0,0.0,0.0,0.0,0.0,0.0,0.0,0.0,0.0,0.0,0.0,0.0,0.0,0.0,0.0,0.0,0.0,0.0,0.0,0.0,0.0,0.0,0.0,0.0,0.0,0.0,0.0,0.0,0.0,0.0,0.0,0.0,0.0,0.0,0.0,0.0,0.0,0.0,0.0,0.0,0.0,0.0,0.0,0.0,0.0,0.0,0.0,0.0,0.0,0.0,0.0,0.0,0.0,0.0,0.0,0.0,0.0,0.0,0.0,0.0,0.0,0.0,0.0,0.0,0.0,0.0,0.0,0.0,0.0,0.0,0.0,0.0,0.0,0.0,0.0,0.0,0.0,0.0,0.0,0.0,0.0,0.0,0.0,0.0,0.0,0.0,0.0,0.0,0.0,0.0,0.0,0.0,0.0,0.0,0.0,0.0,0.0,0.0,0.0,0.0,0.0,0.0,0.0,0.0,0.0,0.0,0.0,-2.4915,-2.7617,-2.8235,-2.6632,-2.5712,-2.3859,0.0,0.0,0.0,0.0,0.0,0.0,0.0,0.0,0.0,0.0,0.0,0.0,0.0,0.0,0.0,0.0,0.0,0.0,0.0,0.0,0.0,0.0,0.0,0.0,0.0,0.0,0.0,0.0,0.0,0.0,0.0,0.0,0.0,0.0,0.0,0.0,0.0,0.0,0.0,0.0,0.0,0.0,0.0,0.0,0.0,0.0,0.0,0.0,0.0,0.0,0.0,0.0,0.0,0.0,0.0,0.0,0.0,0.0,0.0,0.0,0.0,0.0,0.0,0.0,0.0,0.0,0.0,0.0,0.0,0.0,0.0,0.0,0.0,0.0,0.0,0.0,0.0,0.0,0.0,0.0,0.0,0.0,0.0,0.0,0.0,0.0,0.0,0.0,0.0,0.0,0.0,0.0,0.0,0.0,0.0,0.0,0.0,0.0,0.0,0.0,0.0,0.0,0.0,0.0,0.0,0.0,0.0,0.0,0.0,-2.6232,-2.8458,-2.9041,-2.7684,-2.5893,-2.4304,0.0,0.0,0.0,0.0,0.0,0.0,0.0,0.0,0.0,0.0,0.0,0.0,0.0,0.0,0.0,0.0,0.0,0.0,0.0,0.0,0.0,0.0,0.0,0.0,0.0,0.0,0.0,0.0,0.0,0.0,0.0,0.0,0.0,0.0,0.0,0.0,0.0,0.0,0.0,0.0,0.0,0.0,0.0,0.0,0.0,0.0,0.0,0.0,0.0,0.0,0.0,0.0,0.0,0.0,0.0,0.0,0.0,0.0,0.0,0.0,0.0,0.0,0.0,0.0,0.0,0.0,0.0,0.0,0.0,0.0,0.0,0.0,0.0,0.0,0.0,0.0,0.0,0.0,0.0,0.0,0.0,0.0,0.0,0.0,0.0,0.0,0.0,0.0,0.0,0.0,0.0,0.0,0.0,0.0,0.0,0.0,0.0,0.0,0.0,0.0,0.0,0.0,0.0,0.0,0.0,0.0,0.0,0.0,-2.6046,-2.6974,-2.9139,-2.9842,-2.8878,-2.7385,-2.5538,0.0,0.0,0.0,0.0,0.0,0.0,0.0,0.0,0.0,0.0,0.0,0.0,0.0,0.0,0.0,0.0,0.0,0.0,0.0,0.0,0.0,0.0,0.0,0.0,0.0,0.0,0.0,0.0,0.0,0.0,0.0,0.0,0.0,0.0,0.0,0.0,0.0,0.0,0.0,0.0,0.0,0.0,0.0,0.0,0.0,0.0,0.0,0.0,0.0,0.0,0.0,0.0,0.0,0.0,0.0,0.0,0.0,0.0,0.0,0.0,0.0,0.0,0.0,0.0,0.0,0.0,0.0,0.0,0.0,0.0,0.0,0.0,0.0,0.0,0.0,0.0,0.0,0.0,0.0,0.0,0.0,0.0,0.0,0.0,0.0,0.0,0.0,0.0,0.0,0.0,0.0,0.0,0.0,0.0,0.0,0.0,0.0,0.0,0.0,0.0,0.0,0.0,0.0,0.0,0.0,0.0,0.0,0.0,-2.6995,-2.7411,-2.9694,-3.0543,-2.9921,-2.9299,-2.7046,0.0,0.0,0.0,0.0,0.0,0.0,0.0,0.0,0.0,0.0,0.0,0.0,0.0,0.0,0.0,0.0,0.0,0.0,0.0,0.0,0.0,0.0,0.0,0.0,0.0,0.0,0.0,0.0,0.0,0.0,0.0,0.0,0.0,0.0,0.0,0.0,0.0,0.0,0.0,0.0,0.0,0.0,0.0,0.0,0.0,0.0,0.0,0.0,0.0,0.0,0.0,0.0,0.0,0.0,0.0,0.0,0.0,0.0,0.0,0.0,0.0,0.0,0.0,0.0,0.0,0.0,0.0,0.0,0.0,0.0,0.0,0.0,0.0,0.0,0.0,0.0,0.0,0.0,0.0,0.0,0.0,0.0,0.0,0.0,0.0,0.0,0.0,0.0,0.0,0.0,0.0,0.0,0.0,0.0,0.0,0.0,0.0,0.0,0.0,0.0,0.0,0.0,0.0,0.0,0.0,0.0,0.0,0.0,-2.6873,-2.7354,-2.9559,-3.0423,-2.975,-2.8752,-2.7233,0.0,0.0,0.0,0.0,0.0,0.0,0.0,0.0,0.0,0.0,0.0,0.0,0.0,0.0,0.0,0.0,0.0,0.0,0.0,0.0,0.0,0.0,0.0,0.0,0.0,0.0,0.0,0.0,0.0,0.0,0.0,0.0,0.0,0.0,0.0,0.0,0.0,0.0,0.0,0.0,0.0,0.0,0.0,0.0,0.0,0.0,0.0,0.0,-1.979,0.0,0.0,0.0,0.0,0.0,0.0,0.0,0.0,0.0,0.0,0.0,0.0,0.0,0.0,0.0,0.0,0.0,0.0,0.0,0.0,0.0,0.0,0.0,0.0,0.0,0.0,0.0,0.0,0.0,0.0,0.0,0.0,0.0,0.0,0.0,0.0,0.0,0.0,0.0,0.0,0.0,0.0,0.0,0.0,0.0,0.0,0.0,0.0,0.0,0.0,0.0,0.0,0.0,0.0,0.0,0.0,0.0,0.0,0.0,-2.6881,-2.7739,-2.9646,-3.0382,-2.9655,-2.8811,-2.7402,0.0,0.0,0.0,0.0,0.0,0.0,0.0,0.0,0.0,0.0,0.0,0.0,0.0,0.0,0.0,0.0,0.0,0.0,0.0,0.0,0.0,0.0,0.0,0.0,0.0,0.0,0.0,0.0,0.0,0.0,0.0,0.0,0.0,0.0,0.0,0.0,0.0,0.0,0.0,0.0,0.0,0.0,0.0,0.0,0.0,0.0,0.0,0.0,0.0,0.0,0.0,0.0,0.0,0.0,0.0,0.0,0.0,0.0,0.0,0.0,0.0,0.0,0.0,0.0,0.0,0.0,0.0,0.0,0.0,0.0,0.0,0.0,0.0,0.0,0.0,0.0,0.0,0.0,0.0,0.0,0.0,0.0,0.0,0.0,0.0,0.0,0.0,0.0,0.0,0.0,0.0,0.0,0.0,0.0,0.0,0.0,0.0,0.0,0.0,0.0,0.0,0.0,0.0,0.0,0.0,0.0,0.0,-2.5664,-2.6919,-2.819,-2.9805,-3.0342,-2.9609,-2.8929,-2.7398,-2.4859,0.0,0.0,0.0,0.0,0.0,0.0,0.0,0.0,0.0,0.0,0.0,0.0,0.0,0.0,0.0,0.0,0.0,0.0,0.0,0.0,0.0,0.0,0.0,0.0,0.0,0.0,0.0,0.0,0.0,0.0,0.0,0.0,0.0,0.0,0.0,0.0,0.0,0.0,-1.8657,-1.8656,0.0,0.0,0.0,0.0,0.0,0.0,0.0,0.0,-2.1008,0.0,0.0,0.0,0.0,0.0,0.0,0.0,0.0,0.0,0.0,0.0,0.0,0.0,0.0,0.0,0.0,0.0,0.0,0.0,0.0,0.0,0.0,0.0,0.0,0.0,0.0,0.0,0.0,0.0,0.0,0.0,0.0,0.0,0.0,0.0,0.0,0.0,0.0,0.0,0.0,0.0,0.0,0.0,0.0,0.0,0.0,0.0,0.0,0.0,0.0,0.0,0.0,0.0,0.0,0.0,0.0,-2.4301,-2.5732,-2.7047,-2.819,-2.9659,-3.0195,-2.9576,-2.839,-2.6991,-2.5473,0.0,0.0,0.0,0.0,0.0,0.0,0.0,0.0,0.0,0.0,0.0,0.0,0.0,0.0,0.0,0.0,0.0,0.0,0.0,0.0,0.0,0.0,0.0,0.0,0.0,0.0,0.0,0.0,0.0,0.0,0.0,0.0,0.0,0.0,0.0,0.0,0.0,0.0,0.0,-1.9043,-1.9859,0.0,0.0,0.0,0.0,0.0,0.0,0.0,0.0,-2.0814,0.0,0.0,0.0,0.0,0.0,0.0,0.0,0.0,0.0,0.0,0.0,0.0,0.0,0.0,0.0,0.0,0.0,0.0,0.0,0.0,0.0,0.0,0.0,0.0,0.0,0.0,0.0,0.0,0.0,0.0,0.0,0.0,0.0,0.0,0.0,0.0,0.0,0.0,0.0,0.0,0.0,0.0,0.0,0.0,0.0,0.0,0.0,0.0,0.0,0.0,0.0,0.0,0.0,0.0,0.0,-2.3575,-2.5311,-2.6772,-2.8145,-2.9617,-2.9931,-2.8982,-2.7977,-2.6467,0.0,0.0,0.0,0.0,0.0,0.0,0.0,0.0,0.0,0.0,0.0,0.0,0.0,0.0,0.0,0.0,0.0,0.0,0.0,0.0,0.0,0.0,0.0,0.0,0.0,0.0,0.0,0.0,0.0,0.0,0.0,0.0,0.0,0.0,0.0,0.0,0.0,0.0,0.0,0.0,-1.9581,-1.9861,-2.0005,0.0,0.0,0.0,0.0,0.0,0.0,-2.1663,-2.1643,0.0,0.0,0.0,0.0,0.0,0.0,0.0,0.0,0.0,0.0,0.0,0.0,0.0,0.0,0.0,0.0,0.0,0.0,0.0,0.0,0.0,0.0,0.0,0.0,0.0,0.0,0.0,0.0,0.0,0.0,0.0,0.0,0.0,0.0,0.0,0.0,0.0,0.0,0.0,0.0,0.0,0.0,0.0,0.0,0.0,0.0,0.0,0.0,0.0,0.0,0.0,0.0,0.0,0.0,0.0,-2.2981,-2.4853,-2.6526,-2.8043,-2.9593,-2.9725,-2.8423,-2.7607,-2.5913,0.0,0.0,0.0,0.0,0.0,0.0,0.0,0.0,0.0,0.0,0.0,0.0,0.0,0.0,0.0,0.0,0.0,0.0,0.0,0.0,0.0,0.0,0.0,0.0,0.0,0.0,0.0,0.0,0.0,0.0,0.0,0.0,0.0,0.0,0.0,0.0,0.0,0.0,0.0,0.0,0.0,-2.0032,-2.0666,-2.0792,0.0,0.0,0.0,0.0,-2.2186,-2.2164,0.0,0.0,0.0,0.0,0.0,0.0,0.0,0.0,0.0,0.0,0.0,0.0,0.0,0.0,0.0,0.0,0.0,0.0,0.0,0.0,0.0,0.0,0.0,0.0,0.0,0.0,0.0,0.0,0.0,0.0,0.0,0.0,0.0,0.0,0.0,0.0,0.0,0.0,0.0,0.0,0.0,0.0,0.0,0.0,0.0,0.0,0.0,0.0,0.0,0.0,0.0,0.0,0.0,0.0,0.0,0.0,-2.2981,-2.4924,-2.6569,-2.7947,-2.9435,-2.9601,-2.825,-2.7161,-2.5497,0.0,0.0,0.0,0.0,0.0,0.0,0.0,0.0,0.0,0.0,0.0,0.0,0.0,0.0,0.0,0.0,0.0,0.0,0.0,0.0,0.0,0.0,0.0,0.0,0.0,0.0,0.0,0.0,0.0,0.0,0.0,0.0,0.0,0.0,0.0,0.0,0.0,0.0,0.0,0.0,0.0,-2.1304,-2.1909,-2.1621,-2.151,0.0,0.0,0.0,-2.1152,-2.0961,0.0,0.0,0.0,0.0,0.0,0.0,0.0,0.0,0.0,0.0,0.0,0.0,0.0,0.0,0.0,0.0,0.0,0.0,0.0,0.0,0.0,0.0,0.0,0.0,0.0,0.0,0.0,0.0,0.0,0.0,0.0,0.0,0.0,0.0,0.0,0.0,0.0,0.0,0.0,0.0,0.0,0.0,0.0,0.0,0.0,0.0,0.0,0.0,0.0,0.0,0.0,0.0,0.0,0.0,0.0,-2.1139,-2.2402,-2.4605,-2.6472,-2.797,-2.8633,-2.8746,-2.8312,-2.6678,-2.4946,0.0,0.0,0.0,0.0,0.0,0.0,0.0,0.0,0.0,0.0,0.0,0.0,0.0,0.0,0.0,0.0,0.0,0.0,0.0,0.0,0.0,0.0,0.0,0.0,0.0,0.0,0.0,0.0,0.0,0.0,0.0,0.0,0.0,0.0,0.0,0.0,0.0,0.0,0.0,0.0,0.0,0.0,-2.2002,-2.1841,0.0,0.0,0.0,-2.1413,-2.1874,0.0,0.0,0.0,0.0,0.0,0.0,0.0,0.0,0.0,0.0,0.0,0.0,0.0,0.0,0.0,0.0,0.0,0.0,0.0,0.0,0.0,0.0,0.0,0.0,0.0,0.0,0.0,0.0,0.0,0.0,0.0,0.0,0.0,0.0,0.0,0.0,0.0,0.0,0.0,0.0,0.0,0.0,0.0,0.0,0.0,0.0,0.0,0.0,0.0,0.0,0.0,0.0,0.0,0.0,0.0,0.0,0.0,-2.2202,-2.4452,-2.6292,-2.7709,-2.7945,-2.8007,-2.8037,-2.6314,0.0,0.0,0.0,0.0,0.0,0.0,0.0,0.0,0.0,0.0,0.0,0.0,0.0,0.0,0.0,0.0,0.0,0.0,0.0,0.0,0.0,0.0,0.0,0.0,0.0,0.0,0.0,-1.567,0.0,0.0,0.0,0.0,0.0,0.0,0.0,0.0,0.0,0.0,0.0,0.0,0.0,0.0,-2.1684,-2.2106,-2.2047,-2.1871,0.0,0.0,-2.1563,-2.2151,-2.1351,-2.0772,0.0,0.0,0.0,0.0,0.0,0.0,0.0,0.0,0.0,0.0,0.0,0.0,0.0,0.0,0.0,0.0,0.0,0.0,0.0,0.0,0.0,0.0,0.0,0.0,0.0,0.0,0.0,0.0,0.0,0.0,0.0,0.0,0.0,0.0,0.0,0.0,0.0,0.0,0.0,0.0,0.0,0.0,0.0,0.0,0.0,0.0,0.0,0.0,0.0,0.0,0.0,0.0,0.0,0.0,0.0,-2.2934,-2.4697,-2.6027,-2.6889,-2.7643,-2.7738,-2.718,-2.603,-2.4659,0.0,0.0,0.0,0.0,0.0,0.0,0.0,0.0,0.0,0.0,0.0,0.0,0.0,0.0,0.0,0.0,0.0,0.0,0.0,0.0,0.0,0.0,0.0,0.0,0.0,0.0,0.0,0.0,0.0,0.0,0.0,0.0,0.0,0.0,0.0,0.0,0.0,0.0,0.0,0.0,0.0,-2.2863,-2.2667,-2.2469,-2.2114,0.0,0.0,-2.1595,-2.1175,-2.0818,-2.0388,-1.9856,0.0,0.0,0.0,0.0,0.0,0.0,0.0,0.0,0.0,0.0,0.0,0.0,0.0,0.0,0.0,0.0,0.0,0.0,0.0,0.0,0.0,0.0,0.0,0.0,0.0,0.0,0.0,0.0,0.0,0.0,0.0,0.0,0.0,0.0,0.0,0.0,0.0,0.0,0.0,0.0,0.0,0.0,0.0,0.0,0.0,0.0,0.0,0.0,0.0,0.0,0.0,0.0,0.0,-2.2462,-2.3015,-2.4713,-2.6032,-2.6869,-2.6798,-2.6857,-2.7226,-2.5563,-2.4206,0.0,0.0,0.0,0.0,0.0,0.0,0.0,0.0,0.0,0.0,0.0,0.0,0.0,0.0,0.0,0.0,0.0,0.0,0.0,0.0,0.0,0.0,0.0,0.0,0.0,0.0,0.0,0.0,-1.6502,-1.6976,-1.7568,0.0,0.0,0.0,0.0,0.0,0.0,0.0,0.0,0.0,0.0,-2.2449,-2.217,-2.1732,0.0,0.0,-2.097,-2.0772,-2.0673,-2.0359,-1.9991,-1.9623,-1.9193,0.0,0.0,0.0,0.0,0.0,0.0,0.0,0.0,0.0,0.0,0.0,0.0,0.0,0.0,0.0,0.0,0.0,0.0,0.0,0.0,0.0,0.0,0.0,0.0,0.0,0.0,0.0,0.0,0.0,0.0,0.0,0.0,0.0,0.0,0.0,0.0,0.0,0.0,0.0,0.0,0.0,0.0,0.0,0.0,0.0,0.0,0.0,0.0,0.0,0.0,0.0,0.0,-2.3114,-2.3364,-2.4863,-2.5977,-2.6634,-2.6196,-2.6274,-2.6902,-2.5363,-2.4208,0.0,0.0,0.0,0.0,0.0,0.0,0.0,0.0,0.0,0.0,0.0,0.0,0.0,0.0,0.0,0.0,0.0,0.0,0.0,0.0,0.0,0.0,0.0,0.0,0.0,0.0,0.0,0.0,-1.7207,-1.77,-1.8579,0.0,0.0,0.0,0.0,0.0,0.0,0.0,0.0,0.0,0.0,-2.1766,-2.1554,-2.1042,-2.0646,-2.0646,-2.0308,-2.008,-2.0118,-2.0001,-1.9843,-1.9589,0.0,0.0,0.0,0.0,0.0,0.0,0.0,0.0,0.0,0.0,0.0,0.0,0.0,0.0,0.0,0.0,0.0,0.0,0.0,0.0,0.0,0.0,0.0,0.0,0.0,0.0,0.0,0.0,0.0,0.0,0.0,0.0,0.0,0.0,0.0,0.0,0.0,0.0,0.0,0.0,0.0,0.0,0.0,0.0,0.0,0.0,0.0,0.0,0.0,0.0,0.0,0.0,0.0,0.0,-2.4146,-2.5198,-2.5754,-2.593,-2.597,-2.6099,-2.6312,-2.5596,-2.4962,-2.4444,0.0,0.0,0.0,0.0,0.0,0.0,0.0,0.0,0.0,0.0,0.0,0.0,0.0,0.0,0.0,0.0,0.0,0.0,0.0,0.0,0.0,0.0,0.0,0.0,0.0,0.0,-1.8633,-1.8542,-1.861,0.0,0.0,0.0,0.0,0.0,0.0,0.0,0.0,0.0,0.0,-2.1663,-2.1051,-2.0858,-2.0586,-2.0309,-1.9939,-1.9849,-1.9784,-1.951,-1.9887,-2.0035,0.0,0.0,0.0,0.0,0.0,0.0,0.0,0.0,0.0,0.0,0.0,0.0,0.0,0.0,0.0,0.0,0.0,0.0,0.0,0.0,0.0,0.0,0.0,0.0,0.0,0.0,0.0,-2.3572,-2.252,0.0,0.0,0.0,0.0,0.0,0.0,0.0,0.0,0.0,0.0,0.0,-2.5665,-2.6423,0.0,0.0,0.0,0.0,0.0,0.0,0.0,0.0,0.0,0.0,0.0,0.0,-2.424,-2.4977,-2.5551,-2.5881,-2.5954,-2.599,-2.6099,-2.6279,-2.5544,-2.4679,-2.3644,0.0,0.0,0.0,0.0,0.0,0.0,0.0,0.0,0.0,0.0,0.0,0.0,0.0,0.0,0.0,0.0,0.0,0.0,0.0,0.0,0.0,0.0,0.0,0.0,0.0,-1.7539,0.0,0.0,0.0,0.0,0.0,0.0,0.0,0.0,0.0,0.0,0.0,-2.0896,-2.1335,-2.1149,-2.094,-2.0706,-2.0677,-2.0655,0.0,0.0,0.0,0.0,0.0,0.0,0.0,0.0,0.0,0.0,0.0,0.0,0.0,0.0,-1.8946,-1.7946,-1.7894,-1.7917,-1.7665,0.0,0.0,0.0,0.0,0.0,0.0,0.0,0.0,0.0,0.0,0.0,0.0,0.0,0.0,0.0,0.0,-2.3768,0.0,0.0,0.0,0.0,0.0,0.0,0.0,0.0,-2.6107,-2.6843,-2.7233,-2.7981,-2.7777,0.0,-2.6029,-2.4987,0.0,0.0,0.0,0.0,0.0,0.0,0.0,0.0,-2.4908,-2.5395,-2.5773,-2.5954,-2.6026,-2.6063,-2.6134,-2.6279,-2.5578,-2.4679,-2.3583,-2.2626,-2.2211,0.0,0.0,0.0,0.0,0.0,0.0,0.0,0.0,0.0,0.0,0.0,0.0,0.0,0.0,0.0,0.0,0.0,0.0,0.0,0.0,0.0,0.0,0.0,-1.8068,0.0,0.0,0.0,0.0,0.0,0.0,0.0,0.0,0.0,-2.1719,-2.0996,-2.0617,-2.0939,-2.0866,-2.0727,-2.074,0.0,0.0,0.0,0.0,0.0,0.0,0.0,-2.2495,-2.1736,-2.1587,-2.148,-2.0954,-2.0411,-1.9893,-1.9436,0.0,0.0,-1.843,-1.8488,-1.8597,-1.8402,-1.831,-1.8419,-1.8959,-1.8709,-1.851,0.0,0.0,0.0,0.0,0.0,0.0,0.0,0.0,-2.6911,-2.6922,0.0,-2.5535,0.0,0.0,0.0,0.0,0.0,0.0,0.0,0.0,-2.7643,-2.8181,-2.7887,-2.8454,-2.8757,-2.8706,-2.8144,-2.7555,-2.6689,-2.3691,0.0,0.0,0.0,0.0,0.0,0.0,-2.5445,-2.5446,-2.5824,-2.6026,-2.6026,-2.6132,-2.6222,-2.6279,-2.5664,-2.4962,-2.4243,-2.3675,-2.3083,-2.2445,-2.1691,0.0,0.0,0.0,0.0,0.0,0.0,0.0,0.0,0.0,0.0,0.0,0.0,0.0,0.0,0.0,0.0,0.0,0.0,0.0,0.0,-1.8233,0.0,0.0,0.0,0.0,0.0,0.0,0.0,0.0,0.0,0.0,-2.2072,-2.1411,-2.099,-2.133,0.0,0.0,0.0,0.0,-2.1549,-2.2719,-2.2446,-2.2206,-2.2617,-2.2218,-2.1682,-2.1039,0.0,0.0,-2.0264,-2.0158,-2.0135,-2.0123,-2.0123,-2.004,-1.9837,-2.0041,-2.0306,-2.0214,-2.0109,-2.01,-1.9889,-1.9515,-1.9442,-3.5238,0.0,0.0,0.0,0.0,-3.0885,-3.0791,-3.0851,-3.0505,-2.9864,-2.9012,-2.8464,0.0,0.0,0.0,0.0,0.0,0.0,-2.7112,-2.7943,-2.8417,-2.9003,-2.9686,-2.9886,-2.9679,-2.9141,-2.8965,-2.8234,-2.6949,-2.6033,-2.518,-2.4499,0.0,0.0,0.0,0.0,-2.5714,-2.6067,-2.6142,-2.6132,-2.6168,-2.6168,-2.6203,-2.6239,-2.5596,-2.518,-2.4896,-2.3885,-2.3249,-2.3013,-2.1798,0.0,0.0,0.0,0.0,0.0,0.0,0.0,0.0,0.0,0.0,0.0,0.0,0.0,0.0,0.0,0.0,0.0,0.0,0.0,-1.8197,-1.85,-1.9291,0.0,0.0,0.0,0.0,0.0,0.0,0.0,0.0,0.0,-2.2034,-2.2141,-2.2166,0.0,0.0,-2.289,-2.3077,-2.3022,-2.3106,-2.3452,0.0,0.0,0.0,-2.314,-2.3263,-2.2521,-2.2176,-2.1897,-2.1631,-2.1104,-2.0664,-2.0664,-2.0544,-2.0426,-2.0357,-2.0194,-2.0041,-1.9924,-1.9783,-1.978,-1.9992,-1.9901,-1.9745,-3.7988,-3.6409,-3.4151,-3.3225,-3.316,-3.272,-3.2628,-3.272,-3.2317,-3.1915,-3.1534,-3.0818,-3.0249,-2.9851,-2.8627,0.0,0.0,0.0,-2.8142,-2.9042,-2.9304,-2.9802,-3.0493,-3.0468,-3.0253,-2.9766,-2.9444,-2.8827,-2.7948,-2.8048,-2.7498,-2.6334,0.0,0.0,-2.6162,-2.5999,-2.6084,-2.6367,-2.6258,-2.6203,-2.6203,-2.6203,-2.6203,-2.6187,-2.5826,-2.5529,-2.5196,-2.4193,-2.3486,-2.3244,-2.2039,-2.1457,0.0,0.0,0.0,0.0,0.0,0.0,0.0,0.0,0.0,0.0,0.0,-1.7735,-1.7183,0.0,0.0,0.0,-1.6398,-1.7143,-1.8897,-1.9179,0.0,0.0,0.0,0.0,0.0,0.0,0.0,-2.2005,-2.2143,-2.2243,-2.2418,-2.29,-2.2932,-2.2166,-2.2627,-2.3088,-2.3195,0.0,-2.3381,-2.3779,-2.3567,-2.3257,-2.3084,-2.3269,-2.3232,-2.2543,-2.2149,-2.1913,-2.1788,-2.1342,-2.102,-2.1008,-2.0947,-2.0811,-2.0749,-2.0446,-2.0262,-2.0213,-2.0018,-1.9997,-2.0239,-2.0158,-2.0068,-4.0419,-3.9835,-3.5883,-3.4427,-3.4613,-3.3606,-3.3476,-3.3836,-3.2964,-3.3271,-3.4363,-3.2639,-3.2491,-3.3427,-3.0817,0.0,0.0,-2.91,-2.9209,-2.9615,-3.0245,-3.0468,-3.0468,-3.0468,-3.0468,-3.0468,-2.9749,-2.9402,-2.94,-2.9599,-2.9381,-2.859,-2.7167,-2.657,-2.686,-2.6706,-2.6586,-2.6586,-2.641,-2.627,-2.6203,-2.6203,-2.6203,-2.6203,-2.6203,-2.5924,-2.5295,-2.4497,-2.3829,-2.319,-2.2434,-2.2056,-2.213,0.0,0.0,0.0,0.0,0.0,0.0,0.0,0.0,0.0,0.0,0.0,0.0,0.0,0.0,0.0,-1.7235,0.0,-1.9163,-2.0026,0.0,0.0,0.0,-2.1513,-2.1102,-2.1459,-2.1851,-2.2311,0.0,0.0,0.0,0.0,-2.3301,-2.1628,-2.1698,-2.1972,-2.2235,-2.2457,-2.285,-2.3779,-2.3391,-2.3106,-2.3306,-2.2812,-2.2173,-2.1639,-2.1285,-2.1285,-2.1233,-2.1221,-2.1221,-2.1198,-2.1233,-2.1146,-2.0892,-2.0846,-2.0839,-2.0782,-2.0741,-2.0571,-2.0442,-2.0366,-2.0302,-4.136,-4.0876,-3.926,-3.8478,-3.8099,-3.6313,-3.5928,-3.6492,-3.5324,-3.4709,-3.4438,-3.4033,-3.3651,-3.3322,-3.2655,-3.2193,-3.1934,-3.1341,-3.1091,-3.1073,-3.0692,-3.0468,-3.0468,-3.0468,-3.0468,-3.0468,-3.0303,-2.9939,-2.9433,-2.9457,-2.9249,-2.8723,-2.7832,-2.7771,-2.8472,-2.8383,-2.8275,-2.8255,-2.7609,-2.6931,-2.622,-2.6203,-2.6203,-2.6203,-2.6203,-2.612,-2.5922,-2.4747,-2.403,-2.3831,-2.2628,-2.1969,-2.2027,-2.1819,0.0,0.0,0.0,0.0,0.0,0.0,0.0,0.0,0.0,-1.9594,-1.8654,0.0,-2.0369,0.0,-1.8262,-1.809,-1.9183,-1.9478,0.0,0.0,-2.2328,-2.2648,-2.2533,-2.206,-2.2031,-2.2684,-2.2541,-2.2317,-2.2131,-2.2605,-2.2604,-2.18,-2.2861,-2.3851,-2.3887,-2.353,-2.3355,-2.3467,-2.2587,-2.1874,-2.1993,-2.1796,-2.1565,-2.1463,-2.1388,-2.1336,-2.1233,-2.1233,-2.1233,-2.1233,-2.1233,-2.1094,-2.0967,-2.085,-2.0658,-2.0529,-2.0475,-2.0475,-2.041,-2.0281,-2.0151,-4.2266,-4.1931,-4.1157,-4.0702,-4.0367,-3.8116,-3.728,-3.7413,-3.6327,-3.5501,-3.4996,-3.4986,-3.4536,-3.3792,-3.3732,-3.3443,-3.2944,-3.2517,-3.2247,-3.217,-3.1712,-3.1321,-3.0981,-3.0964,-3.0841,-3.0526,-3.0468,-3.0311,-2.9914,-2.9897,-2.9779,-2.956,-2.9137,-2.929,-2.9871,-2.8977,-2.8638,-2.8887,-2.8034,-2.73,-2.67,-2.6385,-2.6222,-2.6293,-2.6293,-2.6329,-2.6364,-2.533,-2.4544,-2.4129,-2.3106,-2.2517,-2.2547,-2.2547,-2.2454,0.0,0.0,0.0,0.0,0.0,0.0,0.0,0.0,0.0,0.0,0.0,-2.0857,0.0,-1.9219,0.0,-2.0642,-2.0697,-2.1072,-2.2096,-2.2281,-2.2427,-2.2551,-2.2095,-2.2009,-2.266,-2.2401,-2.2078,-2.1946,-2.2128,-2.2149,-2.1749,-2.2663,-2.3306,-2.3108,-2.2821,-2.257,-2.2558,-2.1891,-2.1348,-2.1463,-2.1463,-2.1463,-2.1474,-2.1411,-2.1285,-2.1221,-2.1233,-2.1233,-2.1233,-2.1233,-2.1106,-2.085,-2.0733,-2.0604,-2.0346,-2.0281,-2.0281,-2.0281,-2.0151,-2.0085,-4.3031,-4.2884,-4.2158,-4.1923,-4.1778,-3.9512,-3.8228,-3.7627,-3.6619,-3.6011,-3.565,-3.5566,-3.5166,-3.456,-3.441,-3.404,-3.3463,-3.3188,-3.3111,-3.3094,-3.2862,-3.2348,-3.1769,-3.1709,-3.1371,-3.0675,-3.0617,-3.0567,-3.0468,-3.0468,-3.051,-3.0551,-3.0452,-3.0633,-3.0914,-2.9234,-2.8557,-2.9096,-2.8205,-2.7621,-2.7337,-2.664,-2.6329,-2.6435,-2.6418,-2.6469,-2.6555,-2.5866,-2.5111,-2.4392,-2.3734,-2.3331,-2.3109,-2.3214,-2.3276,0.0,-2.2767,0.0,0.0,0.0,0.0,0.0,0.0,0.0,0.0,-2.046,-2.0868,-2.1034,-2.0159,-2.0316,-2.2195,-2.2225,-2.2034,-2.1803,-2.181,-2.1953,-2.2191,-2.1984,-2.2028,-2.2555,-2.2408,-2.2123,-2.1975,-2.1925,-2.1874,-2.1824,-2.1886,-2.1972,-2.16,-2.1549,-2.1572,-2.1463,-2.1336,-2.1434,-2.1561,-2.1463,-2.1463,-2.1549,-2.136,-2.1233,-2.1233,-2.1233,-2.1233,-2.1233,-2.1233,-2.1106,-2.0786,-2.0733,-2.0616,-2.0216,-2.0151,-2.0151,-2.0151,-2.0085,-2.0085,-4.316,-4.3031,-4.2775,-4.2665,-4.2574,-4.1445,-4.007,-3.8538,-3.7418,-3.6649,-3.6131,-3.5756,-3.5493,-3.5374,-3.5374,-3.5345,-3.5334,-3.4486,-3.4145,-3.4165,-3.3272,-3.2763,-3.2497,-3.2481,-3.2116,-3.1394,-3.1378,-3.1064,-3.0468,-3.0468,-3.0634,-3.0861,-3.0275,-3.0393,0.0,0.0,0.0,0.0,-2.8904,-2.8122,-2.7467,-2.6925,-2.6589,-2.6572,-2.6572,0.0,-2.6486,-2.5816,-2.5346,-2.5179,-2.4475,0.0,0.0,0.0,0.0,0.0,0.0,0.0,0.0,0.0,0.0,0.0,-2.0597,-2.0434,-1.9771,-2.1035,-2.1768,-2.1426,-2.102,-2.0733,-2.0663,-2.0946,-2.1209,-2.155,-2.2497,-2.3057,-2.2884,-2.2946,-2.3037,-2.2823,-2.2494,-2.2185,-2.2135,-2.1999,-2.1937,-2.2073,-2.1886,-2.1749,-2.18,-2.1686,-2.1686,-2.18,-2.1686,-2.1498,-2.1371,-2.1348,-2.1388,-2.1285,-2.1221,-2.1233,-2.1233,-2.1233,-2.1233,-2.1233,-2.1233,-2.1094,-2.0903,-2.0786,-2.0616,-2.041,-2.0216,-2.0085,-2.0085,-2.0085,-2.0085,-4.3233,0.0,-4.3049,-4.2813,0.0,0.0,-4.1089,-3.9822,-3.8694,-3.7644,-3.661,-3.5926,-3.5639,-3.5605,-3.5365,-3.5369,-3.5403,-3.4584,-3.438,-3.4601,-3.39,-3.3495,-3.3316,-3.3271,-3.2862,-3.215,-3.2166,-3.1769,-3.1174,-3.1141,-3.1083,-3.0952,-3.0486,-3.0509,-3.0965,-3.0566,-3.0381,-3.0516,-2.9621,-2.8786,-2.7961,-2.7336,-2.6838,-2.6537,0.0,0.0,0.0,0.0,0.0,0.0,0.0,0.0,0.0,0.0,0.0,-2.1351,-2.1101,-2.0705,-2.005,-1.9793,-1.9758,-1.9878,-2.0011,-2.0094,-2.022,-2.0792,-2.1109,-2.1094,-2.0864,-2.0663,-2.0628,-2.0977,-2.1457,-2.1996,-2.2988,-2.3678,-2.3857,-2.3787,-2.3616,-2.3245,-2.2836,-2.2494,-2.2197,-2.2123,-2.2123,-2.2197,-2.2073,-2.1949,-2.1999,-2.1824,-2.1761,-2.1824,-2.1812,-2.1686,-2.1486,-2.1411,-2.1388,-2.1273,-2.1221,-2.1233,-2.1233,-2.1233,-2.1233,-2.1169,-2.1094,-2.0978,-2.085,-2.0669,-2.0464,-2.0281,-2.0151,-2.0085,-2.0085,-2.0085,-2.0085,-4.3287,-4.3104,-4.3086,-4.2741,-4.2159,-4.2159,-4.1758,-4.0997,0.0,0.0,0.0,-3.6051,-3.5622,-3.5588,-3.5258,-3.5155,-3.5145,-3.4569,-3.4521,-3.4976,-3.4665,-3.4415,-3.4234,-3.4143,-3.3698,-3.2984,-3.2968,-3.2646,-3.2007,-3.1874,-3.1592,-3.1089,-3.0857,-3.0749,-3.0692,-3.0568,-3.0609,-3.0797,-3.0112,-2.9404,-2.8649,-2.7823,-2.7147,-2.6636,-2.6485,-2.6469,-2.6589,-2.6537,-2.6184,-2.5446,-2.5481,-2.5096,-2.4083,-2.3735,-2.3351,-2.2892,-2.2357,-2.1707,-2.0865,-2.0533,-2.0011,-1.9315,-1.9399,-1.9893,-2.0766,-2.0442,-2.0368,-2.0868,-2.0597,-2.0615,-2.1189,-2.161,-2.2089,-2.2723,-2.3415,-2.4099,-2.4584,-2.4376,-2.4002,-2.3636,-2.3245,-2.2848,-2.2432,-2.2297,-2.2309,-2.2247,-2.2197,-2.2197,-2.2135,-2.1949,-2.1761,-2.1761,-2.1874,-2.1874,-2.1698,-2.1549,-2.1463,-2.14,-2.1285,-2.1233,-2.1233,-2.1233,-2.1233,-2.1233,-2.1042,-2.0858,-2.0621,-2.0537,-2.0302,-2.0095,-2.0096,-2.0085,-2.0085,-2.0085,-2.0085,-4.3305,-4.3178,-4.3123,-4.2995,-4.2775,-4.2757,-4.24,-4.1594,-3.9443,-3.8164,-3.7448,-3.6256,-3.5711,-3.5605,-3.5548,-3.5674,-3.59,-3.5555,-3.5528,0.0,-3.547,-3.5295,-3.514,-3.5094,-3.471,-3.4008,-3.3957,-3.3545,-3.2784,-3.2252,-3.1884,-3.1633,-3.1132,-3.0831,-3.0675,-3.0568,-3.0526,-3.0535,-2.9982,-2.9644,-2.9527,-2.8353,-2.7668,-2.7479,-2.6788,-2.6452,-2.6485,-2.6364,-2.6227,-2.6145,-2.611,-2.5499,-2.4249,-2.3458,-2.2476,-2.1314,-2.0347,-1.996,-2.0201,-2.0059,-2.0048,-2.0259,-2.0246,-2.0302,-2.0472,-2.0673,-2.1066,-2.1694,-2.1322,-2.135,-2.2028,-2.2271,-2.275,-2.3402,-2.4182,-2.4526,-2.4305,-2.4292,-2.4118,-2.3695,-2.3518,-2.3305,-2.2848,-2.2787,-2.2665,-2.242,-2.2309,-2.2197,-2.2197,-2.2197,-2.2011,-2.1835,-2.1949,-2.2011,-2.1761,-2.1698,-2.1561,-2.1463,-2.1285,-2.1233,-2.1233,-2.1233,-2.1233,-2.1233,-2.1042,-2.0756,-2.0438,-2.0389,-2.0211,-1.9938,-1.9964,-2.0074,-2.0085,-2.0085,-2.0009,-4.3998,-4.378,-4.336,-4.3068,-4.29,-4.29,-4.2634,-4.2032,-4.0428,-3.9076,-3.7939,-3.6444,-3.5773,-3.5677,-3.5436,-3.5378,-3.5454,-3.5,-3.4993,-3.5352,-3.5145,-3.5178,-3.5367,-3.5354,-3.5124,-3.4789,-3.4789,-3.4387,-3.3694,-3.3369,-3.2832,-3.2085,-3.1321,-3.0855,-3.0692,-3.0651,-3.0568,-3.051,-3.0277,-2.9935,-2.952,-2.8965,-2.8269,-2.7517,-2.7025,-2.6587,-2.6239,-2.6099,-2.6026,-2.5994,-2.6026,-2.5537,-2.4426,-2.3745,-2.2781,-2.1383,-2.0452,-2.01,-2.027,-2.0393,-2.0493,-2.0585,-2.0869,-2.0994,-2.098,-2.129,-2.1597,-2.186,-2.152,-2.1372,-2.1682,-2.2387,-2.2938,-2.3272,-2.4269,-2.4808,-2.465,-2.465,-2.4478,-2.4047,-2.3989,-2.3721,-2.2957,-2.2909,-2.2787,-2.2482,-2.2359,-2.2247,-2.2247,-2.2197,-2.2123,-2.2011,-2.1999,-2.1999,-2.1812,-2.1749,-2.1624,-2.14,-2.1411,-2.1371,-2.1296,-2.1221,-2.1285,-2.1233,-2.1031,-2.0824,-2.05,-2.0415,-2.0256,-1.9997,-2.0018,-2.0074,-2.0085,-1.9944,-1.9868,-4.4748,-4.4382,-4.3743,-4.325,-4.29,-4.29,-4.2711,-4.2289,-4.1078,-3.9838,-3.8538,-3.6884,-3.6059,-3.5881,-3.5446,-3.529,-3.5187,-3.4841,-3.4829,-3.513,-3.5002,-3.5152,-3.547,-3.5429,-3.5367,-3.5383,-3.5383,-3.5093,-3.46,-3.4425,-3.3642,-3.2341,-3.1426,-3.0935,-3.0773,-3.0733,-3.0651,-3.0568,-3.0526,-3.0245,-2.9682,-2.9499,-2.887,-2.786,-2.7316,-2.685,-2.627,-2.5999,-2.5807,-2.5701,-2.577,-2.5452,-2.4648,-2.403,-2.3192,-2.1988,-2.1152,-2.0729,-2.0803,-2.0959,-2.1111,-2.1169,-2.1367,-2.1549,-2.1719,-2.1871,-2.1935,-2.1841,-2.1602,-2.1532,-2.1839,-2.249,-2.3137,-2.3433,-2.4366,-2.4978,-2.5061,-2.4991,-2.4878,-2.4523,-2.4523,-2.4176,-2.3484,-2.3258,-2.3065,-2.2726,-2.2482,-2.2359,-2.2247,-2.2247,-2.2197,-2.2197,-2.2073,-2.1999,-2.1999,-2.1886,-2.1686,-2.1526,-2.1624,-2.1561,-2.136,-2.1336,-2.1336,-2.1221,-2.1031,-2.0749,-2.0587,-2.0473,-2.0191,-1.9854,-1.9779,-1.9846,-1.9693,-1.9533,-1.9488,-4.5315,-4.4602,-4.4327,-4.3723,-4.2956,-4.29,-4.2729,-4.2199,-4.0526,-3.9651,-3.9306,-3.7828,-3.6827,-3.631,-3.6172,-3.6061,-3.6002,-3.6277,-3.6035,-3.5603,-3.5839,-3.583,-3.5622,-3.5594,-3.5594,-3.5594,-3.5594,-3.5498,-3.5273,-3.4749,-3.3711,-3.2341,-3.1409,-3.0958,-3.0935,-3.0773,-3.0708,-3.0692,-3.0551,-3.0493,-3.0377,-2.9764,-2.935,-2.9218,-2.7828,-2.7081,-2.6879,-2.6171,-2.5701,-2.5701,-2.5659,-2.54,-2.4839,-2.4069,-2.3406,-2.2888,-2.1879,-2.1469,-2.1771,-2.1773,-2.196,-2.2462,-2.1896,-2.1747,-2.22,-2.2128,-2.1996,-2.1935,-2.1759,-2.1991,-2.3005,-2.3067,-2.346,-2.4422,-2.4829,-2.5061,-2.516,-2.5061,-2.5005,-2.5118,-2.5061,-2.4878,-2.4234,-2.4163,-2.3943,-2.3078,-2.2714,-2.2469,-2.2359,-2.2247,-2.2197,-2.2197,-2.2123,-2.2123,-2.2123,-2.1987,-2.1862,-2.1788,-2.1749,-2.1624,-2.1474,-2.14,-2.1336,-2.1285,-2.1026,-2.0687,-2.0317,-2.015,-1.996,-1.9328,-1.9233,-1.9312,-1.8862,-1.8826,-1.8988,-4.5663,-4.5224,-4.4218,-4.3524,-4.3105,-4.2957,-4.2844,-4.2696,-4.1715,-4.077,-3.9854,-3.8942,-3.7829,-3.6655,-3.6533,-3.6451,-3.6392,-3.6533,-3.6451,-3.6199,-3.6139,-3.6011,-3.5915,-3.5694,-3.5639,-3.5639,-3.5639,-3.5577,-3.5391,-3.4395,-3.3525,-3.2882,-3.1742,-3.1072,-3.0952,-3.0855,-3.0749,-3.0609,-3.0526,-3.0468,-3.0435,-3.0228,-2.9665,-2.8837,-2.8092,-2.7257,-2.648,-2.5922,-2.5663,-2.5659,-2.56,-2.5448,-2.5036,-2.4492,-2.3847,-2.3117,-2.2357,-2.1968,-2.2047,-2.2279,-2.2552,-2.2795,-2.24,-2.2235,-2.2328,-2.2217,-2.2091,-2.1996,-2.1759,-2.18,-2.2269,-2.2845,-2.3537,-2.4136,-2.4792,-2.53,-2.5383,-2.53,-2.5313,-2.5369,-2.5369,-2.5174,-2.4637,-2.4465,-2.4047,-2.3399,-2.3027,-2.2811,-2.2469,-2.2309,-2.2197,-2.2197,-2.2197,-2.2197,-2.2197,-2.2123,-2.2061,-2.1937,-2.1937,-2.1937,-2.1624,-2.1561,-2.1561,-2.1348,-2.0963,-2.0557,-2.0025,-1.9678,-1.9432,-1.8863,-1.8742,-1.8855,-1.8416,-1.8411,-1.8448,-4.592,-4.5297,-4.3943,-4.3269,-4.3142,-4.2975,-4.2829,-4.2666,-4.2289,-4.1292,-3.991,-3.942,-3.8479,-3.7273,-3.6913,-3.6794,-3.6736,-3.6816,-3.6776,-3.6615,-3.6367,-3.6199,-3.6054,-3.5783,-3.5639,-3.5639,-3.5639,-3.5622,-3.5453,-3.4117,-3.3389,-3.3186,-3.1918,-3.1112,-3.0992,-3.0952,-3.0831,-3.0593,-3.0568,-3.0526,-3.051,-3.0468,-2.993,-2.8771,-2.8401,-2.7591,-2.6278,-2.5942,-2.5717,-2.5621,-2.56,-2.541,-2.4974,-2.471,-2.4194,-2.3299,-2.2822,-2.2525,-2.2352,-2.2716,-2.2857,-2.2795,-2.2675,-2.2569,-2.2417,-2.2231,-2.2091,-2.1983,-2.1807,-2.1657,-2.1909,-2.2656,-2.3307,-2.3568,-2.446,-2.5025,-2.5246,-2.5301,-2.5273,-2.5508,-2.5536,-2.5425,-2.5034,-2.4681,-2.4163,-2.3669,-2.3374,-2.3088,-2.2592,-2.2371,-2.2247,-2.2247,-2.2185,-2.2197,-2.2197,-2.2197,-2.2135,-2.2061,-2.2123,-2.2061,-2.1824,-2.1761,-2.1624,-2.1365,-2.0915,-2.0426,-2.0053,-1.9605,-1.9059,-1.8654,-1.8425,-1.8208,-1.7749,-1.7871,-1.7817,-4.6177,-4.471,-4.3633,-4.3178,-4.3104,-4.2938,-4.2466,-4.185,-4.1551,-4.0651,-3.9481,-3.9066,-3.8454,-3.7793,-3.7392,-3.7203,-3.7147,-3.7374,-3.7185,-3.6696,-3.6574,-3.6409,-3.6097,-3.5783,-3.5639,-3.5639,-3.5639,-3.5639,-3.5537,-3.4134,-3.3389,-3.3305,-3.1935,-3.119,-3.1151,-3.1072,-3.0952,-3.0831,-3.0749,-3.0609,-3.051,-3.0468,-3.0145,-2.935,-2.8704,-2.7954,-2.7031,-2.6262,-2.5844,-2.5701,-2.5637,-2.5278,-2.471,-2.4574,-2.423,-2.355,-2.3348,-2.3172,-2.3039,-2.2963,-2.2857,-2.2795,-2.2675,-2.2555,-2.2417,-2.2231,-2.2091,-2.1983,-2.1902,-2.2014,-2.2442,-2.2691,-2.3036,-2.3454,-2.3685,-2.4111,-2.4783,-2.4801,-2.4941,-2.548,-2.5688,-2.5674,-2.5605,-2.509,-2.458,-2.4105,-2.3623,-2.3207,-2.2775,-2.2494,-2.242,-2.2359,-2.2309,-2.2185,-2.2197,-2.2197,-2.2197,-2.2099,-2.2063,-2.2063,-2.1925,-2.1812,-2.1565,-2.1358,-2.0881,-2.0476,-2.0053,-1.9566,-1.8988,-1.8423,-1.7701,-1.7334,-1.728,-1.7254,-1.7193,-4.5406,-4.392,-4.3396,-4.3233,-4.3287,-4.3031,-4.2467,-4.1833,-4.1631,-4.0727,-3.9515,-3.9139,-3.8636,-3.7951,-3.7667,-3.7503,-3.7411,-3.754,-3.7466,-3.7185,-3.6776,-3.6533,-3.6367,-3.5871,-3.5639,-3.5639,-3.5639,-3.5639,-3.5453,-3.4117,-3.3389,-3.3152,-3.1918,-3.1151,-3.1072,-3.1015,-3.0935,-3.0773,-3.0749,-3.0651,-3.051,-3.0468,-3.0162,-2.9433,-2.8738,-2.7755,-2.6438,-2.6085,-2.5828,-2.5701,-2.5454,-2.5068,-2.463,-2.4188,-2.3824,-2.3553,-2.3378,-2.3246,-2.3127,-2.2992,-2.2857,-2.2809,-2.2735,-2.2675,-2.2509,-2.2356,-2.2278,-2.2231,-2.2123,-2.223,-2.2365,-2.2651,-2.2887,-2.3136,-2.3612,-2.4096,-2.4693,-2.4889,-2.5112,-2.5685,-2.5839,-2.5839,-2.5784,-2.5605,-2.5203,-2.4509,-2.4105,-2.359,-2.303,-2.2665,-2.2555,-2.242,-2.2359,-2.2309,-2.2197,-2.2197,-2.2173,-2.2065,-2.192,-2.1619,-2.1437,-2.0911,-2.06,-2.0528,-2.0338,-1.9915,-1.938,-1.8762,-1.8322,-1.795,-1.7244,-1.7054,-1.6885,-1.6948,-1.6885,-4.5112,-4.394,-4.3706,-4.3542,-4.3323,-4.3068,-4.2377,-4.1524,-4.1633,-4.0691,-3.9278,-3.9173,-3.8794,-3.8074,-3.781,-3.7721,-3.7649,-3.7631,-3.7577,-3.754,-3.7031,-3.6713,-3.6533,-3.6028,-3.5694,-3.5622,-3.5639,-3.5639,-3.5453,-3.4134,-3.3423,-3.3305,-3.1935,-3.1151,-3.1055,-3.1055,-3.0975,-3.0814,-3.0773,-3.0692,-3.051,-3.0468,-3.0179,-2.9483,-2.8953,-2.797,-2.6475,-2.6122,-2.5844,-2.5663,-2.5323,-2.495,-2.4451,-2.3894,-2.3566,-2.3494,-2.3378,-2.3246,-2.3127,-2.2992,-2.2872,-2.2809,-2.2809,-2.2735,-2.2601,-2.2509,-2.2477,-2.2417,-2.237,-2.2324,-2.2409,-2.2611,-2.274,-2.2748,-2.3147,-2.3752,-2.4292,-2.4559,-2.505,-2.5697,-2.5893,-2.5893,-2.5893,-2.5893,-2.5425,-2.4567,-2.4408,-2.4002,-2.3138,-2.2848,-2.2739,-2.2555,-2.242,-2.2297,-2.2247,-2.2185,-2.1957,-2.1825,-2.1632,-2.1308,-2.0831,-2.0264,-1.9878,-1.9785,-1.9518,-1.9091,-1.8589,-1.7935,-1.7601,-1.7356,-1.7211,-1.7032,-1.6864,-1.6761,-1.6675,-4.5388,-4.4581,-4.4601,-4.3944,-4.3251,-4.3123,-4.2105,-4.0981,-4.1361,-4.0383,-3.8699,-3.9025,-3.8791,-3.8128,-3.7951,-3.781,-3.7721,-3.7649,-3.7613,-3.754,-3.7223,-3.6895,-3.6574,-3.6224,-3.5898,-3.5622,-3.5639,-3.5588,-3.5419,-3.4117,-3.3389,-3.3102,-3.1884,-3.119,-3.119,-3.1151,-3.1112,-3.0912,-3.0871,-3.0749,-3.0526,-3.0468,-3.0212,-2.9582,-2.9383,-2.8688,-2.733,-2.6491,-2.5946,-2.5621,-2.5394,-2.4895,-2.4204,-2.3767,-2.3566,-2.3494,-2.3363,-2.3246,-2.3127,-2.2992,-2.2857,-2.2841,-2.2809,-2.2749,-2.2661,-2.2615,-2.2615,-2.2555,-2.2626,-2.2626,-2.2594,-2.2666,-2.2573,-2.2306,-2.2442,-2.271,-2.3231,-2.3808,-2.4596,-2.561,-2.5837,-2.5893,-2.5893,-2.5893,-2.5495,-2.4681,-2.4394,-2.4105,-2.3198,-2.2909,-2.286,-2.2739,-2.2555,-2.2432,-2.2309,-2.2149,-2.1813,-2.1536,-2.132,-2.1104,-2.0451,-1.9853,-1.9505,-1.9333,-1.9206,-1.884,-1.8408,-1.7846,-1.7567,-1.7334,-1.72,-1.7022,-1.6864,-1.6761,-1.6591,-4.4599,-4.3901,-4.3796,-4.3542,-4.3214,-4.3141,-4.2395,-4.1325,-4.1035,-4.0184,-3.9115,-3.8699,-3.8391,-3.8194,-3.802,-3.7916,-3.781,-3.7721,-3.7649,-3.754,-3.7261,-3.6952,-3.6574,-3.6266,-3.5941,-3.5667,-3.5639,-3.5334,-3.4759,-3.3846,-3.3169,-3.2527,-3.1681,-3.1224,-3.119,-3.119,-3.1112,-3.0912,-3.0912,-3.0773,-3.051,-3.0468,-3.0336,-3.0162,-2.9682,-2.8969,-2.8075,-2.7201,-2.6389,-2.5654,-2.5185,-2.4558,-2.3894,-2.3638,-2.3595,-2.3581,-2.3392,-2.3275,-2.3231,-2.3023,-2.2902,-2.2857,-2.2857,-2.2857,-2.2812,-2.2766,-2.2689,-2.2672,-2.2879,-2.307,-2.296,-2.296,-2.2781,-2.2505,-2.2463,-2.2719,-2.3311,-2.4248,-2.5029,-2.5364,-2.5788,-2.5974,-2.5948,-2.5893,-2.5495,-2.4624,-2.4452,-2.4105,-2.3292,-2.2955,-2.2969,-2.286,-2.2678,-2.2396,-2.2165,-2.1874,-2.1534,-2.116,-2.0933,-2.0543,-1.993,-1.9509,-1.9121,-1.8883,-1.8759,-1.8566,-1.8126,-1.7824,-1.7534,-1.739,-1.7267,-1.7032,-1.6874,-1.6705,-1.6591,-4.4947,-4.3975,-4.3886,-4.3596,-4.3233,-4.316,-4.2414,-4.1289,-4.0745,-3.993,-3.8971,-3.8427,-3.8192,-3.8174,-3.807,-3.7985,-3.7898,-3.7774,-3.7667,-3.7613,-3.7429,-3.7069,-3.6574,-3.6114,-3.5827,-3.5599,-3.5334,-3.4962,-3.4455,-3.3474,-3.273,-3.2239,-3.1546,-3.119,-3.119,-3.1151,-3.1032,-3.0912,-3.0871,-3.0733,-3.0568,-3.0468,-3.0468,-3.0402,-3.0022,-2.9334,-2.8456,-2.7833,-2.6934,-2.5647,-2.4855,-2.4204,-2.3653,-2.3595,-2.361,-2.3523,-2.3451,-2.3334,-2.3246,-2.3068,-2.2947,-2.2902,-2.2888,-2.2888,-2.2888,-2.2872,-2.2766,-2.2778,-2.2962,-2.3108,-2.3032,-2.2985,-2.2894,-2.2764,-2.2555,-2.2855,-2.3469,-2.4183,-2.4861,-2.5194,-2.5544,-2.5774,-2.5932,-2.5893,-2.5495,-2.4738,-2.4509,-2.4019,-2.3208,-2.2824,-2.2655,-2.2412,-2.1999,-2.182,-2.1905,-2.1577,-2.1223,-2.0803,-2.0467,-1.9885,-1.9294,-1.9026,-1.8686,-1.8435,-1.8269,-1.8181,-1.7801,-1.7712,-1.7534,-1.7368,-1.7267,-1.7032,-1.6864,-1.6751,-1.6581,-4.603,-4.4727,-4.4635,-4.4015,-4.3287,-4.3214,-4.2287,-4.08,-4.0546,-3.9731,-3.8572,-3.8264,-3.8192,-3.8174,-3.8088,-3.8036,-3.7949,-3.7828,-3.7703,-3.7685,-3.7577,-3.7261,-3.6655,-3.6028,-3.5739,-3.561,-3.4912,-3.4489,-3.4252,-3.3034,-3.2239,-3.207,-3.1512,-3.119,-3.1151,-3.1072,-3.0975,-3.0871,-3.0773,-3.0651,-3.051,-3.0468,-3.0402,-3.0369,-3.0253,-2.9632,-2.8406,-2.7899,-2.7104,-2.5447,-2.4591,-2.4122,-2.3803,-2.3714,-2.382,-2.3777,-2.3628,-2.3511,-2.3304,-2.3156,-2.3082,-2.2933,-2.2933,-2.2888,-2.2902,-2.2888,-2.2857,-2.2857,-2.2987,-2.3031,-2.2999,-2.3014,-2.297,-2.2944,-2.2718,-2.2808,-2.3326,-2.3569,-2.4255,-2.5018,-2.528,-2.5431,-2.5943,-2.5892,-2.5343,-2.4781,-2.4456,-2.3694,-2.2801,-2.2276,-2.1861,-2.1666,-2.1547,-2.1629,-2.1811,-2.1361,-2.1027,-2.0773,-2.033,-1.9649,-1.9005,-1.8677,-1.8398,-1.8073,-1.7909,-1.7744,-1.7634,-1.7579,-1.7479,-1.7323,-1.7155,-1.6965,-1.6853,-1.6751,-1.6581,-4.4745,-4.3828,-4.3809,-4.3629,-4.3359,-4.3251,-4.2577,-4.1488,-4.0781,-3.993,-3.9061,-3.8445,-3.8192,-3.8192,-3.8174,-3.8088,-3.8002,-3.7916,-3.7792,-3.7721,-3.7613,-3.7374,-3.6895,-3.6266,-3.5924,-3.5805,-3.4907,-3.4218,-3.366,-3.2696,-3.2002,-3.1495,-3.1343,-3.1134,-3.1055,-3.1015,-3.0895,-3.0773,-3.0733,-3.0651,-3.051,-3.0468,-3.0228,-2.9748,-2.9748,-2.9036,-2.764,-2.6569,-2.6069,-2.5749,-2.5111,-2.4865,-2.4912,-2.4941,-2.4851,-2.4821,-2.4476,-2.4223,-2.4044,-2.3585,-2.3245,-2.3082,-2.3052,-2.2992,-2.2888,-2.2888,-2.2857,-2.2898,-2.3201,-2.34,-2.3353,-2.3277,-2.3339,-2.3385,-2.2979,-2.2804,-2.3134,-2.3717,-2.4369,-2.4518,-2.4878,-2.5293,-2.5621,-2.5486,-2.5064,-2.4565,-2.4066,-2.355,-2.2598,-2.1901,-2.1543,-2.1706,-2.1749,-2.1779,-2.1678,-2.1214,-2.0894,-2.0715,-2.0254,-1.9642,-1.903,-1.8553,-1.8236,-1.7963,-1.7909,-1.7744,-1.7634,-1.7523,-1.7423,-1.7278,-1.7099,-1.6909,-1.6807,-1.6694,-1.6591,-4.4232,-4.3479,-4.3479,-4.3481,-4.3394,-4.3251,-4.2541,-4.1451,-4.0763,-3.9876,-3.8971,-3.8427,-3.821,-3.8192,-3.8192,-3.814,-3.8088,-3.7969,-3.7864,-3.7775,-3.7649,-3.7411,-3.7013,-3.6433,-3.5942,-3.5522,-3.4559,-3.3685,-3.2916,-3.2188,-3.1613,-3.1292,-3.1151,-3.1055,-3.0998,-3.0895,-3.0831,-3.0692,-3.0651,-3.0568,-3.0526,-3.0468,-3.0096,-2.9648,-2.9648,-2.9301,-2.8147,-2.6594,-2.5656,-2.5438,-2.4929,-2.4653,-2.4777,-2.5061,-2.5181,-2.5181,-2.4984,-2.4969,-2.4758,-2.4207,-2.3777,-2.3568,-2.3346,-2.3097,-2.2978,-2.2933,-2.2857,-2.2915,-2.3172,-2.3302,-2.3285,-2.3238,-2.3299,-2.3245,-2.2997,-2.3025,-2.3472,-2.388,-2.4169,-2.4269,-2.439,-2.4637,-2.5156,-2.4836,-2.4634,-2.4299,-2.37,-2.3115,-2.2377,-2.1831,-2.1339,-2.145,-2.1467,-2.1392,-2.1445,-2.1121,-2.1004,-2.0823,-2.0225,-1.9577,-1.9133,-1.856,-1.8139,-1.792,-1.7854,-1.7744,-1.7579,-1.7423,-1.7368,-1.7211,-1.7032,-1.692,-1.6807,-1.6648,-1.6534,-4.4158,-4.3479,-4.3479,-4.3463,-4.3411,-4.3214,-4.2285,-4.0922,-4.0617,-3.9659,-3.8482,-3.821,-3.8192,-3.8192,-3.8192,-3.8174,-3.814,-3.7969,-3.7899,-3.7775,-3.7631,-3.7395,-3.6864,-3.6255,-3.5707,-3.5057,-3.3921,-3.3042,-3.2357,-3.163,-3.1258,-3.119,-3.1112,-3.1032,-3.0975,-3.0814,-3.0733,-3.0651,-3.0568,-3.041,-3.0377,-3.0377,-3.0063,-2.9334,-2.94,-2.936,-2.8441,-2.7129,-2.5783,-2.5021,-2.4394,-2.4303,-2.4118,-2.4642,-2.494,-2.5211,-2.5585,-2.5672,-2.5473,-2.4997,-2.4579,-2.4353,-2.3715,-2.3244,-2.3228,-2.308,-2.2888,-2.2888,-2.2888,-2.3033,-2.3149,-2.3033,-2.3149,-2.3279,-2.3129,-2.3472,-2.4129,-2.3932,-2.3726,-2.424,-2.3715,-2.3737,-2.4014,-2.414,-2.4077,-2.4025,-2.3406,-2.2764,-2.2166,-2.1628,-2.116,-2.09,-2.0884,-2.0904,-2.0977,-2.1,-2.104,-2.0941,-2.022,-1.9604,-1.9186,-1.8667,-1.8139,-1.781,-1.7755,-1.759,-1.7434,-1.7323,-1.7267,-1.7211,-1.7032,-1.692,-1.6761,-1.6591,-1.6431,-4.3713,-4.3479,-4.3479,-4.3497,-4.3463,-4.3375,-4.2373,-4.0792,-4.0688,-3.9728,-3.8497,-3.8192,-3.8192,-3.8192,-3.8192,-3.814,-3.8036,-3.7916,-3.7828,-3.7667,-3.7613,-3.7184,-3.6556,-3.585,-3.5509,-3.4886,-3.3373,-3.25,-3.2104,-3.1562,-3.119,-3.119,-3.1151,-3.1072,-3.0952,-3.0855,-3.0733,-3.0551,-3.0493,-3.0145,-2.9847,-3.0162,-2.988,-2.8837,-2.8357,-2.7861,-2.7245,-2.6115,-2.5465,-2.5326,-2.5133,-2.5136,-2.5696,-2.5961,-2.6213,-2.6497,-2.6422,-2.6393,-2.6273,-2.5762,-2.5312,-2.5097,-2.4456,-2.3965,-2.3844,-2.324,-2.2931,-2.2888,-2.2888,-2.3076,-2.3426,-2.3134,-2.3308,-2.3743,-2.3725,-2.3673,-2.4258,-2.3855,-2.3592,-2.3606,-2.3516,-2.3552,-2.4205,-2.382,-2.3681,-2.3589,-2.3139,-2.2512,-2.2025,-2.1517,-2.1176,-2.0871,-2.1019,-2.1166,-2.1166,-2.1166,-2.1118,-2.1033,-2.0308,-1.9656,-1.9239,-1.8721,-1.8127,-1.781,-1.7645,-1.749,-1.7334,-1.7278,-1.7278,-1.7155,-1.7032,-1.6864,-1.6694,-1.6534,-1.6374,-4.3548,-4.3479,-4.3479,-4.3479,-4.3497,-4.3375,-4.2408,-4.099,-4.0704,-3.9763,-3.8461,-3.8192,-3.8192,-3.8192,-3.8192,-3.8122,-3.7984,-3.7863,-3.7721,-3.7524,-3.7238,-3.672,-3.6023,-3.5039,-3.4408,-3.421,-3.306,-3.2195,-3.1732,-3.1427,-3.119,-3.119,-3.1151,-3.1055,-3.0952,-3.0838,-3.0516,-3.0111,-2.9996,-2.9648,-2.9152,-2.9582,-2.9798,-2.8887,-2.8191,-2.7701,-2.7531,-2.6964,-2.6519,-2.634,-2.6025,-2.5863,-2.6317,-2.6567,-2.6879,-2.6961,-2.7186,-2.7036,-2.6916,-2.6467,-2.6016,-2.5923,-2.504,-2.4471,-2.4053,-2.3447,-2.3036,-2.2888,-2.2917,-2.3062,-2.3383,-2.3209,-2.338,-2.3583,-2.3565,-2.3475,-2.3659,-2.3545,-2.345,-2.3412,-2.3193,-2.3179,-2.3283,-2.3316,-2.3359,-2.3336,-2.2669,-2.215,-2.2274,-2.1803,-2.1493,-2.1313,-2.141,-2.1471,-2.1471,-2.1423,-2.118,-2.0983,-2.0523,-1.9914,-1.9408,-1.8762,-1.8073,-1.781,-1.759,-1.749,-1.739,-1.7334,-1.7222,-1.7155,-1.7043,-1.6864,-1.6694,-1.6534,-1.6431,-4.36,-4.3479,-4.3479,-4.3479,-4.3461,-4.3281,-4.2262,-4.0899,-4.0593,-3.9615,-3.8443,-3.8192,-3.8192,-3.8192,-3.8192,-3.814,-3.7967,-3.7756,-3.7596,-3.7256,-3.6774,-3.6096,-3.5294,-3.4141,-3.3256,-3.2939,-3.2337,-3.1755,-3.1376,-3.119,-3.119,-3.119,-3.1112,-3.1015,-3.0975,-3.063,-3.0249,-2.9759,-2.939,-2.892,-2.8439,-2.887,-2.9152,-2.8986,-2.8373,-2.797,-2.774,-2.7431,-2.7267,-2.723,-2.6819,-2.6373,-2.6199,-2.6389,-2.6838,-2.6816,-2.7325,-2.744,-2.7335,-2.6916,-2.6527,-2.6527,-2.5312,-2.4519,-2.419,-2.3596,-2.311,-2.2992,-2.2962,-2.2975,-2.3033,-2.296,-2.2989,-2.3091,-2.3047,-2.2888,-2.2929,-2.3181,-2.3335,-2.3288,-2.303,-2.2991,-2.2904,-2.2861,-2.2998,-2.2937,-2.2328,-2.1951,-2.2145,-2.213,-2.1801,-2.1554,-2.1664,-2.152,-2.152,-2.1471,-2.1277,-2.1082,-2.0673,-2.022,-1.9617,-1.8987,-1.8356,-1.7877,-1.7601,-1.7501,-1.7323,-1.72,-1.7145,-1.7155,-1.6987,-1.6751,-1.6637,-1.6534,-1.642,-4.3652,-4.3479,-4.3479,-4.3479,-4.3387,-4.28,-4.1873,-4.0787,-4.0133,-3.9195,-3.8316,-3.8192,-3.8192,-3.8192,-3.8192,-3.8124,-3.7934,-3.7721,-3.7274,-3.6774,-3.6328,-3.5687,-3.4199,-3.3474,-3.273,-3.1963,-3.1567,-3.1343,-3.1241,-3.119,-3.119,-3.119,-3.1151,-3.1112,-3.078,-3.0342,-2.9838,-2.9315,-2.8832,-2.8213,-2.7815,-2.8163,-2.8578,-2.8489,-2.7909,-2.7486,-2.7049,-2.6526,-2.6183,-2.643,-2.6151,-2.6143,-2.6272,-2.6609,-2.695,-2.7244,-2.731,-2.7305,-2.726,-2.6901,-2.6632,-2.6303,-2.5297,-2.455,-2.4236,-2.3687,-2.3185,-2.3037,-2.2991,-2.3076,-2.3659,-2.3178,-2.3207,-2.3383,-2.3178,-2.2888,-2.2917,-2.2973,-2.3057,-2.3057,-2.2867,-2.2781,-2.2766,-2.2766,-2.2787,-2.2837,-2.248,-2.2105,-2.2136,-2.2158,-2.2019,-2.1902,-2.1855,-2.1664,-2.1471,-2.1423,-2.1313,-2.118,-2.0871,-2.0472,-1.9914,-1.9263,-1.8691,-1.7986,-1.7601,-1.7379,-1.7256,-1.7078,-1.7022,-1.7032,-1.6807,-1.6581,-1.6524,-1.642,-1.6192,-4.3686,-4.3479,-4.3479,-4.3479,-4.3351,-4.2635,-4.1727,-4.0769,-3.9932,-3.9067,-3.8407,-3.8192,-3.8192,-3.8192,-3.8192,-3.809,-3.7899,-3.7685,-3.7131,-3.6488,-3.5882,-3.4978,-3.3424,-3.2841,-3.2147,-3.1551,-3.1269,-3.119,-3.119,-3.119,-3.119,-3.119,-3.119,-3.0982,-3.0572,-3.0123,-2.9353,-2.8774,-2.811,-2.752,-2.6959,-2.7504,-2.7836,-2.7715,-2.7462,-2.704,-2.6587,-2.6698,-2.651,-2.6613,-2.6736,-2.6683,-2.6567,-2.6504,-2.6625,-2.669,-2.6636,-2.6572,-2.6572,-2.6228,-2.6078,-2.5974,-2.5105,-2.4581,-2.4267,-2.3792,-2.3231,-2.3082,-2.2992,-2.3004,-2.331,-2.3062,-2.3091,-2.3207,-2.3076,-2.2931,-2.2888,-2.2888,-2.2888,-2.2888,-2.2843,-2.2857,-2.2857,-2.2812,-2.2721,-2.2629,-2.2477,-2.2324,-2.2217,-2.217,-2.2137,-2.1949,-2.1793,-2.1616,-2.1423,-2.141,-2.1361,-2.1229,-2.1019,-2.0623,-2.0055,-1.9356,-1.8625,-1.7877,-1.7601,-1.7323,-1.7145,-1.6965,-1.6909,-1.6853,-1.6694,-1.6534,-1.641,-1.6296,-1.6077,-4.3686,-4.3532,-4.3513,-4.3479,-4.3332,-4.2451,-4.158,-4.0732,-3.9717,-3.8922,-3.828,-3.8192,-3.8192,-3.8158,-3.8124,-3.8056,-3.7864,-3.7703,-3.7059,-3.6114,-3.5508,-3.4464,-3.3106,-3.2367,-3.1748,-3.1325,-3.123,-3.119,-3.119,-3.119,-3.119,-3.119,-3.119,-3.0835,-3.0256,-2.9791,-2.8807,-2.7995,-2.7267,-2.6828,-2.6576,-2.6825,-2.7122,-2.7101,-2.7065,-2.6766,-2.6366,-2.6598,-2.6702,-2.6689,-2.6805,-2.6953,-2.6461,-2.6193,-2.5859,-2.5516,-2.5574,-2.5678,-2.5615,-2.5543,-2.5498,-2.5375,-2.4746,-2.4372,-2.4089,-2.3674,-2.3334,-2.3127,-2.3037,-2.2947,-2.2989,-2.2902,-2.2902,-2.2917,-2.2931,-2.2888,-2.2888,-2.2888,-2.2888,-2.2888,-2.2888,-2.2888,-2.2902,-2.2752,-2.2675,-2.2569,-2.2463,-2.2324,-2.2231,-2.217,-2.2123,-2.1841,-2.165,-2.1506,-2.141,-2.141,-2.1313,-2.1229,-2.1033,-2.0723,-2.0118,-1.9448,-1.8721,-1.7975,-1.7545,-1.7312,-1.7078,-1.6853,-1.6797,-1.6684,-1.6534,-1.642,-1.6296,-1.6181,-1.6019,-4.3719,-4.3582,-4.3513,-4.3479,-4.3259,-4.1852,-4.1037,-4.0641,-3.9192,-3.8401,-3.8192,-3.8192,-3.8122,-3.8036,-3.7985,-3.7934,-3.7846,-3.7578,-3.6791,-3.5614,-3.5151,-3.4057,-3.2423,-3.2107,-3.1694,-3.1252,-3.119,-3.119,-3.119,-3.119,-3.119,-3.119,-3.1072,-3.0801,-2.9973,-2.9306,-2.8525,-2.7664,-2.6885,-2.6393,-2.6289,-2.6336,-2.6402,-2.6402,-2.6385,-2.6369,-2.6236,-2.6402,-2.6346,-2.631,-2.6015,-2.5821,-2.5502,-2.5171,-2.4945,-2.5056,-2.5415,-2.5894,-2.5514,-2.5213,-2.4942,-2.4672,-2.4104,-2.3703,-2.3629,-2.3482,-2.3187,-2.2992,-2.2992,-2.2992,-2.2888,-2.2888,-2.2888,-2.2888,-2.2888,-2.2888,-2.2888,-2.2888,-2.2888,-2.2888,-2.2888,-2.2888,-2.2902,-2.2752,-2.2615,-2.2509,-2.2417,-2.2278,-2.2184,-2.2137,-2.2077,-2.1841,-2.1602,-2.1458,-2.1361,-2.1361,-2.1215,-2.1131,-2.0934,-2.0623,-1.9965,-1.9291,-1.8922,-1.829,-1.7744,-1.7312,-1.7134,-1.6965,-1.674,-1.6581,-1.6488,-1.6306,-1.6181,-1.6009,-1.5904,-4.3719,-4.3563,-4.3513,-4.3479,-4.3277,-4.1742,-4.0946,-4.0461,-3.9049,-3.8241,-3.8225,-3.8192,-3.8174,-3.8106,-3.802,-3.7951,-3.7791,-3.7327,-3.6416,-3.5257,-3.4706,-3.3686,-3.2424,-3.1967,-3.1694,-3.1329,-3.119,-3.119,-3.119,-3.119,-3.119,-3.1106,-3.0768,-3.0176,-2.9482,-2.8685,-2.7853,-2.7143,-2.6636,-2.6345,-2.6239,-2.6222,-2.6222,-2.622,-2.6203,-2.6203,-2.6203,-2.6203,-2.6203,-2.6168,-2.597,-2.5787,-2.547,-2.524,-2.5045,-2.4651,-2.5155,-2.523,-2.4785,-2.4615,-2.4425,-2.4116,-2.3761,-2.3583,-2.3466,-2.329,-2.3112,-2.3037,-2.2992,-2.2947,-2.2933,-2.2888,-2.2888,-2.2888,-2.2888,-2.2888,-2.2888,-2.2888,-2.2888,-2.2888,-2.2888,-2.2902,-2.2857,-2.2766,-2.2629,-2.2523,-2.2417,-2.231,-2.2137,-2.2044,-2.1935,-2.1841,-2.1602,-2.141,-2.1375,-2.1326,-2.1068,-2.0934,-2.0573,-2.022,-1.9604,-1.9093,-1.8661,-1.8244,-1.7678,-1.7346,-1.7234,-1.6965,-1.6637,-1.6534,-1.6431,-1.6249,-1.6077,-1.5961,-1.5846,-4.3753,-4.3634,-4.3532,-4.3387,-4.3041,-4.1546,-4.0748,-4.0281,-3.8907,-3.8241,-3.8174,-3.8192,-3.8192,-3.8101,-3.7819,-3.7536,-3.7503,-3.6734,-3.5824,-3.4988,-3.4262,-3.3351,-3.2407,-3.1967,-3.1731,-3.119,-3.119,-3.119,-3.119,-3.1157,-3.1106,-3.092,-3.0429,-2.9617,-2.8789,-2.8144,-2.7501,-2.6723,-2.6502,-2.6364,-2.6258,-2.6241,-2.6222,-2.6187,-2.6203,-2.6203,-2.6203,-2.6203,-2.6203,-2.6168,-2.6115,-2.5897,-2.5642,-2.5492,-2.5323,-2.5068,-2.5298,-2.506,-2.4653,-2.4353,-2.4036,-2.3867,-2.3696,-2.3668,-2.3494,-2.3231,-2.3023,-2.3037,-2.3037,-2.2947,-2.2902,-2.2888,-2.2888,-2.2888,-2.2888,-2.2888,-2.2888,-2.2888,-2.2888,-2.2888,-2.2902,-2.2826,-2.2826,-2.2781,-2.2689,-2.2569,-2.2417,-2.231,-2.2123,-2.1949,-2.1855,-2.1746,-2.1554,-2.141,-2.1375,-2.1277,-2.1019,-2.0723,-2.0372,-1.9965,-1.946,-1.8879,-1.8337,-1.7901,-1.7578,-1.7235,-1.6946,-1.6765,-1.6534,-1.6477,-1.6374,-1.6202,-1.6029,-1.5914,-1.574,-4.3804,-4.3771,-4.3548,-4.3023,-4.2276,-4.1241,-4.0336,-3.9649,-3.864,-3.8244,-3.8192,-3.8088,-3.8122,-3.7977,-3.7404,-3.696,-3.6802,-3.5957,-3.5106,-3.4488,-3.4011,-3.3209,-3.2441,-3.1985,-3.1768,-3.1308,-3.119,-3.119,-3.119,-3.119,-3.0801,-3.0226,-2.9989,-2.9127,-2.8349,-2.7774,-2.7298,-2.6673,-2.6452,-2.6382,-2.6277,-2.6258,-2.6203,-2.6203,-2.6203,-2.6203,-2.6203,-2.6203,-2.6203,-2.6168,-2.6115,-2.6026,-2.5864,-2.5754,-2.5551,-2.5513,-2.5432,-2.5201,-2.4791,-2.4574,-2.4369,-2.4162,-2.3994,-2.3867,-2.3696,-2.3696,-2.3494,-2.3068,-2.3082,-2.2992,-2.2947,-2.2888,-2.2888,-2.2888,-2.2888,-2.2888,-2.2888,-2.2888,-2.2888,-2.2902,-2.2857,-2.2826,-2.2781,-2.2675,-2.2629,-2.2477,-2.237,-2.2217,-2.2137,-2.1949,-2.1807,-2.1664,-2.152,-2.1423,-2.1375,-2.1229,-2.0983,-2.0673,-2.0372,-1.9926,-1.942,-1.879,-1.8207,-1.7801,-1.7478,-1.707,-1.6736,-1.6652,-1.6534,-1.642,-1.6316,-1.6202,-1.5972,-1.573,-1.5556,-4.3804,-4.3734,-4.3051,-4.2546,-4.2148,-4.1204,-4.03,-3.9415,-3.8604,-3.8192,-3.8192,-3.814,-3.814,-3.7923,-3.7259,-3.6744,-3.6514,-3.5244,-3.4587,-3.4041,-3.355,-3.2958,-3.237,-3.2056,-3.1787,-3.1466,-3.1291,-3.119,-3.119,-3.119,-3.0362,-2.9803,-2.9499,-2.8805,-2.8044,-2.735,-2.6944,-2.6758,-2.6537,-2.6452,-2.6312,-2.6277,-2.6258,-2.622,-2.6203,-2.6203,-2.6203,-2.6203,-2.6203,-2.6168,-2.6115,-2.6063,-2.601,-2.5864,-2.5791,-2.5701,-2.5659,-2.5432,-2.5201,-2.4989,-2.4735,-2.4467,-2.4302,-2.4177,-2.3994,-2.3925,-2.3653,-2.3319,-2.3127,-2.3037,-2.2947,-2.2888,-2.2888,-2.2888,-2.2888,-2.2888,-2.2888,-2.2888,-2.2888,-2.2888,-2.2857,-2.2812,-2.2721,-2.2615,-2.2523,-2.2417,-2.2278,-2.217,-2.203,-2.1949,-2.1807,-2.1664,-2.152,-2.1423,-2.1423,-2.1229,-2.0983,-2.0673,-2.0372,-1.9862,-1.9356,-1.8845,-1.8282,-1.785,-1.7379,-1.7071,-1.6781,-1.6606,-1.6477,-1.6296,-1.6306,-1.6259,-1.5961,-1.5652,-1.543,-4.3804,-4.3679,-4.272,-4.2124,-4.1729,-4.0857,-3.9987,-3.9125,-3.8495,-3.8207,-3.8192,-3.8192,-3.8192,-3.7957,-3.7308,-3.6594,-3.6044,-3.4975,-3.4178,-3.363,-3.3155,-3.2707,-3.2386,-3.2091,-3.1787,-3.1542,-3.1329,-3.119,-3.119,-3.119,-3.0328,-2.9448,-2.8907,-2.8433,-2.7503,-2.6995,-2.6657,-2.6623,-2.6589,-2.6554,-2.6382,-2.633,-2.6295,-2.6222,-2.6187,-2.6203,-2.6203,-2.6203,-2.6203,-2.6203,-2.6168,-2.6168,-2.6079,-2.5954,-2.5864,-2.5754,-2.568,-2.56,-2.5432,-2.524,-2.4989,-2.4775,-2.4695,-2.4533,-2.4343,-2.4094,-2.3824,-2.3392,-2.3157,-2.2992,-2.2947,-2.2933,-2.2888,-2.2888,-2.2888,-2.2888,-2.2888,-2.2888,-2.2888,-2.2888,-2.2843,-2.2812,-2.2661,-2.2509,-2.2431,-2.2324,-2.2263,-2.2123,-2.203,-2.1935,-2.1807,-2.1664,-2.152,-2.1471,-2.1361,-2.118,-2.0983,-2.0772,-2.0409,-1.9811,-1.9291,-1.8768,-1.8274,-1.7829,-1.739,-1.7049,-1.6706,-1.6392,-1.6249,-1.6151,-1.6114,-1.6019,-1.5904,-1.5604,-1.5371,-4.3767,-4.3679,-4.2647,-4.1757,-4.0976,-4.0193,-3.9309,-3.8507,-3.831,-3.8241,-3.8225,-3.8192,-3.8138,-3.792,-3.7091,-3.6287,-3.5432,-3.4559,-3.3781,-3.3148,-3.2991,-3.2573,-3.2266,-3.2003,-3.1768,-3.1312,-3.119,-3.119,-3.119,-3.1021,-3.0192,-2.9245,-2.8689,-2.8078,-2.6843,-2.6657,-2.6623,-2.6657,-2.6572,-2.6554,-2.652,-2.6417,-2.6347,-2.6312,-2.6258,-2.6239,-2.6222,-2.6222,-2.6239,-2.6203,-2.6203,-2.6168,-2.6151,-2.6026,-2.5937,-2.5881,-2.5754,-2.5551,-2.5208,-2.513,-2.5107,-2.5068,-2.4974,-2.4815,-2.4477,-2.4245,-2.3994,-2.348,-2.3157,-2.3023,-2.2978,-2.292,-2.2831,-2.283,-2.2815,-2.2627,-2.2643,-2.2671,-2.2613,-2.2671,-2.2725,-2.2735,-2.2569,-2.2417,-2.2278,-2.2231,-2.2217,-2.2123,-2.203,-2.1935,-2.1793,-2.1664,-2.1568,-2.1458,-2.1361,-2.1131,-2.0934,-2.0772,-2.0409,-1.985,-1.9193,-1.8613,-1.8158,-1.773,-1.7158,-1.6591,-1.6318,-1.6137,-1.6048,-1.5898,-1.5806,-1.572,-1.5662,-1.5546,-1.5313,-4.2991,-4.2862,-4.1374,-4.0561,-4.0253,-3.9951,-3.9236,-3.8398,-3.8259,-3.8225,-3.8192,-3.8192,-3.783,-3.7286,-3.6501,-3.5642,-3.4699,-3.3781,-3.3005,-3.2969,-3.2916,-3.2672,-3.2352,-3.2039,-3.1804,-3.1504,-3.1329,-3.119,-3.119,-3.0886,-3.004,-2.9076,-2.8095,-2.7232,-2.6826,-2.6674,-2.6708,-2.6691,-2.6657,-2.6623,-2.6606,-2.6537,-2.6468,-2.645,-2.6415,-2.6345,-2.6277,-2.6258,-2.6258,-2.6203,-2.6203,-2.6203,-2.6168,-2.6079,-2.599,-2.5954,-2.5864,-2.5754,-2.5513,-2.5492,-2.5448,-2.5355,-2.5224,-2.5013,-2.4759,-2.4354,-2.3979,-2.3653,-2.3319,-2.3201,-2.3082,-2.2615,-2.2455,-2.2585,-2.2527,-2.212,-2.2047,-2.2164,-2.2251,-2.2381,-2.2438,-2.2534,-2.2469,-2.2388,-2.2278,-2.2184,-2.2184,-2.217,-2.2123,-2.1935,-2.1793,-2.1698,-2.1602,-2.1458,-2.1313,-2.1131,-2.1046,-2.0885,-2.0472,-1.9901,-1.9209,-1.8517,-1.7938,-1.7469,-1.6751,-1.6063,-1.586,-1.5685,-1.5726,-1.5636,-1.5563,-1.5584,-1.5604,-1.5488,-1.5205,-4.2192,-4.1994,-4.0578,-3.9932,-3.9863,-3.9562,-3.899,-3.8409,-3.8274,-3.8225,-3.8225,-3.8207,-3.7757,-3.7,-3.6251,-3.5217,-3.4307,-3.3709,-3.3023,-3.2987,-3.2916,-3.2722,-3.2472,-3.2162,-3.1841,-3.1579,-3.1329,-3.119,-3.119,-3.0734,-2.9956,-2.8873,-2.7486,-2.6945,-2.6708,-2.6708,-2.6708,-2.6708,-2.6674,-2.6657,-2.6623,-2.6606,-2.6589,-2.652,-2.6485,-2.645,-2.6347,-2.6312,-2.6277,-2.6222,-2.6203,-2.6203,-2.6168,-2.6115,-2.6026,-2.599,-2.5954,-2.5828,-2.5701,-2.5626,-2.5584,-2.5578,-2.5355,-2.5185,-2.4918,-2.4517,-2.4188,-2.3867,-2.3538,-2.3378,-2.3157,-2.257,-2.2381,-2.2527,-2.2309,-2.1959,-2.2091,-2.2236,-2.2004,-2.2135,-2.1975,-2.2176,-2.2326,-2.2346,-2.2278,-2.2231,-2.2137,-2.2137,-2.2123,-2.1935,-2.1704,-2.1568,-2.1561,-2.1444,-2.1299,-2.1131,-2.1033,-2.0997,-2.0472,-1.985,-1.9339,-1.865,-1.795,-1.716,-1.6306,-1.565,-1.5362,-1.5268,-1.5385,-1.5449,-1.5408,-1.5477,-1.5594,-1.5381,-1.5147,-4.1373,-4.1145,-4.0333,-3.9871,-3.9717,-3.9043,-3.8627,-3.8478,-3.8307,-3.8241,-3.8307,-3.8153,-3.7558,-3.6979,-3.6645,-3.5573,-3.4325,-3.3992,-3.3516,-3.3059,-3.2916,-3.2722,-3.2489,-3.2179,-3.1877,-3.16,-3.1334,-3.1123,-3.1123,-3.0378,-2.9685,-2.8755,-2.7317,-2.6826,-2.6708,-2.6708,-2.6708,-2.6708,-2.6708,-2.6691,-2.6691,-2.6623,-2.664,-2.6606,-2.6537,-2.6452,-2.6417,-2.6347,-2.6293,-2.6239,-2.622,-2.6203,-2.6203,-2.6203,-2.6115,-2.6043,-2.597,-2.5828,-2.5775,-2.5738,-2.568,-2.5637,-2.5562,-2.5394,-2.5068,-2.4614,-2.423,-2.3952,-2.3653,-2.3538,-2.3318,-2.292,-2.2539,-2.2453,-2.2308,-2.2308,-2.2483,-2.2352,-2.196,-2.1729,-2.1469,-2.1528,-2.178,-2.19,-2.2221,-2.2184,-2.2137,-2.2044,-2.1996,-2.1855,-2.1643,-2.1383,-2.1343,-2.1355,-2.1224,-2.1024,-2.1033,-2.0997,-2.0308,-1.9658,-1.9199,-1.8597,-1.7594,-1.6718,-1.5781,-1.5213,-1.498,-1.5039,-1.5233,-1.5249,-1.53,-1.5361,-1.543,-1.5323,-1.5098,-4.0473,-4.0351,-3.9461,-3.9056,-3.9001,-3.8682,-3.8559,-3.8478,-3.8322,-3.8274,-3.8271,-3.7624,-3.6888,-3.6114,-3.5353,-3.4443,-3.3804,-3.3315,-3.3162,-3.2969,-3.2916,-3.2722,-3.2472,-3.2162,-3.1877,-3.16,-3.13,-3.0886,-3.0243,-2.9634,-2.8535,-2.73,-2.7012,-2.6759,-2.6708,-2.6708,-2.6708,-2.6708,-2.6708,-2.6708,-2.6708,-2.6674,-2.6691,-2.6657,-2.6657,-2.6572,-2.6486,-2.6468,-2.638,-2.6312,-2.6239,-2.6203,-2.6203,-2.6203,-2.6151,-2.6132,-2.6043,-2.5954,-2.5901,-2.5775,-2.5701,-2.5659,-2.5637,-2.5432,-2.5068,-2.4655,-2.423,-2.4036,-2.3739,-2.3523,-2.3346,-2.2992,-2.2817,-2.2803,-2.2482,-2.2161,-2.2251,-2.196,-2.154,-2.1223,-2.0923,-2.1269,-2.1522,-2.1829,-2.2108,-2.2128,-2.2049,-2.1899,-2.1846,-2.1677,-2.1595,-2.1349,-2.1145,-2.1131,-2.1008,-2.0858,-2.0962,-2.0885,-2.0181,-1.9484,-1.8957,-1.8236,-1.721,-1.6226,-1.5337,-1.4898,-1.4644,-1.4759,-1.4938,-1.5139,-1.5212,-1.5225,-1.5254,-1.5147,-1.5029,-3.966,-3.9557,-3.8983,-3.8554,-3.8193,-3.7802,-3.7607,-3.7582,-3.7717,-3.7834,-3.774,-3.6935,-3.6073,-3.5336,-3.4718,-3.3993,-3.3194,-3.3082,-3.2965,-3.2934,-3.2916,-3.2722,-3.2472,-3.2162,-3.1877,-3.1548,-3.1045,-3.0497,-2.9736,-2.8653,-2.7554,-2.7317,-2.6945,-2.6725,-2.6708,-2.6708,-2.6708,-2.6708,-2.6708,-2.6708,-2.6708,-2.6708,-2.6708,-2.6708,-2.6708,-2.664,-2.6606,-2.6554,-2.6485,-2.6382,-2.631,-2.6258,-2.6222,-2.6222,-2.6203,-2.6168,-2.6132,-2.6043,-2.5974,-2.5864,-2.5775,-2.5717,-2.5621,-2.5524,-2.5185,-2.4791,-2.4492,-2.4245,-2.3867,-2.3478,-2.3255,-2.3091,-2.3183,-2.3303,-2.264,-2.198,-2.1679,-2.142,-2.1048,-2.0734,-2.0825,-2.1169,-2.1494,-2.1804,-2.1798,-2.1422,-2.1276,-2.1195,-2.1282,-2.1409,-2.1377,-2.1343,-2.107,-2.0941,-2.0765,-2.0563,-2.0527,-2.0413,-1.9896,-1.922,-1.8721,-1.78,-1.6678,-1.5782,-1.4918,-1.4584,-1.4348,-1.4457,-1.4676,-1.4834,-1.5005,-1.5146,-1.5139,-1.5088,-1.4911,-3.8876,-3.8799,-3.8656,-3.8033,-3.7379,-3.6688,-3.6347,-3.6168,-3.6674,-3.6989,-3.688,-3.6118,-3.5331,-3.4775,-3.4352,-3.3826,-3.3247,-3.3011,-3.2948,-3.2916,-3.2916,-3.2787,-3.2539,-3.2197,-3.1774,-3.1273,-3.0687,-3.004,-2.9482,-2.8399,-2.7503,-2.7672,-2.7046,-2.6708,-2.6708,-2.6708,-2.6708,-2.6708,-2.6708,-2.6708,-2.6708,-2.6708,-2.6708,-2.6708,-2.6691,-2.6657,-2.6589,-2.6554,-2.6502,-2.6485,-2.6399,-2.6279,-2.6241,-2.6258,-2.6222,-2.6203,-2.6168,-2.6132,-2.6043,-2.5917,-2.5828,-2.5717,-2.5621,-2.5562,-2.5317,-2.4989,-2.471,-2.4574,-2.4188,-2.3994,-2.3743,-2.3606,-2.364,-2.3646,-2.3275,-2.2862,-2.2602,-2.196,-2.0994,-2.0669,-2.0466,-2.077,-2.0656,-2.0851,-2.1248,-2.0706,-2.0517,-2.0567,-2.0629,-2.0836,-2.0844,-2.0914,-2.0657,-2.0367,-2.022,-2.006,-1.9987,-1.9756,-1.9371,-1.8923,-1.8371,-1.7319,-1.6137,-1.5349,-1.4589,-1.4334,-1.4143,-1.4338,-1.444,-1.4508,-1.4691,-1.4922,-1.4994,-1.4983,-1.4862,-3.8044,-3.7884,-3.7198,-3.6772,-3.6578,-3.6395,-3.6266,-3.6201,-3.5579,-3.5709,-3.5957,-3.532,-3.4806,-3.4485,-3.39,-3.3412,-3.3206,-3.3042,-3.2979,-3.2916,-3.2916,-3.2852,-3.269,-3.2214,-3.1689,-3.1025,-3.0324,-2.9397,-2.8431,-2.7554,-2.6996,-2.6979,-2.6708,-2.6708,-2.6708,-2.6708,-2.6708,-2.6708,-2.6708,-2.6708,-2.6708,-2.6708,-2.6708,-2.6708,-2.6691,-2.6691,-2.6657,-2.6606,-2.6589,-2.6554,-2.6382,-2.6277,-2.6222,-2.6258,-2.6258,-2.6203,-2.6203,-2.6168,-2.6096,-2.597,-2.5881,-2.5807,-2.5712,-2.5654,-2.5448,-2.5162,-2.495,-2.4815,-2.4655,-2.4451,-2.4271,-2.4148,-2.4015,-2.3978,-2.3823,-2.3648,-2.3432,-2.2252,-2.0995,-2.0633,-2.0318,-2.0116,-2.0006,-2.0063,-2.0386,-2.0398,-2.021,-2.015,-2.0007,-2.0069,-1.9721,-1.9754,-1.984,-1.9674,-1.9624,-1.9493,-1.9396,-1.9212,-1.8887,-1.8459,-1.7971,-1.6851,-1.5727,-1.497,-1.4337,-1.4197,-1.4116,-1.4192,-1.4276,-1.4358,-1.4483,-1.4745,-1.4838,-1.4869,-1.474,-3.7563,-3.7072,-3.6121,-3.5734,-3.5679,-3.5349,-3.5202,-3.5036,-3.452,-3.447,-3.4763,-3.4311,-3.4081,-3.4051,-3.3485,-3.3244,-3.3135,-3.3042,-3.2979,-3.2948,-3.2916,-3.282,-3.2588,-3.2248,-3.1498,-3.0783,-2.95,-2.8364,-2.7435,-2.7046,-2.6742,-2.6691,-2.6691,-2.6708,-2.6691,-2.6691,-2.6708,-2.6708,-2.6708,-2.6708,-2.6708,-2.6708,-2.6708,-2.6708,-2.6708,-2.6708,-2.6674,-2.6674,-2.664,-2.6606,-2.6486,-2.6347,-2.6293,-2.6258,-2.6222,-2.6203,-2.6203,-2.6168,-2.6096,-2.6007,-2.5881,-2.577,-2.5712,-2.5616,-2.5616,-2.5333,-2.5185,-2.5068,-2.471,-2.4508,-2.4441,-2.4307,-2.4251,-2.4199,-2.3585,-2.3153,-2.242,-2.141,-2.0676,-2.0396,-2.0215,-2.0144,-1.995,-1.9669,-1.981,-1.9364,-1.9322,-1.9348,-1.9263,-1.9371,-1.8998,-1.8791,-1.8976,-1.9195,-1.9378,-1.907,-1.8711,-1.8532,-1.8351,-1.7805,-1.7226,-1.628,-1.5334,-1.4777,-1.4373,-1.4244,-1.4217,-1.4253,-1.4307,-1.4437,-1.447,-1.459,-1.4655,-1.4715,-1.4638,-3.6961,-3.6076,-3.522,-3.4844,-3.4734,-3.4137,-3.3835,-3.3753,-3.3633,-3.3613,-3.3637,-3.3531,-3.3393,-3.3364,-3.3334,-3.3244,-3.3165,-3.3122,-3.306,-3.3011,-3.2961,-3.2898,-3.2634,-3.2141,-3.1133,-2.985,-2.8507,-2.7673,-2.686,-2.6691,-2.6691,-2.6691,-2.6725,-2.6725,-2.6725,-2.6742,-2.6759,-2.6742,-2.6742,-2.6708,-2.6708,-2.6708,-2.6708,-2.6708,-2.6708,-2.6708,-2.6674,-2.6691,-2.6657,-2.6623,-2.6572,-2.6468,-2.6347,-2.6293,-2.6258,-2.6222,-2.6203,-2.6168,-2.6043,-2.5954,-2.5828,-2.5754,-2.5637,-2.5567,-2.5551,-2.5363,-2.5233,-2.4898,-2.4587,-2.4625,-2.4561,-2.463,-2.4533,-2.4234,-2.348,-2.29,-2.1957,-2.1001,-2.0667,-2.0362,-2.0067,-2.0014,-1.9708,-1.9374,-1.9069,-1.8613,-1.8382,-1.8329,-1.8358,-1.8576,-1.8549,-1.837,-1.8409,-1.8658,-1.8879,-1.864,-1.8153,-1.8,-1.7787,-1.7186,-1.6554,-1.5917,-1.5322,-1.4766,-1.4455,-1.4326,-1.428,-1.4247,-1.4377,-1.4531,-1.4509,-1.4521,-1.456,-1.4635,-1.4544,-3.5384,-3.4434,-3.4136,-3.4045,-3.4009,-3.3862,-3.3788,-3.3762,-3.3643,-3.3587,-3.353,-3.3433,-3.3393,-3.3393,-3.3393,-3.3334,-3.3244,-3.3201,-3.3135,-3.3086,-3.3055,-3.3024,-3.2585,-3.1716,-3.0347,-2.8972,-2.776,-2.6996,-2.6742,-2.6742,-2.6775,-2.6842,-2.6842,-2.6876,-2.6925,-2.6909,-2.6842,-2.6842,-2.6742,-2.6691,-2.6691,-2.6691,-2.6708,-2.6708,-2.6708,-2.6708,-2.6708,-2.6708,-2.6708,-2.6674,-2.664,-2.6537,-2.6434,-2.6364,-2.6277,-2.6258,-2.6239,-2.6115,-2.6043,-2.5954,-2.5828,-2.5701,-2.5594,-2.5308,-2.5163,-2.4839,-2.4572,-2.4152,-2.4099,-2.4559,-2.4681,-2.5016,-2.5003,-2.4356,-2.362,-2.3304,-2.2709,-2.185,-2.1243,-2.0474,-1.973,-1.9487,-1.903,-1.8852,-1.8812,-1.847,-1.8391,-1.8325,-1.8299,-1.8206,-1.8126,-1.8058,-1.8031,-1.7773,-1.7822,-1.7964,-1.7652,-1.7489,-1.7281,-1.6777,-1.6324,-1.5816,-1.5277,-1.4686,-1.4558,-1.4477,-1.443,-1.4419,-1.4556,-1.4682,-1.4601,-1.456,-1.4542,-1.451,-1.4476]},{"header":{"parameterUnit":"m.s-1","parameterCategory":1,"la1":31.0,"la2":29.5877,"lo1":-88.7671,"lo2":-86.6584,"dy":0.0162,"dx":0.0185,"nx":115,"ny":88,"refTime":"2024-07-04T06:00:00:Z","depth":0,"parameterNumber":3,"parameterNumberName":"V-component_of_WINDS"},"data":[0.0,0.0,0.0,0.0,0.0,0.0,0.0,0.0,0.0,0.0,0.0,0.0,0.0,0.0,0.0,0.0,0.0,0.0,0.0,0.0,0.0,0.0,0.0,0.0,0.0,0.0,0.0,0.0,0.0,0.0,0.0,0.0,0.0,0.0,0.0,0.0,0.0,0.0,0.0,0.0,0.0,0.0,0.0,0.0,0.0,0.0,0.0,0.0,0.0,0.0,0.0,0.0,0.0,0.0,0.0,0.0,0.0,0.0,0.0,0.0,0.0,0.0,0.0,0.0,0.0,0.0,0.0,0.0,0.0,0.0,0.0,0.0,0.0,0.0,0.0,0.0,0.0,0.0,0.0,0.0,0.0,0.0,0.0,0.0,0.0,0.0,0.0,0.0,0.0,0.0,0.0,0.0,0.0,0.0,0.0,0.0,0.0,0.0,0.0,0.0,0.0,0.0,0.0,0.0,0.0,0.0,0.0,0.0,0.0,0.0,0.0,0.0,0.0,0.0,0.0,0.0,0.0,0.0,0.0,0.0,0.0,0.0,0.0,0.0,0.0,0.0,0.0,0.0,0.0,0.0,0.0,0.0,0.0,0.0,0.0,0.0,0.0,0.0,0.0,0.0,0.0,0.0,0.0,0.0,0.0,0.0,0.0,0.0,0.0,0.0,0.0,0.0,0.0,0.0,0.0,0.0,0.0,0.0,0.0,0.0,0.0,0.0,0.0,0.0,0.0,0.0,0.0,0.0,0.0,0.0,0.0,0.0,0.0,0.0,0.0,0.0,0.0,0.0,0.0,0.0,0.0,0.0,0.0,0.0,0.0,0.0,0.0,0.0,0.0,0.0,0.0,0.0,0.0,0.0,0.0,0.0,0.0,0.0,0.0,0.0,0.0,0.0,0.0,0.0,0.0,0.0,0.0,0.0,0.0,0.0,0.0,0.0,0.0,0.0,0.0,0.0,0.0,0.0,0.0,0.0,0.0,0.0,0.0,0.0,0.0,0.0,0.0,0.0,0.0,0.0,0.0,0.0,0.0,0.0,0.0,0.0,0.0,0.0,0.0,0.0,0.0,0.0,0.0,0.0,0.0,0.0,0.0,0.0,0.0,0.0,0.0,0.0,0.0,0.0,0.0,0.0,0.0,0.0,0.0,0.0,0.0,0.0,0.0,0.0,0.0,0.0,0.0,0.0,0.0,0.0,0.0,0.0,0.0,0.0,0.0,0.0,0.0,0.0,0.0,0.0,0.0,0.0,0.0,0.0,0.0,0.0,0.0,0.0,0.0,0.0,0.0,0.0,0.0,0.0,0.0,0.0,0.0,0.0,0.0,0.0,0.0,0.0,0.0,0.0,0.0,0.0,0.0,0.0,0.0,0.0,0.0,0.0,0.0,0.0,0.0,0.0,0.0,0.0,0.0,0.0,0.0,0.0,0.0,0.0,0.0,0.0,0.0,0.0,0.0,0.0,0.0,0.0,0.0,0.0,0.0,0.0,0.0,0.0,0.0,0.0,0.0,0.0,0.0,0.0,0.0,0.0,0.0,0.0,0.0,0.0,0.0,0.0,0.0,0.0,0.0,0.0,0.0,0.0,0.0,0.0,0.0,0.0,0.0,0.0,0.0,0.0,0.0,0.0,0.0,0.0,0.0,0.0,0.0,0.0,0.0,0.0,0.0,0.0,0.0,0.0,0.0,0.0,0.0,0.0,0.0,0.0,0.0,0.0,0.0,0.0,0.0,0.0,0.0,0.0,0.0,0.0,0.0,0.0,0.0,0.0,0.0,0.0,0.0,0.0,0.0,0.0,0.0,0.0,0.0,0.0,0.0,0.0,0.0,0.0,0.0,0.0,0.0,0.0,0.0,0.0,0.0,0.0,0.0,0.0,0.0,0.0,0.0,0.0,0.0,0.0,0.0,0.0,0.0,0.0,0.0,0.0,0.0,0.0,0.0,0.0,0.0,0.0,0.0,0.0,0.0,0.0,0.0,0.0,0.0,0.0,0.0,0.0,0.0,0.0,0.0,0.0,0.0,0.0,0.0,0.0,0.0,0.0,0.0,0.0,0.0,0.0,0.0,0.0,0.0,0.0,0.0,0.0,0.0,0.0,0.0,0.0,0.0,0.0,0.0,0.0,0.0,0.0,0.0,0.0,0.0,0.0,0.0,0.0,0.0,0.0,0.0,0.0,0.0,0.0,0.0,0.0,0.0,0.0,0.0,0.0,0.0,0.0,0.0,0.0,0.0,0.0,0.0,0.0,0.0,0.0,0.0,0.0,0.0,0.0,0.0,0.0,0.0,0.0,0.0,0.0,0.0,0.0,0.0,0.0,0.0,0.0,0.0,0.0,0.0,0.0,0.0,0.0,0.0,0.0,0.0,0.0,0.0,0.0,0.0,0.0,0.0,0.0,0.0,0.0,0.0,0.0,0.0,0.0,0.0,0.0,0.0,0.0,0.0,0.0,0.0,0.0,0.0,0.0,0.0,0.0,0.0,0.0,0.0,0.0,0.0,0.0,0.0,0.0,0.0,0.0,0.0,0.0,0.0,0.0,0.0,0.0,0.0,0.0,0.0,0.0,0.0,0.0,0.0,0.0,0.0,0.0,0.0,0.0,0.0,0.0,0.0,0.0,0.0,0.0,0.0,0.0,0.0,0.0,0.0,0.0,0.0,0.0,0.0,0.0,0.0,0.0,0.0,0.0,0.0,0.0,0.0,0.0,0.0,0.0,0.0,0.0,0.0,0.0,0.0,0.0,0.0,0.0,0.0,0.0,0.0,0.0,0.0,0.0,0.0,0.0,0.0,0.0,0.0,0.0,0.0,0.0,0.0,0.0,0.0,0.0,0.0,0.0,0.0,0.0,0.0,0.0,0.0,0.0,0.0,0.0,0.0,0.0,0.0,0.0,0.0,0.0,0.0,0.0,0.0,0.0,0.0,0.0,0.0,0.0,0.0,0.0,0.0,0.0,0.0,0.0,0.0,0.0,0.0,0.0,0.0,0.0,0.0,0.0,0.0,0.0,0.0,0.0,0.0,0.0,0.0,0.0,0.0,0.0,0.0,0.0,0.0,0.0,0.0,0.0,0.0,0.0,0.0,0.0,0.0,0.0,0.0,0.0,0.0,0.0,0.0,0.0,0.0,0.0,0.0,0.0,0.0,0.0,0.0,0.0,0.0,0.0,0.0,0.0,0.0,0.0,0.0,0.0,0.0,0.0,0.0,0.0,0.0,0.0,0.0,0.0,0.0,0.0,0.0,0.0,0.0,0.0,0.0,0.0,0.0,0.0,0.0,0.0,0.0,0.0,0.0,0.0,0.0,0.0,0.0,0.0,0.0,0.0,0.0,0.0,0.0,0.0,0.0,0.0,0.0,0.0,0.0,0.0,0.0,0.0,0.0,0.0,0.0,0.0,0.0,0.0,0.0,0.0,0.0,0.0,0.0,0.0,0.0,0.0,0.0,0.0,0.0,0.0,0.0,0.0,0.0,0.0,0.0,0.0,0.0,0.0,0.0,0.0,0.0,0.0,0.0,0.0,0.0,0.0,0.0,0.0,0.0,0.0,0.0,0.0,0.0,0.0,0.0,0.0,0.0,0.0,0.0,0.0,0.0,0.0,0.0,0.0,0.0,0.0,0.0,0.0,0.0,0.0,0.0,0.0,0.0,0.0,0.0,0.0,0.0,0.0,0.0,0.0,0.0,0.0,0.0,0.0,0.0,0.0,0.0,0.0,0.0,0.0,0.0,0.0,0.0,0.0,0.0,0.0,0.0,0.0,0.0,0.0,0.0,0.0,0.0,0.0,0.0,0.0,0.0,0.0,0.0,0.0,0.0,0.0,0.0,0.0,0.0,0.0,0.0,0.0,0.0,0.0,0.0,0.0,0.0,0.0,0.0,0.0,0.0,0.0,0.0,0.0,0.0,0.0,0.0,0.0,0.0,0.0,0.0,0.0,0.0,0.0,0.0,0.0,0.0,0.0,0.0,0.0,0.0,0.0,0.0,0.0,0.0,0.0,0.0,0.0,0.0,0.0,0.0,0.0,0.0,0.0,0.0,0.0,0.0,0.0,0.0,0.0,0.0,0.0,0.0,0.0,0.0,0.0,0.0,0.0,0.0,0.0,0.0,0.0,0.0,0.0,0.0,0.0,0.0,0.0,0.0,0.0,0.0,0.0,0.0,0.0,0.0,0.0,0.0,0.0,0.0,0.0,0.0,0.0,0.0,0.0,0.0,0.0,0.0,0.0,0.0,0.0,0.0,0.0,0.0,0.0,0.0,0.0,0.0,0.0,-0.6653,0.0,0.0,0.0,0.0,0.0,0.0,0.0,0.0,0.0,0.0,0.0,0.0,0.0,0.0,0.0,0.0,0.0,0.0,0.0,0.0,0.0,0.0,0.0,0.0,0.0,0.0,0.0,0.0,0.0,0.0,0.0,0.0,0.0,0.0,0.0,0.0,0.0,0.0,0.0,0.0,0.0,0.0,0.0,0.0,0.0,0.0,0.0,0.0,0.0,0.0,0.0,0.0,0.0,0.0,0.0,0.0,0.0,0.0,0.0,0.0,0.0,0.0,0.0,0.0,0.0,0.0,0.0,0.0,0.0,0.0,0.0,0.0,0.0,0.0,0.0,0.0,0.0,0.0,0.0,0.0,0.0,0.0,0.0,0.0,0.0,0.0,0.0,0.0,0.0,0.0,0.0,0.0,0.0,0.0,0.0,0.0,0.0,0.0,0.0,0.0,0.0,0.0,0.0,0.0,0.0,0.0,0.0,0.0,0.0,0.0,-0.6496,-0.6696,-0.6007,-0.605,-0.6894,0.0,0.0,0.0,0.0,0.0,0.0,0.0,0.0,0.0,0.0,0.0,0.0,0.0,0.0,0.0,0.0,0.0,0.0,0.0,0.0,0.0,0.0,0.0,0.0,0.0,0.0,0.0,0.0,0.0,0.0,0.0,0.0,0.0,0.0,0.0,0.0,0.0,0.0,0.0,0.0,0.0,0.0,0.0,0.0,0.0,0.0,0.0,0.0,0.0,0.0,0.0,0.0,0.0,0.0,0.0,0.0,0.0,0.0,0.0,0.0,0.0,0.0,0.0,0.0,0.0,0.0,0.0,0.0,0.0,0.0,0.0,0.0,0.0,0.0,0.0,0.0,0.0,0.0,0.0,0.0,0.0,0.0,0.0,0.0,0.0,0.0,0.0,0.0,0.0,0.0,0.0,0.0,0.0,0.0,0.0,0.0,0.0,0.0,0.0,0.0,0.0,0.0,0.0,0.0,0.0,0.0,0.0,0.0,0.0,0.0,0.0,0.0,-0.6403,-0.6397,-0.6993,0.0,0.0,0.0,0.0,0.0,0.0,0.0,0.0,0.0,0.0,0.0,0.0,0.0,0.0,0.0,0.0,0.0,0.0,0.0,0.0,0.0,0.0,0.0,0.0,0.0,0.0,0.0,0.0,0.0,0.0,0.0,0.0,0.0,0.0,0.0,0.0,0.0,0.0,0.0,0.0,0.0,0.0,0.0,0.0,0.0,0.0,0.0,0.0,0.0,0.0,0.0,0.0,0.0,0.0,0.0,0.0,0.0,0.0,0.0,0.0,0.0,0.0,0.0,0.0,0.0,0.0,0.0,0.0,0.0,0.0,0.0,0.0,0.0,0.0,0.0,0.0,0.0,0.0,0.0,0.0,0.0,0.0,0.0,0.0,0.0,0.0,0.0,0.0,0.0,0.0,0.0,0.0,0.0,0.0,0.0,0.0,0.0,0.0,0.0,0.0,0.0,0.0,0.0,0.0,0.0,0.0,0.0,0.0,0.0,0.0,-0.6933,-0.6879,-0.6936,0.0,-0.7065,0.0,0.0,0.0,0.0,0.0,0.0,0.0,0.0,0.0,0.0,0.0,0.0,0.0,0.0,0.0,0.0,0.0,0.0,0.0,0.0,0.0,0.0,0.0,0.0,0.0,0.0,0.0,0.0,0.0,0.0,0.0,0.0,0.0,0.0,0.0,0.0,0.0,0.0,0.0,0.0,0.0,0.0,0.0,0.0,0.0,0.0,0.0,0.0,0.0,0.0,0.0,0.0,0.0,0.0,0.0,0.0,0.0,0.0,0.0,0.0,0.0,0.0,0.0,0.0,0.0,0.0,0.0,0.0,0.0,0.0,0.0,0.0,0.0,0.0,0.0,0.0,0.0,0.0,0.0,0.0,0.0,0.0,0.0,0.0,0.0,0.0,0.0,0.0,0.0,0.0,0.0,0.0,0.0,0.0,0.0,0.0,0.0,0.0,0.0,0.0,0.0,0.0,0.0,0.0,0.0,0.0,0.0,0.0,0.0,0.0,0.0,-0.7148,-0.7206,-0.7217,0.0,0.0,0.0,0.0,0.0,0.0,0.0,0.0,0.0,0.0,0.0,0.0,0.0,0.0,0.0,0.0,0.0,0.0,0.0,0.0,0.0,0.0,0.0,0.0,0.0,0.0,0.0,0.0,0.0,0.0,0.0,0.0,0.0,0.0,0.0,0.0,0.0,0.0,0.0,0.0,0.0,0.0,0.0,0.0,0.0,0.0,0.0,0.0,0.0,0.0,0.0,0.0,0.0,0.0,0.0,0.0,0.0,0.0,0.0,0.0,0.0,0.0,0.0,0.0,0.0,0.0,0.0,0.0,0.0,0.0,0.0,0.0,0.0,0.0,0.0,0.0,0.0,0.0,0.0,0.0,0.0,0.0,0.0,0.0,0.0,0.0,0.0,0.0,0.0,0.0,0.0,0.0,0.0,0.0,0.0,0.0,0.0,0.0,0.0,0.0,0.0,0.0,0.0,0.0,0.0,0.0,0.0,0.0,0.0,0.0,-0.7582,0.0,-0.7367,-0.7498,-0.7462,-0.726,0.0,0.0,0.0,0.0,0.0,0.0,0.0,0.0,0.0,0.0,0.0,0.0,0.0,0.0,0.0,0.0,0.0,0.0,0.0,0.0,0.0,0.0,0.0,0.0,0.0,0.0,0.0,0.0,0.0,0.0,0.0,0.0,0.0,0.0,0.0,0.0,0.0,0.0,0.0,0.0,0.0,0.0,0.0,0.0,0.0,0.0,0.0,0.0,0.0,0.0,0.0,0.0,0.0,0.0,0.0,0.0,0.0,0.0,0.0,0.0,0.0,0.0,0.0,0.0,0.0,0.0,0.0,0.0,0.0,0.0,0.0,0.0,0.0,0.0,0.0,0.0,0.0,0.0,0.0,0.0,0.0,0.0,0.0,0.0,0.0,0.0,0.0,0.0,0.0,0.0,0.0,0.0,0.0,0.0,0.0,0.0,0.0,0.0,0.0,0.0,0.0,0.0,0.0,0.0,0.0,0.0,0.0,0.0,0.0,-0.7616,-0.7439,-0.7462,-0.7936,-0.7988,0.0,0.0,0.0,0.0,0.0,0.0,0.0,0.0,0.0,0.0,0.0,0.0,0.0,0.0,0.0,0.0,0.0,0.0,0.0,0.0,0.0,0.0,0.0,0.0,0.0,0.0,0.0,0.0,0.0,0.0,0.0,0.0,0.0,0.0,0.0,0.0,0.0,0.0,0.0,0.0,0.0,0.0,0.0,0.0,0.0,0.0,0.0,0.0,0.0,0.0,0.0,0.0,0.0,0.0,0.0,0.0,0.0,0.0,0.0,0.0,0.0,0.0,0.0,0.0,0.0,0.0,0.0,0.0,0.0,0.0,0.0,0.0,0.0,0.0,0.0,0.0,0.0,0.0,0.0,0.0,0.0,0.0,0.0,0.0,0.0,0.0,0.0,0.0,0.0,0.0,0.0,0.0,0.0,0.0,0.0,0.0,0.0,0.0,0.0,0.0,0.0,0.0,0.0,0.0,0.0,0.0,0.0,0.0,0.0,-0.7681,-0.7437,-0.7754,-0.8632,-0.818,-0.8041,0.0,0.0,0.0,0.0,0.0,0.0,0.0,0.0,0.0,0.0,0.0,0.0,0.0,0.0,0.0,0.0,0.0,0.0,0.0,0.0,0.0,0.0,0.0,0.0,0.0,0.0,0.0,0.0,0.0,0.0,0.0,0.0,0.0,0.0,0.0,0.0,0.0,0.0,0.0,0.0,0.0,0.0,0.0,0.0,0.0,0.0,0.0,0.0,0.0,0.0,0.0,0.0,0.0,0.0,0.0,0.0,0.0,0.0,0.0,0.0,0.0,0.0,0.0,0.0,0.0,0.0,0.0,0.0,0.0,0.0,0.0,0.0,0.0,0.0,0.0,0.0,0.0,0.0,0.0,0.0,0.0,0.0,0.0,0.0,0.0,0.0,0.0,0.0,0.0,0.0,0.0,0.0,0.0,0.0,0.0,0.0,0.0,0.0,0.0,0.0,0.0,0.0,0.0,0.0,0.0,0.0,0.0,0.0,0.0,-0.7856,0.0,-0.8437,0.0,-0.8567,-0.8368,0.0,0.0,0.0,0.0,0.0,0.0,0.0,0.0,0.0,0.0,0.0,0.0,0.0,0.0,0.0,0.0,0.0,0.0,0.0,0.0,0.0,0.0,0.0,0.0,0.0,0.0,0.0,0.0,0.0,0.0,0.0,0.0,0.0,0.0,0.0,0.0,0.0,0.0,0.0,0.0,0.0,0.0,0.0,0.0,0.0,0.0,0.0,0.0,0.0,0.0,0.0,0.0,0.0,0.0,0.0,0.0,0.0,0.0,0.0,0.0,0.0,0.0,0.0,0.0,0.0,0.0,0.0,0.0,0.0,0.0,0.0,0.0,0.0,0.0,0.0,0.0,0.0,0.0,0.0,0.0,0.0,0.0,0.0,0.0,0.0,0.0,0.0,0.0,0.0,0.0,0.0,0.0,0.0,0.0,0.0,0.0,0.0,0.0,0.0,0.0,0.0,0.0,0.0,0.0,0.0,0.0,0.0,0.0,-0.8449,-0.8615,-0.9261,-0.9364,-0.8876,-0.9195,-0.9105,0.0,0.0,0.0,0.0,0.0,0.0,0.0,0.0,0.0,0.0,0.0,0.0,0.0,0.0,0.0,0.0,0.0,0.0,0.0,0.0,0.0,0.0,0.0,0.0,0.0,0.0,0.0,0.0,0.0,0.0,0.0,0.0,0.0,0.0,0.0,0.0,0.0,0.0,0.0,0.0,0.0,0.0,0.0,0.0,0.0,0.0,0.0,0.0,0.0,0.0,0.0,0.0,0.0,0.0,0.0,0.0,0.0,0.0,0.0,0.0,0.0,0.0,0.0,0.0,0.0,0.0,0.0,0.0,0.0,0.0,0.0,0.0,0.0,0.0,0.0,0.0,0.0,0.0,0.0,0.0,0.0,0.0,0.0,0.0,0.0,0.0,0.0,0.0,0.0,0.0,0.0,0.0,0.0,0.0,0.0,0.0,0.0,0.0,0.0,0.0,0.0,0.0,0.0,0.0,0.0,0.0,0.0,0.0,0.0,-0.963,-0.9792,-1.03,-1.1122,-1.0234,-0.9825,0.0,0.0,0.0,0.0,0.0,0.0,0.0,0.0,0.0,0.0,0.0,0.0,0.0,0.0,0.0,0.0,0.0,0.0,0.0,0.0,0.0,0.0,0.0,0.0,0.0,0.0,0.0,0.0,0.0,0.0,0.0,0.0,0.0,0.0,0.0,0.0,0.0,0.0,0.0,0.0,0.0,0.0,0.0,0.0,0.0,0.0,0.0,0.0,0.0,0.0,0.0,0.0,0.0,0.0,0.0,0.0,0.0,0.0,0.0,0.0,0.0,0.0,0.0,0.0,0.0,0.0,0.0,0.0,0.0,0.0,0.0,0.0,0.0,0.0,0.0,0.0,0.0,0.0,0.0,0.0,0.0,0.0,0.0,0.0,0.0,0.0,0.0,0.0,0.0,0.0,0.0,0.0,0.0,0.0,0.0,0.0,0.0,0.0,0.0,0.0,0.0,0.0,0.0,0.0,0.0,0.0,0.0,0.0,0.0,-1.1404,-1.1361,-1.1752,-1.2572,-1.1505,-1.0827,-1.0668,0.0,0.0,0.0,0.0,0.0,0.0,0.0,0.0,0.0,0.0,0.0,0.0,0.0,0.0,0.0,0.0,0.0,0.0,0.0,0.0,0.0,0.0,0.0,0.0,0.0,0.0,0.0,0.0,0.0,0.0,0.0,0.0,0.0,0.0,0.0,0.0,0.0,0.0,0.0,0.0,0.0,0.0,0.0,0.0,0.0,0.0,0.0,0.0,0.0,0.0,0.0,0.0,0.0,0.0,0.0,0.0,0.0,0.0,0.0,0.0,0.0,0.0,0.0,0.0,0.0,0.0,0.0,0.0,0.0,0.0,0.0,0.0,0.0,0.0,0.0,0.0,0.0,0.0,0.0,0.0,0.0,0.0,0.0,0.0,0.0,0.0,0.0,0.0,0.0,0.0,0.0,0.0,0.0,0.0,0.0,0.0,0.0,0.0,0.0,0.0,0.0,0.0,0.0,0.0,0.0,0.0,0.0,0.0,-1.3669,-1.3769,-1.3619,-1.3206,-1.2819,-1.2026,0.0,0.0,0.0,0.0,0.0,0.0,0.0,0.0,0.0,0.0,0.0,0.0,0.0,0.0,0.0,0.0,0.0,0.0,0.0,0.0,0.0,0.0,0.0,0.0,0.0,0.0,0.0,0.0,0.0,0.0,0.0,0.0,0.0,0.0,0.0,0.0,0.0,0.0,0.0,0.0,0.0,0.0,0.0,0.0,0.0,0.0,0.0,0.0,0.0,0.0,0.0,0.0,0.0,0.0,0.0,0.0,0.0,0.0,0.0,0.0,0.0,0.0,0.0,0.0,0.0,0.0,0.0,0.0,0.0,0.0,0.0,0.0,0.0,0.0,0.0,0.0,0.0,0.0,0.0,0.0,0.0,0.0,0.0,0.0,0.0,0.0,0.0,0.0,0.0,0.0,0.0,0.0,0.0,0.0,0.0,0.0,0.0,0.0,0.0,0.0,0.0,0.0,0.0,0.0,0.0,0.0,0.0,0.0,0.0,-1.4993,-1.6019,-1.6015,-1.4953,-1.3913,-1.2991,0.0,0.0,0.0,0.0,0.0,0.0,0.0,0.0,0.0,0.0,0.0,0.0,0.0,0.0,0.0,0.0,0.0,0.0,0.0,0.0,0.0,0.0,0.0,0.0,0.0,0.0,0.0,0.0,0.0,0.0,0.0,0.0,0.0,0.0,0.0,0.0,0.0,0.0,0.0,0.0,0.0,0.0,0.0,0.0,0.0,0.0,0.0,0.0,0.0,0.0,0.0,0.0,0.0,0.0,0.0,0.0,0.0,0.0,0.0,0.0,0.0,0.0,0.0,0.0,0.0,0.0,0.0,0.0,0.0,0.0,0.0,0.0,0.0,0.0,0.0,0.0,0.0,0.0,0.0,0.0,0.0,0.0,0.0,0.0,0.0,0.0,0.0,0.0,0.0,0.0,0.0,0.0,0.0,0.0,0.0,0.0,0.0,0.0,0.0,0.0,0.0,0.0,0.0,0.0,0.0,0.0,0.0,0.0,-1.4886,-1.6048,-1.7336,-1.7491,-1.6505,-1.5415,-1.4156,0.0,0.0,0.0,0.0,0.0,0.0,0.0,0.0,0.0,0.0,0.0,0.0,0.0,0.0,0.0,0.0,0.0,0.0,0.0,0.0,0.0,0.0,0.0,0.0,0.0,0.0,0.0,0.0,0.0,0.0,0.0,0.0,0.0,0.0,0.0,0.0,0.0,0.0,0.0,0.0,0.0,0.0,0.0,0.0,0.0,0.0,0.0,0.0,0.0,0.0,0.0,0.0,0.0,0.0,0.0,0.0,0.0,0.0,0.0,0.0,0.0,0.0,0.0,0.0,0.0,0.0,0.0,0.0,0.0,0.0,0.0,0.0,0.0,0.0,0.0,0.0,0.0,0.0,0.0,0.0,0.0,0.0,0.0,0.0,0.0,0.0,0.0,0.0,0.0,0.0,0.0,0.0,0.0,0.0,0.0,0.0,0.0,0.0,0.0,0.0,0.0,0.0,0.0,0.0,0.0,0.0,0.0,0.0,-1.5743,-1.6797,-1.793,-1.8261,-1.7625,-1.6831,-1.5302,0.0,0.0,0.0,0.0,0.0,0.0,0.0,0.0,0.0,0.0,0.0,0.0,0.0,0.0,0.0,0.0,0.0,0.0,0.0,0.0,0.0,0.0,0.0,0.0,0.0,0.0,0.0,0.0,0.0,0.0,0.0,0.0,0.0,0.0,0.0,0.0,0.0,0.0,0.0,0.0,0.0,0.0,0.0,0.0,0.0,0.0,0.0,0.0,0.0,0.0,0.0,0.0,0.0,0.0,0.0,0.0,0.0,0.0,0.0,0.0,0.0,0.0,0.0,0.0,0.0,0.0,0.0,0.0,0.0,0.0,0.0,0.0,0.0,0.0,0.0,0.0,0.0,0.0,0.0,0.0,0.0,0.0,0.0,0.0,0.0,0.0,0.0,0.0,0.0,0.0,0.0,0.0,0.0,0.0,0.0,0.0,0.0,0.0,0.0,0.0,0.0,0.0,0.0,0.0,0.0,0.0,0.0,0.0,-1.5988,-1.6927,-1.8114,-1.8461,-1.7875,-1.6684,-1.5407,0.0,0.0,0.0,0.0,0.0,0.0,0.0,0.0,0.0,0.0,0.0,0.0,0.0,0.0,0.0,0.0,0.0,0.0,0.0,0.0,0.0,0.0,0.0,0.0,0.0,0.0,0.0,0.0,0.0,0.0,0.0,0.0,0.0,0.0,0.0,0.0,0.0,0.0,0.0,0.0,0.0,0.0,0.0,0.0,0.0,0.0,0.0,0.0,-1.1426,0.0,0.0,0.0,0.0,0.0,0.0,0.0,0.0,0.0,0.0,0.0,0.0,0.0,0.0,0.0,0.0,0.0,0.0,0.0,0.0,0.0,0.0,0.0,0.0,0.0,0.0,0.0,0.0,0.0,0.0,0.0,0.0,0.0,0.0,0.0,0.0,0.0,0.0,0.0,0.0,0.0,0.0,0.0,0.0,0.0,0.0,0.0,0.0,0.0,0.0,0.0,0.0,0.0,0.0,0.0,0.0,0.0,0.0,0.0,-1.6392,-1.7417,-1.8346,-1.8527,-1.7995,-1.6971,-1.5741,0.0,0.0,0.0,0.0,0.0,0.0,0.0,0.0,0.0,0.0,0.0,0.0,0.0,0.0,0.0,0.0,0.0,0.0,0.0,0.0,0.0,0.0,0.0,0.0,0.0,0.0,0.0,0.0,0.0,0.0,0.0,0.0,0.0,0.0,0.0,0.0,0.0,0.0,0.0,0.0,0.0,0.0,0.0,0.0,0.0,0.0,0.0,0.0,0.0,0.0,0.0,0.0,0.0,0.0,0.0,0.0,0.0,0.0,0.0,0.0,0.0,0.0,0.0,0.0,0.0,0.0,0.0,0.0,0.0,0.0,0.0,0.0,0.0,0.0,0.0,0.0,0.0,0.0,0.0,0.0,0.0,0.0,0.0,0.0,0.0,0.0,0.0,0.0,0.0,0.0,0.0,0.0,0.0,0.0,0.0,0.0,0.0,0.0,0.0,0.0,0.0,0.0,0.0,0.0,0.0,0.0,0.0,-1.5497,-1.6739,-1.7873,-1.8534,-1.8594,-1.8145,-1.7382,-1.6059,-1.4208,0.0,0.0,0.0,0.0,0.0,0.0,0.0,0.0,0.0,0.0,0.0,0.0,0.0,0.0,0.0,0.0,0.0,0.0,0.0,0.0,0.0,0.0,0.0,0.0,0.0,0.0,0.0,0.0,0.0,0.0,0.0,0.0,0.0,0.0,0.0,0.0,0.0,0.0,-1.3431,-1.4058,0.0,0.0,0.0,0.0,0.0,0.0,0.0,0.0,-1.3839,0.0,0.0,0.0,0.0,0.0,0.0,0.0,0.0,0.0,0.0,0.0,0.0,0.0,0.0,0.0,0.0,0.0,0.0,0.0,0.0,0.0,0.0,0.0,0.0,0.0,0.0,0.0,0.0,0.0,0.0,0.0,0.0,0.0,0.0,0.0,0.0,0.0,0.0,0.0,0.0,0.0,0.0,0.0,0.0,0.0,0.0,0.0,0.0,0.0,0.0,0.0,0.0,0.0,0.0,0.0,0.0,-1.4314,-1.5385,-1.6494,-1.7873,-1.8804,-1.8868,-1.8124,-1.7143,-1.6058,-1.4707,0.0,0.0,0.0,0.0,0.0,0.0,0.0,0.0,0.0,0.0,0.0,0.0,0.0,0.0,0.0,0.0,0.0,0.0,0.0,0.0,0.0,0.0,0.0,0.0,0.0,0.0,0.0,0.0,0.0,0.0,0.0,0.0,0.0,0.0,0.0,0.0,0.0,0.0,0.0,-1.5215,-1.5726,0.0,0.0,0.0,0.0,0.0,0.0,0.0,0.0,-1.4846,0.0,0.0,0.0,0.0,0.0,0.0,0.0,0.0,0.0,0.0,0.0,0.0,0.0,0.0,0.0,0.0,0.0,0.0,0.0,0.0,0.0,0.0,0.0,0.0,0.0,0.0,0.0,0.0,0.0,0.0,0.0,0.0,0.0,0.0,0.0,0.0,0.0,0.0,0.0,0.0,0.0,0.0,0.0,0.0,0.0,0.0,0.0,0.0,0.0,0.0,0.0,0.0,0.0,0.0,0.0,-1.4235,-1.5663,-1.6974,-1.8017,-1.8868,-1.8885,-1.7934,-1.7144,-1.5982,0.0,0.0,0.0,0.0,0.0,0.0,0.0,0.0,0.0,0.0,0.0,0.0,0.0,0.0,0.0,0.0,0.0,0.0,0.0,0.0,0.0,0.0,0.0,0.0,0.0,0.0,0.0,0.0,0.0,0.0,0.0,0.0,0.0,0.0,0.0,0.0,0.0,0.0,0.0,0.0,-1.6286,-1.6591,-1.7086,0.0,0.0,0.0,0.0,0.0,0.0,-1.6103,-1.6162,0.0,0.0,0.0,0.0,0.0,0.0,0.0,0.0,0.0,0.0,0.0,0.0,0.0,0.0,0.0,0.0,0.0,0.0,0.0,0.0,0.0,0.0,0.0,0.0,0.0,0.0,0.0,0.0,0.0,0.0,0.0,0.0,0.0,0.0,0.0,0.0,0.0,0.0,0.0,0.0,0.0,0.0,0.0,0.0,0.0,0.0,0.0,0.0,0.0,0.0,0.0,0.0,0.0,0.0,0.0,-1.4083,-1.5986,-1.7391,-1.8211,-1.8944,-1.8846,-1.7761,-1.7001,-1.5802,0.0,0.0,0.0,0.0,0.0,0.0,0.0,0.0,0.0,0.0,0.0,0.0,0.0,0.0,0.0,0.0,0.0,0.0,0.0,0.0,0.0,0.0,0.0,0.0,0.0,0.0,0.0,0.0,0.0,0.0,0.0,0.0,0.0,0.0,0.0,0.0,0.0,0.0,0.0,0.0,0.0,-1.7414,-1.7965,-1.7758,0.0,0.0,0.0,0.0,-1.7412,-1.7472,0.0,0.0,0.0,0.0,0.0,0.0,0.0,0.0,0.0,0.0,0.0,0.0,0.0,0.0,0.0,0.0,0.0,0.0,0.0,0.0,0.0,0.0,0.0,0.0,0.0,0.0,0.0,0.0,0.0,0.0,0.0,0.0,0.0,0.0,0.0,0.0,0.0,0.0,0.0,0.0,0.0,0.0,0.0,0.0,0.0,0.0,0.0,0.0,0.0,0.0,0.0,0.0,0.0,0.0,0.0,0.0,-1.4083,-1.5802,-1.7254,-1.8323,-1.9116,-1.904,-1.7997,-1.6644,-1.532,0.0,0.0,0.0,0.0,0.0,0.0,0.0,0.0,0.0,0.0,0.0,0.0,0.0,0.0,0.0,0.0,0.0,0.0,0.0,0.0,0.0,0.0,0.0,0.0,0.0,0.0,0.0,0.0,0.0,0.0,0.0,0.0,0.0,0.0,0.0,0.0,0.0,0.0,0.0,0.0,0.0,-1.8601,-1.9214,-1.8712,-1.8452,0.0,0.0,0.0,-1.8714,-1.8957,0.0,0.0,0.0,0.0,0.0,0.0,0.0,0.0,0.0,0.0,0.0,0.0,0.0,0.0,0.0,0.0,0.0,0.0,0.0,0.0,0.0,0.0,0.0,0.0,0.0,0.0,0.0,0.0,0.0,0.0,0.0,0.0,0.0,0.0,0.0,0.0,0.0,0.0,0.0,0.0,0.0,0.0,0.0,0.0,0.0,0.0,0.0,0.0,0.0,0.0,0.0,0.0,0.0,0.0,0.0,-1.2639,-1.3795,-1.5903,-1.7438,-1.8251,-1.8594,-1.849,-1.7864,-1.6348,-1.5063,0.0,0.0,0.0,0.0,0.0,0.0,0.0,0.0,0.0,0.0,0.0,0.0,0.0,0.0,0.0,0.0,0.0,0.0,0.0,0.0,0.0,0.0,0.0,0.0,0.0,0.0,0.0,0.0,0.0,0.0,0.0,0.0,0.0,0.0,0.0,0.0,0.0,0.0,0.0,0.0,0.0,0.0,-1.9551,-1.9409,0.0,0.0,0.0,-1.9707,-1.9956,0.0,0.0,0.0,0.0,0.0,0.0,0.0,0.0,0.0,0.0,0.0,0.0,0.0,0.0,0.0,0.0,0.0,0.0,0.0,0.0,0.0,0.0,0.0,0.0,0.0,0.0,0.0,0.0,0.0,0.0,0.0,0.0,0.0,0.0,0.0,0.0,0.0,0.0,0.0,0.0,0.0,0.0,0.0,0.0,0.0,0.0,0.0,0.0,0.0,0.0,0.0,0.0,0.0,0.0,0.0,0.0,0.0,-1.3672,-1.6031,-1.7568,-1.808,-1.8148,-1.8015,-1.7604,-1.6046,0.0,0.0,0.0,0.0,0.0,0.0,0.0,0.0,0.0,0.0,0.0,0.0,0.0,0.0,0.0,0.0,0.0,0.0,0.0,0.0,0.0,0.0,0.0,0.0,0.0,0.0,0.0,-1.082,0.0,0.0,0.0,0.0,0.0,0.0,0.0,0.0,0.0,0.0,0.0,0.0,0.0,0.0,-1.9439,-1.9904,-2.0114,-2.0306,0.0,0.0,-2.0914,-2.1205,-2.1351,-2.151,0.0,0.0,0.0,0.0,0.0,0.0,0.0,0.0,0.0,0.0,0.0,0.0,0.0,0.0,0.0,0.0,0.0,0.0,0.0,0.0,0.0,0.0,0.0,0.0,0.0,0.0,0.0,0.0,0.0,0.0,0.0,0.0,0.0,0.0,0.0,0.0,0.0,0.0,0.0,0.0,0.0,0.0,0.0,0.0,0.0,0.0,0.0,0.0,0.0,0.0,0.0,0.0,0.0,0.0,0.0,-1.4123,-1.6192,-1.7473,-1.7798,-1.8038,-1.7927,-1.7315,-1.5873,-1.4743,0.0,0.0,0.0,0.0,0.0,0.0,0.0,0.0,0.0,0.0,0.0,0.0,0.0,0.0,0.0,0.0,0.0,0.0,0.0,0.0,0.0,0.0,0.0,0.0,0.0,0.0,0.0,0.0,0.0,0.0,0.0,0.0,0.0,0.0,0.0,0.0,0.0,0.0,0.0,0.0,0.0,-2.0406,-2.068,-2.0953,-2.1355,0.0,0.0,-2.188,-2.2314,-2.262,-2.2643,-2.2149,0.0,0.0,0.0,0.0,0.0,0.0,0.0,0.0,0.0,0.0,0.0,0.0,0.0,0.0,0.0,0.0,0.0,0.0,0.0,0.0,0.0,0.0,0.0,0.0,0.0,0.0,0.0,0.0,0.0,0.0,0.0,0.0,0.0,0.0,0.0,0.0,0.0,0.0,0.0,0.0,0.0,0.0,0.0,0.0,0.0,0.0,0.0,0.0,0.0,0.0,0.0,0.0,0.0,-1.3697,-1.4103,-1.6202,-1.7394,-1.7616,-1.7403,-1.7275,-1.7095,-1.5589,-1.4473,0.0,0.0,0.0,0.0,0.0,0.0,0.0,0.0,0.0,0.0,0.0,0.0,0.0,0.0,0.0,0.0,0.0,0.0,0.0,0.0,0.0,0.0,0.0,0.0,0.0,0.0,0.0,0.0,-1.2663,-1.3263,-1.3359,0.0,0.0,0.0,0.0,0.0,0.0,0.0,0.0,0.0,0.0,-2.1118,-2.141,-2.1827,0.0,0.0,-2.2586,-2.2768,-2.2859,-2.3113,-2.3303,-2.318,-2.2572,0.0,0.0,0.0,0.0,0.0,0.0,0.0,0.0,0.0,0.0,0.0,0.0,0.0,0.0,0.0,0.0,0.0,0.0,0.0,0.0,0.0,0.0,0.0,0.0,0.0,0.0,0.0,0.0,0.0,0.0,0.0,0.0,0.0,0.0,0.0,0.0,0.0,0.0,0.0,0.0,0.0,0.0,0.0,0.0,0.0,0.0,0.0,0.0,0.0,0.0,0.0,0.0,-1.4165,-1.4318,-1.6223,-1.7194,-1.7297,-1.6931,-1.6738,-1.6729,-1.5542,-1.4546,0.0,0.0,0.0,0.0,0.0,0.0,0.0,0.0,0.0,0.0,0.0,0.0,0.0,0.0,0.0,0.0,0.0,0.0,0.0,0.0,0.0,0.0,0.0,0.0,0.0,0.0,0.0,0.0,-1.3444,-1.3954,-1.4256,0.0,0.0,0.0,0.0,0.0,0.0,0.0,0.0,0.0,0.0,-2.1766,-2.203,-2.2466,-2.283,-2.283,-2.3157,-2.3407,-2.3348,-2.3731,-2.3964,-2.387,0.0,0.0,0.0,0.0,0.0,0.0,0.0,0.0,0.0,0.0,0.0,0.0,0.0,0.0,0.0,0.0,0.0,0.0,0.0,0.0,0.0,0.0,0.0,0.0,0.0,0.0,0.0,0.0,0.0,0.0,0.0,0.0,0.0,0.0,0.0,0.0,0.0,0.0,0.0,0.0,0.0,0.0,0.0,0.0,0.0,0.0,0.0,0.0,0.0,0.0,0.0,0.0,0.0,0.0,-1.4724,-1.6208,-1.6965,-1.6839,-1.6705,-1.6467,-1.6124,-1.5685,-1.5073,-1.4184,0.0,0.0,0.0,0.0,0.0,0.0,0.0,0.0,0.0,0.0,0.0,0.0,0.0,0.0,0.0,0.0,0.0,0.0,0.0,0.0,0.0,0.0,0.0,0.0,0.0,0.0,-1.3229,-1.372,-1.4215,0.0,0.0,0.0,0.0,0.0,0.0,0.0,0.0,0.0,0.0,-2.1758,-2.2377,-2.2663,-2.2963,-2.326,-2.3553,-2.3655,-2.3683,-2.3985,-2.4559,-2.4741,0.0,0.0,0.0,0.0,0.0,0.0,0.0,0.0,0.0,0.0,0.0,0.0,0.0,0.0,0.0,0.0,0.0,0.0,0.0,0.0,0.0,0.0,0.0,0.0,0.0,0.0,0.0,-0.9644,-0.9328,0.0,0.0,0.0,0.0,0.0,0.0,0.0,0.0,0.0,0.0,0.0,-1.3718,-1.4123,0.0,0.0,0.0,0.0,0.0,0.0,0.0,0.0,0.0,0.0,0.0,0.0,-1.4493,-1.4934,-1.62,-1.6807,-1.6694,-1.6637,-1.6467,-1.6104,-1.5807,-1.505,-1.3928,0.0,0.0,0.0,0.0,0.0,0.0,0.0,0.0,0.0,0.0,0.0,0.0,0.0,0.0,0.0,0.0,0.0,0.0,0.0,0.0,0.0,0.0,0.0,0.0,0.0,-1.3397,0.0,0.0,0.0,0.0,0.0,0.0,0.0,0.0,0.0,0.0,0.0,-2.1171,-2.1997,-2.2979,-2.3668,-2.3925,-2.4642,-2.5168,0.0,0.0,0.0,0.0,0.0,0.0,0.0,0.0,0.0,0.0,0.0,0.0,0.0,0.0,-2.3712,-2.2261,-2.1901,-2.1831,-2.201,0.0,0.0,0.0,0.0,0.0,0.0,0.0,0.0,0.0,0.0,0.0,0.0,0.0,0.0,0.0,0.0,-1.0335,0.0,0.0,0.0,0.0,0.0,0.0,0.0,0.0,-1.462,-1.5498,-1.5407,-1.575,-1.5715,0.0,-1.4877,-1.378,0.0,0.0,0.0,0.0,0.0,0.0,0.0,0.0,-1.4745,-1.5034,-1.6105,-1.6694,-1.6581,-1.6524,-1.641,-1.6104,-1.5751,-1.505,-1.4031,-1.2998,-1.2503,0.0,0.0,0.0,0.0,0.0,0.0,0.0,0.0,0.0,0.0,0.0,0.0,0.0,0.0,0.0,0.0,0.0,0.0,0.0,0.0,0.0,0.0,0.0,-1.4244,0.0,0.0,0.0,0.0,0.0,0.0,0.0,0.0,0.0,-2.061,-2.1647,-2.2698,-2.3564,-2.4431,-2.5033,-2.5048,0.0,0.0,0.0,0.0,0.0,0.0,0.0,-2.5992,-2.5563,-2.5841,-2.6057,-2.6108,-2.5891,-2.5577,-2.5215,0.0,0.0,-2.3696,-2.3452,-2.359,-2.3767,-2.3863,-2.4222,-2.516,-2.5055,-2.513,0.0,0.0,0.0,0.0,0.0,0.0,0.0,0.0,-1.3564,-1.3717,0.0,-1.2248,0.0,0.0,0.0,0.0,0.0,0.0,0.0,0.0,-1.6528,-1.7185,-1.6345,-1.6845,-1.7024,-1.6994,-1.6331,-1.567,-1.51,-1.3886,0.0,0.0,0.0,0.0,0.0,0.0,-1.4988,-1.5064,-1.6059,-1.6581,-1.6581,-1.6488,-1.6306,-1.6104,-1.5573,-1.5073,-1.4639,-1.3876,-1.326,-1.2763,-1.2272,0.0,0.0,0.0,0.0,0.0,0.0,0.0,0.0,0.0,0.0,0.0,0.0,0.0,0.0,0.0,0.0,0.0,0.0,0.0,0.0,-1.4633,0.0,0.0,0.0,0.0,0.0,0.0,0.0,0.0,0.0,0.0,-2.1595,-2.3163,-2.4685,-2.542,0.0,0.0,0.0,0.0,-2.6025,-2.6135,-2.5595,-2.5545,-2.6248,-2.6714,-2.6775,-2.6214,0.0,0.0,-2.6891,-2.6751,-2.672,-2.6704,-2.6704,-2.6473,-2.562,-2.5883,-2.6344,-2.6463,-2.6445,-2.6673,-2.6879,-2.6983,-2.7132,-1.4958,0.0,0.0,0.0,0.0,-1.4732,-1.5018,-1.5382,-1.546,-1.5299,-1.4862,-1.4347,0.0,0.0,0.0,0.0,0.0,0.0,-1.5183,-1.6133,-1.6907,-1.76,-1.8281,-1.8404,-1.8366,-1.8121,-1.7924,-1.7472,-1.6839,-1.6425,-1.5279,-1.3371,0.0,0.0,0.0,0.0,-1.5147,-1.5662,-1.6177,-1.6488,-1.6431,-1.6431,-1.6374,-1.6316,-1.5685,-1.5279,-1.5257,-1.421,-1.3559,-1.3421,-1.2712,0.0,0.0,0.0,0.0,0.0,0.0,0.0,0.0,0.0,0.0,0.0,0.0,0.0,0.0,0.0,0.0,0.0,0.0,0.0,-1.4802,-1.5386,-1.5902,0.0,0.0,0.0,0.0,0.0,0.0,0.0,0.0,0.0,-2.3837,-2.4163,-2.451,0.0,0.0,-2.6683,-2.6547,-2.7315,-2.7906,-2.7949,0.0,0.0,0.0,-2.77,-2.7724,-2.7199,-2.7631,-2.8027,-2.7937,-2.7627,-2.7422,-2.7422,-2.7512,-2.7478,-2.7261,-2.692,-2.6839,-2.6926,-2.6981,-2.7225,-2.7771,-2.8029,-2.8329,-1.6027,-1.5548,-1.5205,-1.5493,-1.6263,-1.6403,-1.6715,-1.7215,-1.7183,-1.7149,-1.7033,-1.63,-1.5915,-1.5789,-1.5221,0.0,0.0,0.0,-1.6412,-1.7536,-1.7782,-1.8352,-1.9054,-1.9131,-1.8996,-1.8781,-1.8668,-1.8365,-1.7891,-1.7697,-1.6768,-1.5051,0.0,0.0,-1.4802,-1.5086,-1.5442,-1.5921,-1.6249,-1.6374,-1.6374,-1.6374,-1.6374,-1.6363,-1.5982,-1.5644,-1.5516,-1.4609,-1.4042,-1.376,-1.3112,-1.2639,0.0,0.0,0.0,0.0,0.0,0.0,0.0,0.0,0.0,0.0,0.0,-1.3004,-1.237,0.0,0.0,0.0,-1.3699,-1.4513,-1.5856,-1.6309,0.0,0.0,0.0,0.0,0.0,0.0,0.0,-2.1719,-2.3334,-2.4704,-2.5228,-2.5321,-2.5581,-2.6299,-2.7085,-2.7515,-2.7399,0.0,-2.849,-2.8591,-2.8463,-2.8339,-2.8253,-2.8228,-2.8182,-2.8088,-2.835,-2.8558,-2.8653,-2.8451,-2.8278,-2.8262,-2.8308,-2.8383,-2.8428,-2.8142,-2.7889,-2.7949,-2.8065,-2.8295,-2.877,-2.8922,-2.9198,-1.6846,-1.7321,-1.6353,-1.6606,-1.7636,-1.7587,-1.8081,-1.9046,-1.8841,-1.9209,-1.9739,-1.8185,-1.801,-1.8816,-1.7082,0.0,0.0,-1.7056,-1.7637,-1.8506,-1.8899,-1.9131,-1.9131,-1.9131,-1.9131,-1.9131,-1.877,-1.8551,-1.8371,-1.8049,-1.7654,-1.7264,-1.6485,-1.5886,-1.5508,-1.581,-1.5974,-1.5974,-1.6263,-1.6415,-1.6374,-1.6374,-1.6374,-1.6374,-1.6374,-1.612,-1.5577,-1.5085,-1.4531,-1.4003,-1.3479,-1.3122,-1.3035,0.0,0.0,0.0,0.0,0.0,0.0,0.0,0.0,0.0,0.0,0.0,0.0,0.0,0.0,0.0,-1.4916,0.0,-1.6954,-1.7332,0.0,0.0,0.0,-2.0684,-2.214,-2.3012,-2.3846,-2.4563,0.0,0.0,0.0,0.0,-2.7282,-2.8701,-2.8794,-2.8635,-2.8332,-2.8232,-2.8217,-2.8464,-2.8,-2.7906,-2.8525,-2.8423,-2.8381,-2.8716,-2.9029,-2.9029,-2.9091,-2.9075,-2.9075,-2.9044,-2.9091,-2.9106,-2.9289,-2.9225,-2.935,-2.9271,-2.9348,-2.9515,-2.9605,-2.9633,-2.9677,-1.6921,-1.7668,-1.7173,-1.7535,-1.8479,-1.8602,-1.9003,-1.9608,-1.9985,-2.0039,-1.9883,-1.9451,-1.9331,-1.9433,-1.8948,-1.8963,-1.9283,-1.9018,-1.9053,-1.9417,-1.9178,-1.9131,-1.9131,-1.9131,-1.9131,-1.9131,-1.9027,-1.8799,-1.8392,-1.8317,-1.7836,-1.7004,-1.6476,-1.6196,-1.6191,-1.6387,-1.6572,-1.6644,-1.6507,-1.6422,-1.6384,-1.6374,-1.6374,-1.6374,-1.6374,-1.6322,-1.6198,-1.5314,-1.4726,-1.4603,-1.3799,-1.3266,-1.317,-1.3175,0.0,0.0,0.0,0.0,0.0,0.0,0.0,0.0,0.0,-1.4565,-1.3367,0.0,-1.6058,0.0,-1.6086,-1.6943,-1.8204,-1.8403,0.0,0.0,-2.1188,-2.1871,-2.224,-2.376,-2.4684,-2.4433,-2.559,-2.6479,-2.6609,-2.718,-2.7913,-2.8668,-2.8484,-2.8174,-2.8092,-2.8417,-2.8713,-2.8722,-2.8652,-2.8636,-2.8792,-2.8794,-2.8748,-2.8873,-2.8904,-2.8967,-2.9091,-2.9091,-2.9091,-2.9091,-2.9091,-2.9167,-2.9259,-2.9366,-2.9502,-2.9592,-2.9653,-2.9653,-2.9697,-2.9786,-2.9874,-1.7077,-1.7583,-1.7258,-1.7382,-1.7762,-1.8488,-1.92,-1.9788,-2.0033,-2.0188,-2.0205,-2.0301,-2.0141,-1.9905,-1.9969,-1.9995,-1.9991,-1.9829,-1.9858,-1.9908,-1.972,-1.9572,-1.9453,-1.9443,-1.9272,-1.9075,-1.9131,-1.894,-1.8692,-1.8682,-1.8428,-1.7849,-1.7681,-1.7426,-1.7246,-1.6646,-1.6451,-1.6762,-1.6596,-1.6566,-1.6684,-1.6487,-1.6306,-1.6192,-1.6192,-1.6134,-1.6077,-1.5295,-1.4821,-1.4714,-1.3952,-1.353,-1.3481,-1.3481,-1.3559,0.0,0.0,0.0,0.0,0.0,0.0,0.0,0.0,0.0,0.0,0.0,-1.7041,0.0,-1.7534,0.0,-1.9588,-1.9813,-2.0438,-2.1904,-2.2575,-2.3224,-2.4183,-2.5305,-2.5998,-2.5953,-2.6816,-2.7509,-2.759,-2.7944,-2.835,-2.8732,-2.8492,-2.8273,-2.841,-2.869,-2.8889,-2.8873,-2.8918,-2.8982,-2.8873,-2.8873,-2.8873,-2.8889,-2.8936,-2.9029,-2.9075,-2.9091,-2.9091,-2.9091,-2.9091,-2.9183,-2.9366,-2.9473,-2.9563,-2.9742,-2.9786,-2.9786,-2.9786,-2.9874,-2.9918,-1.7059,-1.7217,-1.7033,-1.6832,-1.6773,-1.7903,-1.8748,-1.9379,-1.9368,-1.9756,-2.0479,-2.0741,-2.0611,-2.0256,-2.0472,-2.0252,-1.981,-2.004,-2.0092,-2.0082,-2.0237,-2.0213,-1.9851,-1.991,-1.9603,-1.9168,-1.9225,-1.9193,-1.9131,-1.9131,-1.9065,-1.8998,-1.8936,-1.868,-1.821,-1.6709,-1.6239,-1.6714,-1.6614,-1.6678,-1.6917,-1.6485,-1.6134,-1.5884,-1.5874,-1.5826,-1.572,-1.5312,-1.4939,-1.4656,-1.412,-1.3881,-1.4023,-1.3811,-1.4124,0.0,-1.4644,0.0,0.0,0.0,0.0,0.0,0.0,0.0,0.0,-1.7092,-1.806,-1.9022,-1.9047,-1.9534,-2.0788,-2.1183,-2.1939,-2.3279,-2.3698,-2.4597,-2.6329,-2.6907,-2.7324,-2.7853,-2.8171,-2.8444,-2.851,-2.8573,-2.8636,-2.87,-2.8652,-2.8635,-2.8795,-2.8858,-2.8889,-2.8873,-2.8967,-2.8967,-2.8873,-2.8873,-2.8873,-2.8858,-2.8998,-2.9091,-2.9091,-2.9091,-2.9091,-2.9091,-2.9091,-2.9183,-2.9412,-2.9473,-2.9579,-2.983,-2.9874,-2.9874,-2.9874,-2.9918,-2.9918,-1.6784,-1.7059,-1.7174,-1.7238,-1.7201,-1.7379,-1.7319,-1.7259,-1.7548,-1.8372,-1.9618,-2.0333,-2.0595,-2.0526,-2.0526,-2.0304,-1.9889,-2.0112,-2.0113,-1.9925,-2.0091,-2.0175,-2.0307,-2.0296,-2.0069,-1.9713,-1.9702,-1.9505,-1.9131,-1.9131,-1.8865,-1.8452,-1.8101,-1.7903,0.0,0.0,0.0,0.0,-1.7196,-1.6981,-1.6668,-1.5939,-1.5662,-1.573,-1.573,0.0,-1.5836,-1.5435,-1.5154,-1.5054,-1.4633,0.0,0.0,0.0,0.0,0.0,0.0,0.0,0.0,0.0,0.0,0.0,-1.6679,-1.6695,-1.6516,-1.8045,-1.9344,-1.998,-2.021,-2.0643,-2.1397,-2.2073,-2.2844,-2.3725,-2.4659,-2.5495,-2.6094,-2.6867,-2.7455,-2.781,-2.8152,-2.8396,-2.846,-2.8541,-2.8589,-2.8508,-2.8652,-2.8732,-2.8668,-2.8779,-2.8779,-2.8668,-2.8779,-2.892,-2.9014,-2.8982,-2.8904,-2.9029,-2.9075,-2.9091,-2.9091,-2.9091,-2.9091,-2.9091,-2.9091,-2.9167,-2.9305,-2.9412,-2.9579,-2.9697,-2.983,-2.9918,-2.9918,-2.9918,-2.9918,-1.6595,0.0,-1.7066,-1.6973,0.0,0.0,-1.6393,-1.6089,-1.7532,-1.8871,-2.0085,-2.0429,-2.0576,-2.0557,-2.0111,-1.9706,-1.9523,-1.9269,-1.9353,-1.9676,-2.0068,-2.0325,-2.0617,-2.0689,-2.0534,-2.0089,-2.01,-1.9851,-1.9291,-1.927,-1.8954,-1.8414,-1.8318,-1.8241,-1.824,-1.8185,-1.8075,-1.7886,-1.771,-1.7468,-1.7134,-1.6507,-1.6046,-1.5788,0.0,0.0,0.0,0.0,0.0,0.0,0.0,0.0,0.0,0.0,0.0,-1.5371,-1.5614,-1.5816,-1.602,-1.6244,-1.6653,-1.7204,-1.7704,-1.7935,-1.7733,-1.8969,-2.0032,-2.0639,-2.0955,-2.1397,-2.2024,-2.2793,-2.3519,-2.4216,-2.4977,-2.5615,-2.6035,-2.6651,-2.7167,-2.7458,-2.7825,-2.8152,-2.8411,-2.8444,-2.8444,-2.8411,-2.8508,-2.8604,-2.8541,-2.87,-2.8747,-2.87,-2.8684,-2.8779,-2.8905,-2.8936,-2.8904,-2.9013,-2.9075,-2.9091,-2.9091,-2.9091,-2.9091,-2.9137,-2.9167,-2.9275,-2.9366,-2.9518,-2.9637,-2.9786,-2.9874,-2.9918,-2.9918,-2.9918,-2.9918,-1.6508,-1.6979,-1.6972,-1.6729,-1.6395,-1.6395,-1.6239,-1.6253,0.0,0.0,0.0,-2.0605,-2.0566,-2.0547,-1.9745,-1.9286,-1.9182,-1.8769,-1.8939,-1.9488,-2.0115,-2.0577,-2.0876,-2.1025,-2.0853,-2.0411,-2.0401,-2.0104,-1.9614,-1.9532,-1.917,-1.868,-1.8724,-1.8751,-1.8808,-1.9008,-1.8942,-1.8596,-1.8183,-1.7843,-1.7729,-1.7134,-1.6555,-1.6004,-1.5914,-1.5826,-1.574,-1.5788,-1.5733,-1.5593,-1.5386,-1.5304,-1.5342,-1.5414,-1.5676,-1.6103,-1.6543,-1.6883,-1.7124,-1.746,-1.7704,-1.7776,-1.8571,-1.9044,-1.9112,-1.9741,-2.0457,-2.1143,-2.1516,-2.201,-2.2623,-2.3378,-2.4105,-2.469,-2.522,-2.573,-2.6133,-2.6486,-2.6774,-2.7071,-2.7458,-2.784,-2.8201,-2.8284,-2.8299,-2.8348,-2.8411,-2.8411,-2.846,-2.8604,-2.8747,-2.8747,-2.8636,-2.8636,-2.8794,-2.8858,-2.8873,-2.892,-2.9029,-2.9091,-2.9091,-2.9091,-2.9091,-2.9091,-2.9229,-2.9241,-2.9313,-2.9467,-2.9677,-2.9653,-2.9793,-2.9918,-2.9918,-2.9918,-2.9918,-1.6407,-1.6683,-1.6878,-1.7044,-1.7174,-1.7166,-1.778,-1.8846,-1.8288,-1.8614,-1.9807,-2.0201,-2.0411,-2.0557,-2.042,-2.0081,-1.9593,-2.0014,-2.0101,0.0,-2.0478,-2.0894,-2.1115,-2.1191,-2.0959,-2.0535,-2.0505,-2.0356,-1.9992,-1.9475,-1.9253,-1.929,-1.8798,-1.8617,-1.8798,-1.9008,-1.9075,-1.8988,-1.8283,-1.79,-1.7829,-1.6785,-1.6217,-1.6267,-1.6016,-1.5894,-1.5914,-1.6077,-1.6151,-1.6022,-1.6079,-1.6245,-1.651,-1.635,-1.648,-1.6878,-1.6923,-1.7199,-1.7873,-1.8061,-1.8451,-1.9141,-1.9466,-1.9605,-1.9597,-2.0315,-2.0974,-2.1505,-2.1983,-2.2498,-2.3011,-2.3883,-2.4611,-2.5206,-2.5706,-2.6187,-2.6525,-2.651,-2.6669,-2.7019,-2.7174,-2.7408,-2.784,-2.789,-2.7989,-2.8186,-2.8299,-2.8411,-2.8411,-2.8411,-2.8556,-2.8715,-2.8604,-2.8556,-2.8747,-2.8794,-2.8873,-2.8873,-2.9029,-2.9091,-2.9091,-2.9091,-2.9091,-2.9091,-2.9229,-2.9098,-2.8653,-2.9118,-2.9408,-2.9145,-2.9459,-2.9902,-2.9918,-2.9918,-2.9946,-1.645,-1.6805,-1.6753,-1.6965,-1.7333,-1.7333,-1.7878,-1.8824,-1.8531,-1.9059,-2.0173,-2.0305,-2.0342,-2.0391,-1.9947,-1.961,-1.935,-1.9202,-1.9297,-1.9495,-1.9985,-2.0515,-2.1041,-2.1138,-2.1104,-2.0903,-2.0903,-2.0662,-2.0146,-1.9853,-1.9533,-1.8994,-1.8634,-1.8539,-1.8808,-1.8875,-1.9008,-1.9065,-1.8736,-1.8434,-1.8178,-1.7663,-1.7154,-1.6698,-1.6642,-1.6533,-1.6316,-1.6467,-1.6581,-1.656,-1.6581,-1.6584,-1.6631,-1.6859,-1.6857,-1.6632,-1.701,-1.7396,-1.7854,-1.8362,-1.8861,-1.9364,-1.9804,-2.0097,-2.0084,-2.083,-2.1409,-2.167,-2.2091,-2.2423,-2.2748,-2.3694,-2.449,-2.4739,-2.5463,-2.6028,-2.6204,-2.6204,-2.6365,-2.6707,-2.6759,-2.7049,-2.7725,-2.779,-2.789,-2.8137,-2.8235,-2.8348,-2.8348,-2.8411,-2.8444,-2.8556,-2.8541,-2.8541,-2.8684,-2.8732,-2.8826,-2.892,-2.8936,-2.9014,-2.9045,-2.9075,-2.9029,-2.9091,-2.9213,-2.9194,-2.8873,-2.9291,-2.9472,-2.9507,-2.9539,-2.9902,-2.9918,-2.9989,-3.0017,-1.6619,-1.6926,-1.6791,-1.6928,-1.7333,-1.7333,-1.7692,-1.8388,-1.8612,-1.9323,-2.0168,-2.0235,-2.0194,-1.9991,-1.9446,-1.9161,-1.9105,-1.8428,-1.8616,-1.9373,-1.9602,-2.0091,-2.0789,-2.0974,-2.1041,-2.1051,-2.1051,-2.0775,-2.0381,-2.0177,-1.962,-1.8672,-1.8419,-1.8405,-1.8674,-1.8741,-1.8875,-1.9008,-1.9075,-1.8899,-1.8547,-1.8433,-1.804,-1.7409,-1.7319,-1.7105,-1.6816,-1.6804,-1.692,-1.7011,-1.6976,-1.6926,-1.6861,-1.7299,-1.7319,-1.6872,-1.7359,-1.7862,-1.8164,-1.8872,-1.943,-1.9655,-2.01,-2.0449,-2.061,-2.1213,-2.165,-2.1746,-2.1983,-2.2297,-2.2814,-2.3596,-2.4275,-2.4586,-2.5342,-2.5865,-2.5839,-2.5879,-2.5988,-2.6297,-2.6297,-2.6616,-2.7255,-2.7473,-2.761,-2.794,-2.8137,-2.8235,-2.8348,-2.8348,-2.8411,-2.8411,-2.8508,-2.8541,-2.8541,-2.8652,-2.8779,-2.8826,-2.8826,-2.8873,-2.8998,-2.8967,-2.8967,-2.9075,-2.9213,-2.9223,-2.9265,-2.9512,-2.9516,-2.9297,-2.9324,-2.9562,-2.9335,-2.9652,-3.0009,-1.6718,-1.6787,-1.6905,-1.7113,-1.7246,-1.7333,-1.7699,-1.8349,-1.8362,-1.849,-1.8853,-1.9797,-1.9891,-1.9408,-1.9335,-1.9376,-1.9446,-1.8885,-1.9261,-2.0246,-1.9866,-1.9963,-2.0566,-2.0654,-2.0654,-2.0654,-2.0654,-2.0702,-2.0777,-2.0164,-1.9463,-1.8672,-1.8409,-1.8327,-1.8405,-1.8674,-1.8818,-1.8808,-1.8998,-1.9054,-1.8982,-1.8599,-1.834,-1.8257,-1.7643,-1.7252,-1.7206,-1.7077,-1.7011,-1.7011,-1.7145,-1.7457,-1.7881,-1.781,-1.7879,-1.8288,-1.844,-1.8827,-1.9517,-1.9777,-2.0123,-2.0673,-2.0508,-2.0637,-2.1067,-2.1369,-2.1616,-2.165,-2.1855,-2.2476,-2.3616,-2.3991,-2.4507,-2.5289,-2.5711,-2.5839,-2.5715,-2.5839,-2.5893,-2.5784,-2.5839,-2.5988,-2.6563,-2.6602,-2.6826,-2.7625,-2.7925,-2.8122,-2.8235,-2.8348,-2.8411,-2.8411,-2.8444,-2.8444,-2.8444,-2.8525,-2.8621,-2.8653,-2.8732,-2.8826,-2.8889,-2.892,-2.8967,-2.9029,-2.9073,-2.9003,-2.8882,-2.9046,-2.9178,-2.8521,-2.8514,-2.8767,-2.8363,-2.8715,-2.9379,-1.6846,-1.6908,-1.6642,-1.6707,-1.6871,-1.7138,-1.7419,-1.7576,-1.8138,-1.8152,-1.7953,-1.8888,-1.9068,-1.8576,-1.8816,-1.8975,-1.9045,-1.8816,-1.8975,-1.945,-1.952,-1.9756,-2.001,-2.0401,-2.0576,-2.0576,-2.0576,-2.0644,-2.0536,-1.9958,-1.9355,-1.8984,-1.8419,-1.8212,-1.8414,-1.8539,-1.8751,-1.8942,-1.9075,-1.9131,-1.911,-1.8889,-1.8537,-1.8019,-1.781,-1.7448,-1.7032,-1.6995,-1.7067,-1.7145,-1.7267,-1.749,-1.7941,-1.8123,-1.8298,-1.8471,-1.8843,-1.9265,-1.9677,-2.0149,-2.0575,-2.0888,-2.0797,-2.0917,-2.1188,-2.1361,-2.152,-2.1616,-2.1855,-2.2281,-2.286,-2.3553,-2.4161,-2.4668,-2.5228,-2.5633,-2.5605,-2.5633,-2.5647,-2.5592,-2.5592,-2.5729,-2.619,-2.6351,-2.6707,-2.7276,-2.7565,-2.7795,-2.8122,-2.8299,-2.8411,-2.8411,-2.8411,-2.8411,-2.8411,-2.8444,-2.8493,-2.8589,-2.8589,-2.8589,-2.8826,-2.8873,-2.8873,-2.8982,-2.8853,-2.8688,-2.8467,-2.8233,-2.8142,-2.7704,-2.7786,-2.8086,-2.7956,-2.8216,-2.8681,-1.6827,-1.6823,-1.643,-1.6501,-1.6777,-1.7145,-1.7196,-1.713,-1.7842,-1.774,-1.7147,-1.7965,-1.8045,-1.7579,-1.8103,-1.8345,-1.8416,-1.8256,-1.8336,-1.8656,-1.9134,-1.945,-1.9678,-2.0245,-2.0576,-2.0576,-2.0576,-2.0566,-2.0469,-1.9697,-1.9277,-1.916,-1.8428,-1.8144,-1.8347,-1.8414,-1.8617,-1.8931,-1.9008,-1.9075,-1.9065,-1.9131,-1.8702,-1.7978,-1.7833,-1.7578,-1.6984,-1.6928,-1.7022,-1.72,-1.7267,-1.7545,-1.8061,-1.8452,-1.8649,-1.8867,-1.9321,-1.9667,-1.9863,-2.0364,-2.0762,-2.0888,-2.0961,-2.1046,-2.118,-2.1375,-2.152,-2.1602,-2.1807,-2.2038,-2.2393,-2.3055,-2.3511,-2.3775,-2.4567,-2.5025,-2.5136,-2.5191,-2.5273,-2.5397,-2.5425,-2.5536,-2.5811,-2.6122,-2.6602,-2.699,-2.7246,-2.7515,-2.8024,-2.825,-2.8348,-2.8348,-2.8396,-2.8411,-2.8411,-2.8411,-2.846,-2.8493,-2.8444,-2.8493,-2.87,-2.8747,-2.8826,-2.8873,-2.8525,-2.8373,-2.8375,-2.7998,-2.7474,-2.7397,-2.7316,-2.725,-2.7202,-2.7519,-2.7833,-1.6807,-1.6384,-1.6531,-1.6683,-1.6979,-1.7239,-1.7157,-1.6908,-1.753,-1.7151,-1.6253,-1.6885,-1.692,-1.6335,-1.7139,-1.7546,-1.7619,-1.7131,-1.7538,-1.8496,-1.8736,-1.9054,-1.9599,-2.0245,-2.0576,-2.0576,-2.0576,-2.0576,-2.0518,-1.9707,-1.9277,-1.9228,-1.8437,-1.8008,-1.8076,-1.8212,-1.8414,-1.8617,-1.8751,-1.8942,-1.9065,-1.9131,-1.8837,-1.834,-1.7936,-1.7552,-1.7221,-1.6973,-1.6864,-1.7011,-1.7211,-1.77,-1.8452,-1.8602,-1.9016,-1.9761,-2.0029,-2.0232,-2.0383,-2.0586,-2.0762,-2.0888,-2.0961,-2.1033,-2.118,-2.1375,-2.152,-2.1602,-2.1712,-2.2014,-2.2442,-2.2691,-2.3036,-2.3557,-2.3685,-2.4006,-2.4354,-2.4585,-2.4832,-2.5149,-2.5244,-2.523,-2.5272,-2.5756,-2.6244,-2.6654,-2.7056,-2.7414,-2.7875,-2.8152,-2.8186,-2.8235,-2.8299,-2.8396,-2.8411,-2.8411,-2.8411,-2.8414,-2.8367,-2.8367,-2.8573,-2.8684,-2.8748,-2.8732,-2.8478,-2.8313,-2.8375,-2.8073,-2.7499,-2.7058,-2.6367,-2.6189,-2.6482,-2.6824,-2.7118,-1.6526,-1.5985,-1.6441,-1.6595,-1.6508,-1.7059,-1.705,-1.669,-1.7032,-1.6766,-1.6066,-1.6413,-1.63,-1.5914,-1.6476,-1.6894,-1.7049,-1.6812,-1.6976,-1.7538,-1.8336,-1.8816,-1.9134,-2.0089,-2.0576,-2.0576,-2.0576,-2.0576,-2.0469,-1.9697,-1.9277,-1.9141,-1.8428,-1.8076,-1.8212,-1.8269,-1.8405,-1.8674,-1.8751,-1.8875,-1.9065,-1.9131,-1.8847,-1.8392,-1.7957,-1.7428,-1.6843,-1.6779,-1.6853,-1.7011,-1.7412,-1.7963,-1.856,-1.9069,-1.9552,-1.9939,-2.0144,-2.0296,-2.0461,-2.0612,-2.0762,-2.0901,-2.0924,-2.0961,-2.1082,-2.1215,-2.1326,-2.1375,-2.1458,-2.1656,-2.1882,-2.2259,-2.2688,-2.2935,-2.3204,-2.3576,-2.4055,-2.4245,-2.4463,-2.4912,-2.5061,-2.5061,-2.5118,-2.5272,-2.5646,-2.6283,-2.6654,-2.7137,-2.769,-2.7989,-2.8103,-2.8186,-2.8235,-2.8299,-2.8411,-2.8411,-2.8381,-2.8242,-2.8182,-2.7921,-2.7938,-2.7749,-2.7713,-2.7742,-2.7737,-2.7537,-2.7296,-2.6919,-2.6535,-2.6364,-2.5686,-2.5766,-2.5877,-2.6348,-2.6504,-1.642,-1.6101,-1.645,-1.6497,-1.6414,-1.6965,-1.6907,-1.6566,-1.6715,-1.644,-1.587,-1.6026,-1.597,-1.5771,-1.6147,-1.6402,-1.6566,-1.6656,-1.673,-1.6812,-1.7861,-1.8505,-1.8816,-1.9766,-2.0401,-2.0566,-2.0576,-2.0576,-2.0469,-1.9707,-1.9297,-1.9228,-1.8437,-1.8076,-1.8202,-1.8202,-1.8337,-1.8607,-1.8674,-1.8808,-1.9065,-1.9131,-1.8858,-1.8423,-1.8092,-1.7563,-1.6785,-1.6722,-1.6864,-1.7067,-1.7567,-1.8127,-1.8762,-1.9436,-1.9862,-1.9978,-2.0144,-2.0296,-2.0461,-2.0612,-2.0775,-2.0901,-2.0901,-2.0924,-2.0983,-2.1082,-2.1144,-2.118,-2.1229,-2.1277,-2.1358,-2.174,-2.2056,-2.216,-2.2451,-2.2837,-2.3458,-2.3716,-2.4191,-2.4815,-2.5005,-2.5005,-2.5005,-2.5005,-2.5425,-2.6229,-2.6404,-2.6774,-2.7575,-2.784,-2.7955,-2.8103,-2.8186,-2.8284,-2.8348,-2.8396,-2.8104,-2.7934,-2.7812,-2.752,-2.7147,-2.6891,-2.6741,-2.6738,-2.6619,-2.6398,-2.6061,-2.5734,-2.5609,-2.561,-2.5637,-2.5733,-2.5844,-2.5934,-2.6175,-1.652,-1.6337,-1.6565,-1.6649,-1.6602,-1.6878,-1.6798,-1.6557,-1.6711,-1.6316,-1.5635,-1.5767,-1.5771,-1.5793,-1.5914,-1.6245,-1.6402,-1.6566,-1.6648,-1.6812,-1.7456,-1.8095,-1.8736,-1.9362,-2.0001,-2.0566,-2.0576,-2.0547,-2.0449,-1.9697,-1.9277,-1.9111,-1.8408,-1.8008,-1.8008,-1.8076,-1.8144,-1.8482,-1.8549,-1.8751,-1.9075,-1.9131,-1.8878,-1.8485,-1.8361,-1.7926,-1.7077,-1.6796,-1.685,-1.72,-1.7534,-1.817,-1.9081,-1.9592,-1.9862,-1.9978,-2.0131,-2.0296,-2.0461,-2.0612,-2.0762,-2.0838,-2.0901,-2.0938,-2.0947,-2.0997,-2.0997,-2.1033,-2.1099,-2.1099,-2.1162,-2.1229,-2.1327,-2.1353,-2.1578,-2.1835,-2.2336,-2.2891,-2.3649,-2.4623,-2.4951,-2.5005,-2.5005,-2.5005,-2.5384,-2.6122,-2.639,-2.6654,-2.7524,-2.779,-2.7855,-2.7955,-2.8103,-2.8201,-2.8299,-2.835,-2.7919,-2.7565,-2.7411,-2.7134,-2.6652,-2.6346,-2.624,-2.6246,-2.6314,-2.605,-2.5926,-2.5605,-2.5561,-2.5578,-2.5621,-2.5717,-2.5844,-2.5934,-2.6043,-1.6233,-1.5979,-1.6266,-1.6497,-1.6588,-1.6885,-1.6914,-1.6696,-1.6683,-1.6235,-1.5804,-1.5635,-1.5511,-1.5529,-1.5748,-1.5997,-1.6245,-1.6402,-1.6566,-1.6812,-1.7375,-1.8023,-1.8736,-1.9283,-1.9923,-2.0489,-2.0576,-2.04,-2.0068,-1.9541,-1.915,-1.8779,-1.8291,-1.8027,-1.8008,-1.8008,-1.8144,-1.8482,-1.8482,-1.8674,-1.9065,-1.9131,-1.9048,-1.8847,-1.8547,-1.8102,-1.7543,-1.7245,-1.7137,-1.7222,-1.7799,-1.859,-1.9436,-1.9747,-1.9798,-1.9875,-2.0067,-2.0233,-2.0283,-2.0549,-2.0712,-2.0762,-2.0762,-2.0762,-2.0812,-2.0861,-2.0974,-2.105,-2.1429,-2.1797,-2.1884,-2.1884,-2.1619,-2.1171,-2.1131,-2.1372,-2.2025,-2.291,-2.3648,-2.4175,-2.4579,-2.4865,-2.4948,-2.5005,-2.5384,-2.6176,-2.6336,-2.6654,-2.7393,-2.76,-2.774,-2.7855,-2.8005,-2.7905,-2.7865,-2.7622,-2.7194,-2.6842,-2.6673,-2.6531,-2.6091,-2.5773,-2.5723,-2.5753,-2.5819,-2.579,-2.5648,-2.5573,-2.5512,-2.554,-2.56,-2.5733,-2.586,-2.597,-2.6043,-1.6359,-1.6005,-1.619,-1.6408,-1.6595,-1.6784,-1.6814,-1.6682,-1.6462,-1.6133,-1.5745,-1.5526,-1.5431,-1.5423,-1.5575,-1.5831,-1.5989,-1.6229,-1.6476,-1.6648,-1.7057,-1.7781,-1.8736,-1.9608,-2.0167,-2.045,-2.04,-2.0185,-1.9893,-1.9326,-1.8896,-1.8613,-1.8213,-1.8008,-1.8008,-1.8076,-1.8279,-1.8482,-1.8549,-1.8741,-1.9008,-1.9131,-1.9131,-1.909,-1.8851,-1.833,-1.7781,-1.7561,-1.7408,-1.7545,-1.8224,-1.9081,-1.9759,-1.9798,-1.9811,-1.9914,-2.0029,-2.0195,-2.0296,-2.0498,-2.0662,-2.0712,-2.0699,-2.0699,-2.0699,-2.0775,-2.0861,-2.0964,-2.1226,-2.1643,-2.1666,-2.1716,-2.1442,-2.0951,-2.1033,-2.1312,-2.1885,-2.2551,-2.3285,-2.37,-2.424,-2.4565,-2.4824,-2.5005,-2.5384,-2.6068,-2.6283,-2.6442,-2.7054,-2.72,-2.724,-2.7188,-2.7046,-2.7066,-2.7172,-2.6885,-2.6443,-2.6153,-2.5846,-2.5682,-2.5373,-2.5134,-2.5023,-2.5257,-2.5377,-2.5489,-2.5422,-2.5413,-2.5394,-2.5508,-2.56,-2.5733,-2.5844,-2.5917,-2.6026,-1.6754,-1.6279,-1.6246,-1.6347,-1.6508,-1.6588,-1.6551,-1.6484,-1.6382,-1.6052,-1.5584,-1.546,-1.5431,-1.5423,-1.5582,-1.5658,-1.5816,-1.6154,-1.6394,-1.6484,-1.673,-1.7375,-1.8576,-1.9766,-2.0323,-2.0353,-2.0156,-1.9912,-1.9775,-1.9072,-1.8613,-1.8516,-1.8193,-1.8008,-1.8076,-1.8212,-1.8337,-1.8549,-1.8674,-1.8875,-1.9065,-1.9131,-1.909,-1.9069,-1.8996,-1.8516,-1.775,-1.7603,-1.7685,-1.7901,-1.8869,-1.9621,-1.9885,-1.9899,-2.0076,-2.0218,-2.0091,-2.0258,-2.0437,-2.0487,-2.0511,-2.0649,-2.0649,-2.0699,-2.0712,-2.0699,-2.0762,-2.0762,-2.088,-2.0919,-2.0983,-2.0996,-2.0957,-2.0841,-2.1,-2.1362,-2.1752,-2.1978,-2.2618,-2.3432,-2.3781,-2.4133,-2.4727,-2.4894,-2.5343,-2.6,-2.6226,-2.6315,-2.6579,-2.6666,-2.6402,-2.6283,-2.6255,-2.6238,-2.6341,-2.6029,-2.5621,-2.5425,-2.5105,-2.4925,-2.488,-2.4786,-2.4751,-2.4989,-2.5107,-2.5224,-2.5301,-2.5339,-2.5432,-2.5562,-2.5675,-2.5754,-2.5828,-2.5917,-2.6026,-1.6286,-1.5952,-1.5945,-1.6096,-1.6319,-1.6494,-1.6557,-1.6447,-1.6373,-1.6133,-1.5782,-1.5533,-1.5431,-1.5431,-1.5423,-1.5582,-1.5741,-1.5997,-1.6237,-1.6402,-1.6648,-1.7131,-1.8095,-1.9283,-1.9913,-1.9847,-1.985,-1.9756,-1.9434,-1.8877,-1.8477,-1.8184,-1.8096,-1.8066,-1.8202,-1.8269,-1.8472,-1.8674,-1.8741,-1.8875,-1.9065,-1.9131,-1.8889,-1.8589,-1.8589,-1.8143,-1.7355,-1.7503,-1.8,-1.8622,-1.9443,-2.0316,-2.0811,-2.0928,-2.0945,-2.092,-2.0813,-2.0688,-2.0717,-2.0502,-2.0386,-2.0511,-2.0575,-2.0612,-2.0699,-2.0699,-2.0762,-2.0891,-2.1167,-2.1442,-2.1493,-2.1517,-2.148,-2.1429,-2.1149,-2.108,-2.1385,-2.202,-2.2724,-2.3165,-2.3608,-2.4107,-2.4527,-2.4611,-2.4847,-2.5774,-2.5921,-2.5813,-2.611,-2.5986,-2.5674,-2.564,-2.5577,-2.55,-2.5381,-2.5058,-2.4791,-2.4687,-2.4461,-2.4255,-2.4467,-2.4733,-2.4871,-2.5068,-2.5107,-2.5224,-2.5301,-2.5378,-2.547,-2.5616,-2.5712,-2.5791,-2.5881,-2.5954,-2.6043,-1.6099,-1.5825,-1.5825,-1.5933,-1.6224,-1.6494,-1.6436,-1.6328,-1.6366,-1.6111,-1.5745,-1.5526,-1.5438,-1.5431,-1.5431,-1.5506,-1.5582,-1.5922,-1.617,-1.6327,-1.6566,-1.7049,-1.7853,-1.8966,-1.9515,-1.9388,-1.9553,-1.935,-1.9004,-1.8584,-1.8252,-1.8066,-1.8076,-1.8202,-1.8259,-1.8472,-1.8617,-1.8808,-1.8875,-1.9008,-1.9075,-1.9131,-1.8806,-1.8526,-1.8526,-1.8309,-1.7759,-1.7854,-1.8216,-1.8652,-1.9389,-2.0143,-2.0698,-2.1029,-2.1129,-2.1129,-2.115,-2.1138,-2.1145,-2.0767,-2.0578,-2.0669,-2.0655,-2.0524,-2.0599,-2.0649,-2.0762,-2.0814,-2.1141,-2.1259,-2.1336,-2.1387,-2.135,-2.1207,-2.1073,-2.1099,-2.1508,-2.2074,-2.2538,-2.283,-2.3044,-2.338,-2.4081,-2.3879,-2.442,-2.5163,-2.5194,-2.5337,-2.5629,-2.5224,-2.4875,-2.4675,-2.4479,-2.4285,-2.4133,-2.3873,-2.3846,-2.3745,-2.4103,-2.3855,-2.4162,-2.463,-2.4966,-2.5123,-2.5146,-2.5224,-2.5339,-2.547,-2.5508,-2.5637,-2.5733,-2.5807,-2.5881,-2.6007,-2.6079,-1.6072,-1.5825,-1.5825,-1.5927,-1.6123,-1.648,-1.6338,-1.6017,-1.6205,-1.6023,-1.5548,-1.5438,-1.5431,-1.5431,-1.5431,-1.5423,-1.5506,-1.5922,-1.6087,-1.6327,-1.6558,-1.6944,-1.7485,-1.8673,-1.9086,-1.8935,-1.9094,-1.8981,-1.8682,-1.8262,-1.8047,-1.8008,-1.8144,-1.8279,-1.8337,-1.8607,-1.8741,-1.8875,-1.9008,-1.9003,-1.8982,-1.8982,-1.8785,-1.833,-1.8371,-1.8435,-1.8206,-1.8213,-1.8306,-1.8262,-1.9059,-1.9768,-2.0147,-2.0677,-2.102,-2.1154,-2.1468,-2.1637,-2.166,-2.1255,-2.0993,-2.1077,-2.0798,-2.0564,-2.0641,-2.069,-2.0699,-2.0699,-2.0699,-2.083,-2.0935,-2.083,-2.0935,-2.1053,-2.1101,-2.1508,-2.2207,-2.2219,-2.2125,-2.2604,-2.2309,-2.2427,-2.2788,-2.3109,-2.3455,-2.4448,-2.445,-2.4412,-2.451,-2.4232,-2.3812,-2.3416,-2.3194,-2.2913,-2.2793,-2.2718,-2.2761,-2.2853,-2.357,-2.3782,-2.412,-2.4549,-2.4966,-2.5201,-2.524,-2.5355,-2.5486,-2.5562,-2.56,-2.5637,-2.5733,-2.5807,-2.5934,-2.6043,-2.6168,-1.5695,-1.5825,-1.5825,-1.5832,-1.5927,-1.6109,-1.6054,-1.5761,-1.6027,-1.585,-1.5456,-1.5431,-1.5431,-1.5431,-1.5431,-1.5506,-1.5658,-1.5997,-1.6252,-1.6574,-1.6648,-1.6555,-1.6853,-1.7874,-1.8288,-1.8257,-1.8594,-1.8669,-1.8535,-1.8223,-1.8008,-1.8008,-1.8076,-1.8212,-1.8414,-1.8539,-1.8741,-1.8998,-1.9054,-1.8837,-1.8651,-1.8847,-1.8671,-1.8019,-1.7719,-1.7664,-1.7862,-1.7864,-1.8248,-1.8998,-1.9636,-2.0355,-2.1182,-2.1688,-2.1995,-2.2234,-2.2171,-2.2146,-2.2046,-2.1713,-2.1428,-2.153,-2.1166,-2.1017,-2.1095,-2.0833,-2.0738,-2.0699,-2.0699,-2.0869,-2.1093,-2.0922,-2.1079,-2.1472,-2.155,-2.1693,-2.2326,-2.2245,-2.2097,-2.211,-2.2121,-2.2253,-2.2671,-2.231,-2.2769,-2.3589,-2.3649,-2.3414,-2.3311,-2.3277,-2.3008,-2.2678,-2.254,-2.2402,-2.2402,-2.2402,-2.2449,-2.2555,-2.3157,-2.3739,-2.4078,-2.4508,-2.495,-2.5201,-2.5317,-2.5448,-2.5578,-2.5616,-2.5616,-2.5675,-2.5733,-2.5844,-2.5954,-2.6079,-2.6203,-1.5635,-1.5825,-1.5825,-1.5825,-1.5832,-1.6109,-1.5961,-1.5735,-1.5931,-1.5763,-1.5442,-1.5431,-1.5431,-1.5431,-1.5431,-1.5499,-1.5733,-1.6072,-1.6402,-1.6609,-1.6579,-1.6541,-1.6702,-1.709,-1.7437,-1.7525,-1.8231,-1.8494,-1.832,-1.8144,-1.8008,-1.8008,-1.8076,-1.8202,-1.8414,-1.8529,-1.8609,-1.8633,-1.8744,-1.8526,-1.8216,-1.8485,-1.862,-1.805,-1.7616,-1.7478,-1.7708,-1.7932,-1.8483,-1.9137,-1.979,-2.0572,-2.1502,-2.1998,-2.2355,-2.2623,-2.2811,-2.2686,-2.2585,-2.2209,-2.1927,-2.1945,-2.1386,-2.1179,-2.1094,-2.0836,-2.0651,-2.0699,-2.0725,-2.0856,-2.1054,-2.0897,-2.1144,-2.1328,-2.1405,-2.1417,-2.168,-2.186,-2.1963,-2.1832,-2.1723,-2.1709,-2.1712,-2.1648,-2.1974,-2.2733,-2.2768,-2.254,-2.2965,-2.2875,-2.255,-2.2263,-2.217,-2.2137,-2.2137,-2.2184,-2.2417,-2.2601,-2.2994,-2.3523,-2.3967,-2.4451,-2.4989,-2.5201,-2.5355,-2.5448,-2.554,-2.5578,-2.5654,-2.5675,-2.5749,-2.5844,-2.5954,-2.6079,-2.6168,-1.5547,-1.5825,-1.5825,-1.5825,-1.5818,-1.5967,-1.5906,-1.57,-1.5786,-1.5605,-1.5435,-1.5431,-1.5431,-1.5431,-1.5431,-1.5506,-1.5824,-1.6221,-1.6542,-1.649,-1.6373,-1.645,-1.674,-1.6836,-1.6945,-1.6965,-1.7925,-1.8241,-1.8115,-1.8008,-1.8008,-1.8008,-1.8144,-1.8269,-1.8337,-1.8496,-1.8446,-1.8236,-1.8276,-1.8071,-1.7771,-1.804,-1.8216,-1.8112,-1.7729,-1.7563,-1.7672,-1.7899,-1.8392,-1.9067,-1.9575,-2.0237,-2.1027,-2.1753,-2.2222,-2.2401,-2.2827,-2.3025,-2.2937,-2.2585,-2.2259,-2.2259,-2.1428,-2.1034,-2.0936,-2.0785,-2.0627,-2.0612,-2.0675,-2.0777,-2.083,-2.0764,-2.0791,-2.0882,-2.0843,-2.0699,-2.0828,-2.1334,-2.157,-2.1621,-2.1382,-2.1252,-2.1173,-2.1133,-2.1446,-2.1766,-2.1751,-2.1856,-2.2242,-2.2422,-2.2088,-2.203,-2.1949,-2.2091,-2.2091,-2.2137,-2.2324,-2.2509,-2.2859,-2.326,-2.3797,-2.4302,-2.4806,-2.5178,-2.5371,-2.5464,-2.5562,-2.5621,-2.5659,-2.5675,-2.5787,-2.5917,-2.599,-2.6079,-2.6151,-1.5458,-1.5825,-1.5825,-1.5825,-1.5792,-1.5578,-1.5552,-1.5555,-1.5406,-1.534,-1.5384,-1.5431,-1.5431,-1.5431,-1.5431,-1.5597,-1.6004,-1.6402,-1.6498,-1.6373,-1.6174,-1.6264,-1.6404,-1.6598,-1.6857,-1.7265,-1.786,-1.8096,-1.8037,-1.8008,-1.8008,-1.8008,-1.8076,-1.8144,-1.8131,-1.8141,-1.8106,-1.7877,-1.7842,-1.7544,-1.7296,-1.7513,-1.7771,-1.7802,-1.744,-1.7342,-1.7482,-1.7391,-1.766,-1.8507,-1.9,-1.97,-2.0526,-2.1452,-2.2117,-2.2558,-2.2815,-2.2912,-2.2874,-2.2573,-2.2347,-2.2071,-2.1415,-2.0967,-2.0883,-2.0682,-2.0513,-2.0562,-2.0701,-2.0869,-2.1302,-2.0961,-2.0987,-2.1054,-2.0961,-2.0699,-2.0725,-2.0867,-2.1036,-2.1036,-2.0954,-2.0875,-2.0861,-2.0861,-2.1156,-2.1389,-2.1426,-2.1533,-2.1753,-2.187,-2.1732,-2.1712,-2.1759,-2.1949,-2.2137,-2.2184,-2.2263,-2.2417,-2.2678,-2.3038,-2.3523,-2.4109,-2.458,-2.51,-2.5371,-2.5524,-2.5584,-2.568,-2.5717,-2.5733,-2.5881,-2.6026,-2.6063,-2.6151,-2.6293,-1.5363,-1.5825,-1.5825,-1.5825,-1.5778,-1.5518,-1.5497,-1.5548,-1.5329,-1.5291,-1.542,-1.5431,-1.5431,-1.5431,-1.5431,-1.568,-1.6087,-1.6484,-1.6532,-1.6246,-1.607,-1.6125,-1.6302,-1.6553,-1.7003,-1.7489,-1.7872,-1.8008,-1.8008,-1.8008,-1.8008,-1.8008,-1.8008,-1.7978,-1.7829,-1.7744,-1.755,-1.7375,-1.7226,-1.703,-1.6601,-1.702,-1.7225,-1.7234,-1.716,-1.7061,-1.6937,-1.709,-1.738,-1.8035,-1.8547,-1.9297,-2.0111,-2.08,-2.1464,-2.2002,-2.2251,-2.2297,-2.2297,-2.2008,-2.1882,-2.1794,-2.1159,-2.0901,-2.0818,-2.0591,-2.0373,-2.0511,-2.0612,-2.0804,-2.0989,-2.0856,-2.0882,-2.0987,-2.0869,-2.0738,-2.0699,-2.0699,-2.0699,-2.0699,-2.0749,-2.0762,-2.0762,-2.0812,-2.0911,-2.101,-2.1144,-2.1277,-2.1361,-2.141,-2.1471,-2.1664,-2.1793,-2.1996,-2.2184,-2.217,-2.2217,-2.237,-2.254,-2.2904,-2.3377,-2.4009,-2.4605,-2.5178,-2.5371,-2.5562,-2.5659,-2.5754,-2.5791,-2.5828,-2.5954,-2.6079,-2.6134,-2.6206,-2.6364,-1.5363,-1.5737,-1.573,-1.5825,-1.5772,-1.5451,-1.5443,-1.5534,-1.5345,-1.5234,-1.5369,-1.5431,-1.5431,-1.5514,-1.5597,-1.5763,-1.617,-1.6492,-1.6403,-1.6079,-1.5902,-1.6071,-1.6416,-1.6581,-1.6881,-1.7813,-1.794,-1.8008,-1.8008,-1.8008,-1.8008,-1.8008,-1.8008,-1.7803,-1.7556,-1.7461,-1.7053,-1.6738,-1.6546,-1.644,-1.6366,-1.6519,-1.6783,-1.6853,-1.6912,-1.6726,-1.6555,-1.6701,-1.7011,-1.7498,-1.7995,-1.8611,-1.9402,-1.9828,-2.0294,-2.0847,-2.1176,-2.1356,-2.1493,-2.1244,-2.1206,-2.1292,-2.0857,-2.0724,-2.0665,-2.0399,-2.0195,-2.0461,-2.0562,-2.0662,-2.0791,-2.0712,-2.0712,-2.0725,-2.0738,-2.0699,-2.0699,-2.0699,-2.0699,-2.0699,-2.0699,-2.0699,-2.0712,-2.0848,-2.0961,-2.1046,-2.1131,-2.1277,-2.1375,-2.141,-2.1458,-2.1746,-2.1935,-2.2077,-2.217,-2.217,-2.2263,-2.237,-2.2555,-2.2814,-2.3348,-2.3909,-2.4508,-2.5084,-2.541,-2.5546,-2.568,-2.5828,-2.5864,-2.5937,-2.6079,-2.6151,-2.6206,-2.6277,-2.6399,-1.5267,-1.554,-1.573,-1.5825,-1.5745,-1.544,-1.5445,-1.5499,-1.5241,-1.5223,-1.5431,-1.5431,-1.5499,-1.5658,-1.5831,-1.6004,-1.6162,-1.6242,-1.6188,-1.5856,-1.5742,-1.5881,-1.6342,-1.636,-1.6941,-1.7862,-1.8008,-1.8008,-1.8008,-1.8008,-1.8008,-1.8008,-1.7939,-1.7783,-1.7305,-1.7091,-1.6802,-1.6377,-1.6234,-1.6253,-1.6347,-1.6456,-1.6498,-1.6498,-1.6487,-1.6477,-1.6394,-1.6498,-1.6623,-1.6681,-1.7137,-1.7498,-1.7857,-1.8288,-1.8627,-1.9226,-2.0036,-2.1063,-2.1126,-2.0692,-2.0469,-2.0611,-2.0406,-2.0155,-2.0181,-2.0322,-2.0334,-2.0612,-2.0612,-2.0612,-2.0699,-2.0699,-2.0699,-2.0699,-2.0699,-2.0699,-2.0699,-2.0699,-2.0699,-2.0699,-2.0699,-2.0699,-2.0712,-2.0848,-2.0997,-2.1082,-2.118,-2.1326,-2.1423,-2.1471,-2.1506,-2.1746,-2.1983,-2.2123,-2.2217,-2.2217,-2.2356,-2.2463,-2.2646,-2.2904,-2.348,-2.4036,-2.4328,-2.4831,-2.5224,-2.5546,-2.5642,-2.5754,-2.5901,-2.6026,-2.6132,-2.6222,-2.6277,-2.6382,-2.6468,-1.5267,-1.5534,-1.573,-1.5825,-1.5752,-1.5399,-1.5411,-1.5532,-1.5284,-1.5257,-1.5347,-1.5431,-1.5423,-1.559,-1.5748,-1.5914,-1.6041,-1.6133,-1.6023,-1.5697,-1.5543,-1.5708,-1.6166,-1.6376,-1.6941,-1.7725,-1.8008,-1.8008,-1.8008,-1.8008,-1.8008,-1.7959,-1.7764,-1.7422,-1.7021,-1.6645,-1.6325,-1.6068,-1.6004,-1.6144,-1.6316,-1.6306,-1.6306,-1.6384,-1.6374,-1.6374,-1.6374,-1.6374,-1.6374,-1.6431,-1.6705,-1.6987,-1.7423,-1.7755,-1.803,-1.8661,-1.8869,-1.9447,-1.9981,-1.9756,-1.9867,-2.0057,-2.0026,-1.9964,-2.0042,-2.0246,-2.0448,-2.0562,-2.0612,-2.0662,-2.0649,-2.0699,-2.0699,-2.0699,-2.0699,-2.0699,-2.0699,-2.0699,-2.0699,-2.0699,-2.0699,-2.0712,-2.0762,-2.0861,-2.101,-2.1095,-2.118,-2.1264,-2.1471,-2.1568,-2.165,-2.1746,-2.1983,-2.217,-2.2231,-2.2278,-2.2495,-2.2646,-2.2949,-2.326,-2.3782,-2.4219,-2.443,-2.4768,-2.5246,-2.5476,-2.5551,-2.5754,-2.599,-2.6079,-2.6168,-2.6258,-2.6364,-2.6434,-2.6503,-1.5172,-1.5452,-1.5737,-1.5792,-1.5772,-1.5534,-1.5438,-1.5563,-1.5326,-1.5257,-1.5423,-1.5431,-1.5431,-1.5394,-1.5569,-1.574,-1.5919,-1.5782,-1.567,-1.5486,-1.5434,-1.564,-1.6069,-1.6376,-1.6872,-1.8008,-1.8008,-1.8008,-1.8008,-1.7988,-1.7959,-1.7852,-1.7568,-1.71,-1.6621,-1.6331,-1.6038,-1.582,-1.5924,-1.6077,-1.6249,-1.6239,-1.6306,-1.6363,-1.6374,-1.6374,-1.6374,-1.6374,-1.6374,-1.6431,-1.6477,-1.6818,-1.7134,-1.7357,-1.7567,-1.7963,-1.8045,-1.8374,-1.8917,-1.9112,-1.9291,-1.95,-1.9708,-1.9772,-1.9978,-2.0283,-2.0549,-2.0562,-2.0562,-2.0662,-2.0712,-2.0699,-2.0699,-2.0699,-2.0699,-2.0699,-2.0699,-2.0699,-2.0699,-2.0699,-2.0712,-2.0825,-2.0825,-2.0875,-2.0974,-2.1046,-2.118,-2.1264,-2.1458,-2.1664,-2.1759,-2.1841,-2.203,-2.217,-2.2231,-2.2324,-2.254,-2.2814,-2.3127,-2.348,-2.3925,-2.4164,-2.4333,-2.4752,-2.5221,-2.5433,-2.5603,-2.5815,-2.6079,-2.6115,-2.6203,-2.631,-2.6415,-2.6485,-2.6589,-1.5083,-1.5178,-1.5635,-1.5765,-1.5701,-1.5625,-1.5585,-1.5518,-1.5416,-1.5354,-1.5431,-1.5582,-1.5499,-1.544,-1.5398,-1.5499,-1.5622,-1.5263,-1.5265,-1.5265,-1.5231,-1.5574,-1.5998,-1.6385,-1.6802,-1.7803,-1.8008,-1.8008,-1.8008,-1.8008,-1.7783,-1.7451,-1.7314,-1.6816,-1.6367,-1.6035,-1.592,-1.579,-1.5894,-1.6009,-1.6181,-1.6249,-1.6374,-1.6374,-1.6374,-1.6374,-1.6374,-1.6374,-1.6374,-1.6431,-1.6477,-1.6581,-1.6797,-1.6965,-1.7234,-1.729,-1.7479,-1.781,-1.8344,-1.8602,-1.8869,-1.9133,-1.9344,-1.95,-1.9708,-1.9708,-1.9978,-2.0498,-2.0511,-2.0612,-2.0662,-2.0699,-2.0699,-2.0699,-2.0699,-2.0699,-2.0699,-2.0699,-2.0699,-2.0712,-2.0762,-2.0825,-2.0875,-2.0961,-2.101,-2.1144,-2.1229,-2.1361,-2.1471,-2.1664,-2.1807,-2.1949,-2.2091,-2.2184,-2.2231,-2.237,-2.2601,-2.2859,-2.3127,-2.3538,-2.3982,-2.4158,-2.4382,-2.4728,-2.5195,-2.5427,-2.5648,-2.5888,-2.6079,-2.6151,-2.6239,-2.631,-2.645,-2.6572,-2.6674,-1.5083,-1.5166,-1.5457,-1.5591,-1.5654,-1.5611,-1.5571,-1.5526,-1.5401,-1.5431,-1.5431,-1.5506,-1.5506,-1.5418,-1.5338,-1.5408,-1.5499,-1.5142,-1.5039,-1.5067,-1.5113,-1.5281,-1.57,-1.6245,-1.6724,-1.7442,-1.7794,-1.8008,-1.8008,-1.8008,-1.7529,-1.7207,-1.7031,-1.6631,-1.6191,-1.587,-1.5713,-1.5761,-1.5788,-1.5894,-1.6124,-1.6181,-1.6249,-1.6384,-1.6374,-1.6374,-1.6374,-1.6374,-1.6374,-1.6431,-1.6477,-1.6524,-1.657,-1.6797,-1.6909,-1.7011,-1.7145,-1.7479,-1.781,-1.8073,-1.8387,-1.8774,-1.8987,-1.9146,-1.9344,-1.946,-1.9759,-2.0182,-2.0461,-2.0562,-2.0662,-2.0699,-2.0699,-2.0699,-2.0699,-2.0699,-2.0699,-2.0699,-2.0699,-2.0699,-2.0762,-2.0812,-2.0911,-2.0997,-2.1095,-2.118,-2.1326,-2.141,-2.1554,-2.1664,-2.1807,-2.1949,-2.2091,-2.2184,-2.2184,-2.237,-2.2601,-2.2859,-2.3127,-2.3566,-2.4009,-2.4338,-2.4594,-2.4909,-2.5169,-2.5308,-2.5595,-2.5941,-2.6115,-2.6206,-2.6222,-2.6274,-2.6434,-2.6572,-2.6725,-1.5083,-1.5146,-1.5338,-1.5436,-1.5602,-1.5479,-1.535,-1.5412,-1.5358,-1.534,-1.5431,-1.5431,-1.5431,-1.5335,-1.5168,-1.5158,-1.5207,-1.5026,-1.495,-1.4885,-1.4848,-1.5078,-1.5621,-1.6175,-1.6724,-1.7304,-1.7725,-1.8008,-1.8008,-1.8008,-1.751,-1.7002,-1.6689,-1.6416,-1.5879,-1.5664,-1.5546,-1.5604,-1.574,-1.5798,-1.6009,-1.6056,-1.6114,-1.6306,-1.6363,-1.6374,-1.6374,-1.6374,-1.6374,-1.6374,-1.6431,-1.6431,-1.6534,-1.6694,-1.6797,-1.6965,-1.7078,-1.7267,-1.7479,-1.7755,-1.8073,-1.8333,-1.8441,-1.8655,-1.8934,-1.9251,-1.9552,-2.0067,-2.0398,-2.0612,-2.0662,-2.0649,-2.0699,-2.0699,-2.0699,-2.0699,-2.0699,-2.0699,-2.0699,-2.0699,-2.0749,-2.0812,-2.0947,-2.1082,-2.1193,-2.1277,-2.1313,-2.1458,-2.1554,-2.165,-2.1807,-2.1949,-2.2091,-2.2137,-2.2217,-2.2417,-2.2601,-2.2768,-2.3068,-2.361,-2.4036,-2.4348,-2.4697,-2.4996,-2.5185,-2.5276,-2.5481,-2.573,-2.6005,-2.6227,-2.6295,-2.6399,-2.6468,-2.6623,-2.6759,-1.507,-1.5146,-1.5312,-1.5302,-1.5218,-1.5027,-1.4991,-1.5168,-1.5187,-1.5257,-1.5347,-1.5431,-1.5409,-1.5321,-1.508,-1.5031,-1.4949,-1.4758,-1.4688,-1.4672,-1.4689,-1.5275,-1.5824,-1.6306,-1.6802,-1.7716,-1.8008,-1.8008,-1.8008,-1.791,-1.7432,-1.6885,-1.648,-1.6211,-1.5498,-1.5624,-1.5604,-1.5468,-1.573,-1.5798,-1.5856,-1.5951,-1.6066,-1.6124,-1.6249,-1.6316,-1.6306,-1.6306,-1.6316,-1.6374,-1.6374,-1.6431,-1.642,-1.6581,-1.6684,-1.6807,-1.6965,-1.7234,-1.7733,-1.7843,-1.7909,-1.7963,-1.8061,-1.8278,-1.8697,-1.9028,-1.9344,-1.9965,-2.0398,-2.0549,-2.0599,-2.0547,-2.0557,-2.0646,-2.0633,-2.0463,-2.0388,-2.0502,-2.045,-2.0502,-2.0733,-2.0924,-2.1046,-2.118,-2.1326,-2.1375,-2.1361,-2.1458,-2.1554,-2.165,-2.1793,-2.1949,-2.2044,-2.2123,-2.2217,-2.2463,-2.2646,-2.2768,-2.3068,-2.3551,-2.3914,-2.4147,-2.454,-2.4971,-2.4965,-2.483,-2.5127,-2.5452,-2.5808,-2.6198,-2.6436,-2.6555,-2.6589,-2.6657,-2.6792,-1.4803,-1.4759,-1.4753,-1.4763,-1.4751,-1.4838,-1.4963,-1.5125,-1.5264,-1.5347,-1.5431,-1.5431,-1.5284,-1.5065,-1.5026,-1.4854,-1.4729,-1.4688,-1.4609,-1.4593,-1.4569,-1.5062,-1.5692,-1.6237,-1.6733,-1.7373,-1.7725,-1.8008,-1.8008,-1.7832,-1.7344,-1.6787,-1.6221,-1.5723,-1.5488,-1.5478,-1.542,-1.541,-1.5546,-1.5604,-1.5672,-1.5788,-1.5904,-1.5972,-1.6029,-1.6144,-1.6181,-1.6249,-1.6249,-1.6374,-1.6374,-1.6374,-1.6431,-1.6534,-1.6637,-1.6694,-1.6797,-1.6965,-1.729,-1.7357,-1.749,-1.759,-1.7744,-1.8007,-1.8321,-1.8857,-1.9331,-1.9759,-2.0182,-2.0347,-2.0511,-2.0096,-2.0041,-2.0335,-2.0283,-1.9917,-1.9764,-1.9956,-2.0035,-2.0152,-2.0381,-2.0739,-2.0953,-2.1153,-2.1326,-2.1423,-2.1423,-2.141,-2.1458,-2.165,-2.1793,-2.1888,-2.1983,-2.2123,-2.2263,-2.2463,-2.2569,-2.2692,-2.3038,-2.3508,-2.3827,-2.4024,-2.4241,-2.4605,-2.4487,-2.4384,-2.454,-2.486,-2.5662,-2.6151,-2.6421,-2.659,-2.6623,-2.6691,-2.6876,-1.4425,-1.446,-1.4369,-1.4435,-1.4509,-1.4595,-1.4675,-1.4936,-1.5173,-1.5347,-1.5347,-1.534,-1.5255,-1.5043,-1.5016,-1.4858,-1.4651,-1.4657,-1.4617,-1.4601,-1.4569,-1.4999,-1.5488,-1.6035,-1.6664,-1.7235,-1.7725,-1.8008,-1.8008,-1.7744,-1.7295,-1.667,-1.5869,-1.5557,-1.542,-1.542,-1.542,-1.542,-1.5478,-1.5468,-1.5604,-1.5672,-1.574,-1.5856,-1.5914,-1.5972,-1.6066,-1.6124,-1.6181,-1.6306,-1.6374,-1.6374,-1.6431,-1.6477,-1.6581,-1.6637,-1.6694,-1.6853,-1.7011,-1.7123,-1.7256,-1.7334,-1.759,-1.7799,-1.8104,-1.8643,-1.9069,-1.95,-1.9926,-2.0144,-2.0219,-1.9793,-1.9801,-2.0106,-1.9999,-1.9599,-1.9804,-2.0022,-1.9812,-1.993,-1.9961,-2.032,-2.082,-2.1113,-2.1326,-2.1375,-2.1471,-2.1471,-2.1458,-2.165,-2.1799,-2.1852,-2.1941,-2.2109,-2.2249,-2.2463,-2.2555,-2.2615,-2.3038,-2.3551,-2.367,-2.3871,-2.4038,-2.4058,-2.3726,-2.3533,-2.3769,-2.4199,-2.523,-2.5967,-2.6421,-2.6539,-2.6607,-2.6775,-2.6909,-1.4044,-1.4167,-1.4184,-1.4315,-1.4456,-1.4307,-1.425,-1.4482,-1.509,-1.5257,-1.509,-1.5318,-1.5174,-1.494,-1.5085,-1.4917,-1.4659,-1.4692,-1.466,-1.4632,-1.4569,-1.4999,-1.5497,-1.6044,-1.6594,-1.7157,-1.7638,-1.7969,-1.7969,-1.7539,-1.7139,-1.6602,-1.5771,-1.5488,-1.542,-1.542,-1.542,-1.542,-1.542,-1.541,-1.5488,-1.5604,-1.5614,-1.5672,-1.5788,-1.5894,-1.5951,-1.6066,-1.6192,-1.6316,-1.6384,-1.6374,-1.6374,-1.6374,-1.6477,-1.6591,-1.6705,-1.6853,-1.6899,-1.6955,-1.7078,-1.7211,-1.7323,-1.7534,-1.7963,-1.8548,-1.9016,-1.9396,-1.9759,-1.9926,-2.0004,-1.9837,-1.968,-1.9778,-1.9736,-1.9824,-2.0156,-2.0126,-1.9773,-1.9651,-1.9501,-1.9813,-2.0489,-2.0873,-2.1272,-2.1423,-2.1471,-2.1568,-2.1616,-2.1759,-2.1833,-2.176,-2.1909,-2.2114,-2.2267,-2.2349,-2.2555,-2.2615,-2.3157,-2.3636,-2.3709,-2.359,-2.3669,-2.3438,-2.2854,-2.2768,-2.3178,-2.3951,-2.498,-2.5631,-2.6236,-2.6607,-2.6725,-2.6809,-2.6959,-1.3837,-1.3894,-1.4071,-1.4215,-1.4195,-1.4271,-1.4321,-1.4482,-1.4999,-1.5173,-1.5075,-1.501,-1.4904,-1.4683,-1.4734,-1.4531,-1.4436,-1.4486,-1.4592,-1.4593,-1.4569,-1.4999,-1.5488,-1.6035,-1.6594,-1.7157,-1.7619,-1.7832,-1.7461,-1.7109,-1.6475,-1.5762,-1.5596,-1.5449,-1.542,-1.542,-1.542,-1.542,-1.542,-1.542,-1.542,-1.5478,-1.5488,-1.5546,-1.5546,-1.5652,-1.5836,-1.5904,-1.6087,-1.6124,-1.6316,-1.6374,-1.6374,-1.6374,-1.642,-1.6488,-1.6591,-1.6694,-1.674,-1.6899,-1.7011,-1.7145,-1.7211,-1.7479,-1.7963,-1.8494,-1.9016,-1.9291,-1.9656,-1.9914,-1.9851,-1.9724,-1.9747,-1.9823,-1.9716,-1.9607,-1.9859,-1.9686,-1.9394,-1.9278,-1.9172,-1.9748,-2.0335,-2.0806,-2.1164,-2.1369,-2.1479,-2.152,-2.1657,-2.1771,-2.188,-2.182,-2.1801,-2.1978,-2.2041,-2.2076,-2.2381,-2.2692,-2.3113,-2.3323,-2.31,-2.3029,-2.3152,-2.2853,-2.2212,-2.2297,-2.2767,-2.3619,-2.4496,-2.5446,-2.6084,-2.6505,-2.6825,-2.6909,-2.6975,-1.3559,-1.362,-1.39,-1.3937,-1.3901,-1.3946,-1.3967,-1.4145,-1.4667,-1.4903,-1.4771,-1.4735,-1.4575,-1.4366,-1.438,-1.4342,-1.4175,-1.4385,-1.4505,-1.4577,-1.4569,-1.4999,-1.5488,-1.6035,-1.6594,-1.7129,-1.7475,-1.7607,-1.7168,-1.6543,-1.5908,-1.5771,-1.5557,-1.543,-1.542,-1.542,-1.542,-1.542,-1.542,-1.542,-1.542,-1.542,-1.542,-1.542,-1.542,-1.5536,-1.5672,-1.5798,-1.5914,-1.6009,-1.6202,-1.6249,-1.6306,-1.6306,-1.6374,-1.6431,-1.6488,-1.6591,-1.6627,-1.6797,-1.6899,-1.7022,-1.72,-1.7379,-1.7799,-1.8344,-1.8709,-1.9028,-1.95,-1.9876,-1.9687,-1.9548,-1.9801,-1.9991,-1.9594,-1.9192,-1.918,-1.9118,-1.9035,-1.8916,-1.925,-1.9827,-2.0308,-2.0691,-2.0867,-2.0778,-2.0817,-2.101,-2.1282,-2.1597,-2.1848,-2.1909,-2.1819,-2.178,-2.1787,-2.1764,-2.2012,-2.2277,-2.2687,-2.2805,-2.251,-2.2278,-2.2233,-2.1922,-2.1504,-2.1826,-2.2307,-2.3025,-2.3832,-2.481,-2.5729,-2.6234,-2.6622,-2.6942,-2.704,-1.3197,-1.336,-1.3594,-1.3655,-1.3512,-1.3353,-1.3319,-1.3523,-1.417,-1.4384,-1.4342,-1.441,-1.4275,-1.4138,-1.4141,-1.4184,-1.4198,-1.4353,-1.4497,-1.4569,-1.4569,-1.4856,-1.5346,-1.5965,-1.6453,-1.698,-1.7274,-1.7344,-1.7021,-1.6396,-1.5879,-1.5977,-1.5615,-1.542,-1.542,-1.542,-1.542,-1.542,-1.542,-1.542,-1.542,-1.542,-1.542,-1.542,-1.541,-1.5468,-1.5662,-1.5798,-1.5924,-1.5914,-1.6019,-1.6104,-1.6239,-1.6249,-1.6306,-1.6374,-1.6431,-1.6488,-1.6591,-1.6751,-1.6853,-1.7022,-1.72,-1.7323,-1.7645,-1.8073,-1.8452,-1.8602,-1.9069,-1.9344,-1.9312,-1.9202,-1.9315,-1.9492,-1.9358,-1.9183,-1.9218,-1.9006,-1.8656,-1.861,-1.8919,-1.9453,-1.9687,-2.0048,-2.034,-2.017,-2.0251,-2.0478,-2.072,-2.1202,-2.1304,-2.1563,-2.1485,-2.1276,-2.1308,-2.1325,-2.1527,-2.1845,-2.2186,-2.2058,-2.1605,-2.1387,-2.1221,-2.1223,-2.1327,-2.1453,-2.1882,-2.2615,-2.3335,-2.4026,-2.494,-2.5845,-2.6367,-2.6754,-2.7089,-1.2914,-1.3137,-1.3264,-1.3293,-1.3313,-1.3247,-1.32,-1.3265,-1.348,-1.3797,-1.4073,-1.4091,-1.4062,-1.4021,-1.3955,-1.4011,-1.4095,-1.4281,-1.4425,-1.4569,-1.4569,-1.4713,-1.507,-1.5886,-1.6234,-1.641,-1.6722,-1.6973,-1.6498,-1.5908,-1.5586,-1.5576,-1.542,-1.542,-1.542,-1.542,-1.542,-1.542,-1.542,-1.542,-1.542,-1.542,-1.542,-1.542,-1.541,-1.541,-1.5546,-1.5672,-1.574,-1.5798,-1.6009,-1.6181,-1.6306,-1.6249,-1.6249,-1.6374,-1.6374,-1.6431,-1.6545,-1.6705,-1.6807,-1.692,-1.7099,-1.7222,-1.749,-1.7865,-1.8127,-1.8278,-1.8494,-1.8762,-1.8963,-1.8867,-1.8847,-1.8988,-1.912,-1.915,-1.923,-1.8755,-1.8331,-1.8416,-1.8618,-1.8923,-1.9152,-1.9374,-1.9686,-1.9871,-2.0034,-2.015,-2.0182,-2.0422,-2.0244,-2.0456,-2.0726,-2.0642,-2.077,-2.0812,-2.0983,-2.1151,-2.1442,-2.1142,-2.0764,-2.081,-2.0871,-2.1182,-2.1356,-2.145,-2.1737,-2.2384,-2.3069,-2.3546,-2.4223,-2.5157,-2.5961,-2.6415,-2.6867,-1.2751,-1.2856,-1.2969,-1.3006,-1.2986,-1.2866,-1.2812,-1.2925,-1.3078,-1.3318,-1.3694,-1.3775,-1.377,-1.3844,-1.3784,-1.3855,-1.4065,-1.4281,-1.4425,-1.4497,-1.4569,-1.4784,-1.5196,-1.5728,-1.6136,-1.6282,-1.6436,-1.6458,-1.584,-1.5615,-1.5439,-1.541,-1.541,-1.542,-1.541,-1.541,-1.542,-1.542,-1.542,-1.542,-1.542,-1.542,-1.542,-1.542,-1.542,-1.542,-1.5478,-1.5556,-1.5614,-1.5672,-1.5836,-1.6066,-1.6192,-1.6249,-1.6306,-1.6374,-1.6374,-1.6431,-1.6545,-1.6648,-1.6807,-1.6976,-1.7099,-1.7278,-1.7278,-1.7656,-1.7799,-1.7963,-1.8452,-1.8721,-1.8839,-1.8821,-1.8862,-1.8992,-1.8761,-1.8582,-1.84,-1.7965,-1.7894,-1.8124,-1.8442,-1.895,-1.9098,-1.8995,-1.9214,-1.9029,-1.9238,-1.9432,-1.9517,-1.9712,-1.9502,-1.9459,-1.9823,-2.0316,-2.0599,-2.054,-2.0419,-2.0582,-2.0743,-2.0572,-2.0348,-2.0467,-2.0628,-2.1007,-2.1309,-2.1419,-2.1788,-2.2159,-2.2566,-2.2992,-2.3729,-2.4523,-2.5255,-2.6009,-2.6544,-1.2457,-1.251,-1.2645,-1.2768,-1.2728,-1.2425,-1.2399,-1.262,-1.2826,-1.2987,-1.325,-1.3462,-1.3492,-1.3564,-1.3637,-1.3855,-1.3992,-1.4145,-1.4289,-1.4353,-1.4418,-1.4561,-1.4958,-1.559,-1.5863,-1.6039,-1.6129,-1.5897,-1.5508,-1.541,-1.541,-1.541,-1.5352,-1.5352,-1.5352,-1.5362,-1.5371,-1.5362,-1.5362,-1.542,-1.542,-1.542,-1.542,-1.542,-1.542,-1.542,-1.5478,-1.5488,-1.5546,-1.5604,-1.573,-1.5904,-1.6066,-1.6192,-1.6249,-1.6306,-1.6374,-1.6431,-1.6591,-1.6694,-1.6853,-1.6965,-1.7211,-1.7245,-1.7234,-1.7269,-1.7423,-1.7596,-1.8028,-1.8305,-1.8424,-1.856,-1.8655,-1.8596,-1.8262,-1.8053,-1.7701,-1.7389,-1.7574,-1.7779,-1.8227,-1.8745,-1.8785,-1.871,-1.8576,-1.8371,-1.8382,-1.849,-1.8681,-1.8986,-1.9041,-1.9023,-1.923,-1.9748,-2.0157,-2.0165,-1.9897,-1.9904,-2.0016,-1.9945,-1.9993,-2.0281,-2.0613,-2.0991,-2.123,-2.134,-2.1371,-2.1627,-2.2033,-2.2375,-2.3107,-2.3812,-2.4473,-2.5222,-2.6104,-1.1754,-1.1941,-1.2256,-1.2392,-1.2378,-1.2325,-1.2298,-1.2372,-1.2746,-1.2893,-1.3039,-1.3339,-1.3492,-1.3492,-1.3492,-1.3637,-1.3855,-1.4008,-1.4065,-1.4129,-1.4201,-1.4274,-1.4593,-1.5213,-1.5296,-1.5486,-1.5626,-1.5508,-1.5362,-1.5362,-1.5303,-1.5264,-1.5264,-1.5205,-1.5079,-1.5147,-1.5264,-1.5264,-1.5362,-1.541,-1.541,-1.541,-1.542,-1.542,-1.542,-1.542,-1.542,-1.542,-1.542,-1.5478,-1.5614,-1.5788,-1.5961,-1.6077,-1.6181,-1.6249,-1.6316,-1.6477,-1.6591,-1.6694,-1.6853,-1.7011,-1.7101,-1.7071,-1.6972,-1.6754,-1.673,-1.6444,-1.6796,-1.7196,-1.7362,-1.7598,-1.7752,-1.7615,-1.7398,-1.7561,-1.7504,-1.7302,-1.7279,-1.7409,-1.7609,-1.7935,-1.8138,-1.8126,-1.8167,-1.8071,-1.8152,-1.8245,-1.8299,-1.8446,-1.8607,-1.87,-1.8753,-1.8811,-1.9112,-1.9434,-1.9349,-1.9339,-1.9447,-1.973,-1.998,-2.0335,-2.0646,-2.1071,-2.1183,-2.1262,-2.1294,-2.1277,-2.1279,-2.1665,-2.2376,-2.3076,-2.3731,-2.4389,-2.52]}]]